Wetterdaten: Freitag, 21.12.2018
Datum Zeit Temp. A. Feuchte A. Luftdruck Regen Wind Richtung Richtung Sonnenschein ET UV Solar Taupunkt Windchill Windböen
21.12.2018 00:00 0,5 °C 82 % 1021,6 hPa 0,0 mm 0,0 km/h (0 Bft) N-NW 329 ° 0 min 0,000 mm 0,0 UV-I 0 W/m² -2,2 °C 0,5 °C 0,0 km/h (0 Bft)
21.12.2018 00:01 0,5 °C 82 % 1021,6 hPa 0,0 mm 0,0 km/h (0 Bft) N-NW 329 ° 0 min 0,000 mm 0,0 UV-I 0 W/m² -2,2 °C 0,5 °C 0,0 km/h (0 Bft)
21.12.2018 00:02 0,5 °C 82 % 1021,6 hPa 0,0 mm 0,0 km/h (0 Bft) N-NW 329 ° 0 min 0,000 mm 0,0 UV-I 0 W/m² -2,2 °C 0,5 °C 0,0 km/h (0 Bft)
21.12.2018 00:03 0,3 °C 82 % 1021,6 hPa 0,0 mm 0,0 km/h (0 Bft) N-NW 329 ° 0 min 0,000 mm 0,0 UV-I 0 W/m² -2,4 °C 0,3 °C 0,0 km/h (0 Bft)
21.12.2018 00:04 0,3 °C 82 % 1021,6 hPa 0,0 mm 0,2 km/h (0 Bft) N-NW 329 ° 0 min 0,000 mm 0,0 UV-I 0 W/m² -2,4 °C 0,3 °C 1,6 km/h (1 Bft)
21.12.2018 00:05 0,3 °C 83 % 1021,6 hPa 0,0 mm 0,0 km/h (0 Bft) N-NW 329 ° 0 min 0,000 mm 0,0 UV-I 0 W/m² -2,2 °C 0,3 °C 0,0 km/h (0 Bft)
21.12.2018 00:06 0,3 °C 83 % 1021,6 hPa 0,0 mm 1,0 km/h (0 Bft) SW 226 ° 0 min 0,000 mm 0,0 UV-I 0 W/m² -2,2 °C 0,3 °C 3,2 km/h (1 Bft)
21.12.2018 00:07 0,2 °C 83 % 1021,6 hPa 0,0 mm 0,2 km/h (0 Bft) SW 226 ° 0 min 0,000 mm 0,0 UV-I 0 W/m² -2,3 °C 0,2 °C 1,6 km/h (1 Bft)
21.12.2018 00:08 0,2 °C 83 % 1021,6 hPa 0,0 mm 1,3 km/h (1 Bft) SW 226 ° 0 min 0,000 mm 0,0 UV-I 0 W/m² -2,3 °C 0,2 °C 3,2 km/h (1 Bft)
21.12.2018 00:09 0,2 °C 83 % 1021,6 hPa 0,0 mm 0,1 km/h (0 Bft) SW 226 ° 0 min 0,000 mm 0,0 UV-I 0 W/m² -2,3 °C 0,2 °C 1,6 km/h (1 Bft)
21.12.2018 00:10 0,1 °C 84 % 1021,6 hPa 0,0 mm 4,3 km/h (1 Bft) S-SW 194 ° 0 min 0,000 mm 0,0 UV-I 0 W/m² -2,3 °C 0,1 °C 6,4 km/h (2 Bft)
21.12.2018 00:11 0,1 °C 84 % 1021,6 hPa 0,0 mm 0,5 km/h (0 Bft) S-SW 194 ° 0 min 0,000 mm 0,0 UV-I 0 W/m² -2,3 °C 0,1 °C 1,6 km/h (1 Bft)
21.12.2018 00:12 0,1 °C 84 % 1021,6 hPa 0,0 mm 0,6 km/h (0 Bft) S-SW 194 ° 0 min 0,000 mm 0,0 UV-I 0 W/m² -2,3 °C 0,1 °C 3,2 km/h (1 Bft)
21.12.2018 00:13 0,1 °C 84 % 1021,6 hPa 0,0 mm 1,8 km/h (1 Bft) S-SW 194 ° 0 min 0,000 mm 0,0 UV-I 0 W/m² -2,3 °C 0,1 °C 4,8 km/h (1 Bft)
21.12.2018 00:14 0,1 °C 84 % 1021,6 hPa 0,0 mm 2,1 km/h (1 Bft) S-SW 194 ° 0 min 0,000 mm 0,0 UV-I 0 W/m² -2,3 °C 0,1 °C 3,2 km/h (1 Bft)
21.12.2018 00:15 0,1 °C 84 % 1021,6 hPa 0,0 mm 0,5 km/h (0 Bft) S-SW 194 ° 0 min 0,000 mm 0,0 UV-I 0 W/m² -2,3 °C 0,1 °C 3,2 km/h (1 Bft)
21.12.2018 00:16 0,1 °C 84 % 1021,6 hPa 0,0 mm 0,3 km/h (0 Bft) S-SW 194 ° 0 min 0,000 mm 0,0 UV-I 0 W/m² -2,3 °C 0,1 °C 1,6 km/h (1 Bft)
21.12.2018 00:17 0,2 °C 84 % 1021,5 hPa 0,0 mm 0,1 km/h (0 Bft) S-SW 194 ° 0 min 0,000 mm 0,0 UV-I 0 W/m² -2,2 °C 0,2 °C 1,6 km/h (1 Bft)
21.12.2018 00:18 0,2 °C 84 % 1021,5 hPa 0,0 mm 1,0 km/h (0 Bft) S-SW 199 ° 0 min 0,000 mm 0,0 UV-I 0 W/m² -2,2 °C 0,2 °C 6,4 km/h (2 Bft)
21.12.2018 00:19 0,2 °C 84 % 1021,5 hPa 0,0 mm 1,6 km/h (1 Bft) S-SW 209 ° 0 min 0,000 mm 0,0 UV-I 0 W/m² -2,2 °C 0,2 °C 3,2 km/h (1 Bft)
21.12.2018 00:20 0,1 °C 84 % 1021,5 hPa 0,0 mm 0,0 km/h (0 Bft) S-SW 209 ° 0 min 0,000 mm 0,0 UV-I 0 W/m² -2,3 °C 0,1 °C 0,0 km/h (0 Bft)
21.12.2018 00:21 0,1 °C 84 % 1021,5 hPa 0,0 mm 0,1 km/h (0 Bft) S-SO 157 ° 0 min 0,000 mm 0,0 UV-I 0 W/m² -2,3 °C 0,1 °C 1,6 km/h (1 Bft)
21.12.2018 00:22 0,1 °C 84 % 1021,5 hPa 0,0 mm 0,0 km/h (0 Bft) S-SO 157 ° 0 min 0,000 mm 0,0 UV-I 0 W/m² -2,3 °C 0,1 °C 0,0 km/h (0 Bft)
21.12.2018 00:23 0,1 °C 84 % 1021,5 hPa 0,0 mm 0,0 km/h (0 Bft) S-SO 157 ° 0 min 0,000 mm 0,0 UV-I 0 W/m² -2,3 °C 0,1 °C 0,0 km/h (0 Bft)
21.12.2018 00:24 0,0 °C 84 % 1021,6 hPa 0,0 mm 0,0 km/h (0 Bft) S-SO 157 ° 0 min 0,000 mm 0,0 UV-I 0 W/m² -2,4 °C 0,0 °C 0,0 km/h (0 Bft)
21.12.2018 00:25 0,0 °C 84 % 1021,6 hPa 0,0 mm 0,0 km/h (0 Bft) S-SO 157 ° 0 min 0,000 mm 0,0 UV-I 0 W/m² -2,4 °C 0,0 °C 0,0 km/h (0 Bft)
21.12.2018 00:26 0,0 °C 84 % 1021,5 hPa 0,0 mm 0,0 km/h (0 Bft) S-SO 157 ° 0 min 0,000 mm 0,0 UV-I 0 W/m² -2,4 °C 0,0 °C 0,0 km/h (0 Bft)
21.12.2018 00:27 -0,1 °C 84 % 1021,5 hPa 0,0 mm 0,4 km/h (0 Bft) S-SO 157 ° 0 min 0,000 mm 0,0 UV-I 0 W/m² -2,5 °C -0,1 °C 1,6 km/h (1 Bft)
21.12.2018 00:28 -0,1 °C 84 % 1021,6 hPa 0,0 mm 1,0 km/h (0 Bft) S-SO 157 ° 0 min 0,000 mm 0,0 UV-I 0 W/m² -2,5 °C -0,1 °C 1,6 km/h (1 Bft)
21.12.2018 00:29 -0,1 °C 84 % 1021,6 hPa 0,0 mm 0,2 km/h (0 Bft) S-SO 157 ° 0 min 0,000 mm 0,0 UV-I 0 W/m² -2,5 °C -0,1 °C 1,6 km/h (1 Bft)
21.12.2018 00:30 -0,1 °C 84 % 1021,5 hPa 0,0 mm 0,0 km/h (0 Bft) S-SO 157 ° 0 min 0,000 mm 0,0 UV-I 0 W/m² -2,5 °C -0,1 °C 0,0 km/h (0 Bft)
21.12.2018 00:31 -0,2 °C 84 % 1021,5 hPa 0,0 mm 0,0 km/h (0 Bft) S-SO 157 ° 0 min 0,000 mm 0,0 UV-I 0 W/m² -2,6 °C -0,2 °C 0,0 km/h (0 Bft)
21.12.2018 00:32 -0,3 °C 84 % 1021,5 hPa 0,0 mm 0,0 km/h (0 Bft) S-SO 157 ° 0 min 0,000 mm 0,0 UV-I 0 W/m² -2,7 °C -0,3 °C 0,0 km/h (0 Bft)
21.12.2018 00:33 -0,2 °C 84 % 1021,5 hPa 0,0 mm 0,0 km/h (0 Bft) S-SO 157 ° 0 min 0,000 mm 0,0 UV-I 0 W/m² -2,6 °C -0,2 °C 0,0 km/h (0 Bft)
21.12.2018 00:34 -0,3 °C 84 % 1021,5 hPa 0,0 mm 0,0 km/h (0 Bft) S-SO 157 ° 0 min 0,000 mm 0,0 UV-I 0 W/m² -2,7 °C -0,3 °C 0,0 km/h (0 Bft)
21.12.2018 00:35 -0,3 °C 84 % 1021,5 hPa 0,0 mm 0,0 km/h (0 Bft) S-SO 157 ° 0 min 0,000 mm 0,0 UV-I 0 W/m² -2,7 °C -0,3 °C 0,0 km/h (0 Bft)
21.12.2018 00:36 -0,3 °C 84 % 1021,5 hPa 0,0 mm 0,0 km/h (0 Bft) S-SO 157 ° 0 min 0,000 mm 0,0 UV-I 0 W/m² -2,7 °C -0,3 °C 0,0 km/h (0 Bft)
21.12.2018 00:37 -0,3 °C 84 % 1021,5 hPa 0,0 mm 0,0 km/h (0 Bft) S-SO 157 ° 0 min 0,000 mm 0,0 UV-I 0 W/m² -2,7 °C -0,3 °C 0,0 km/h (0 Bft)
21.12.2018 00:38 -0,3 °C 84 % 1021,5 hPa 0,0 mm 1,5 km/h (1 Bft) S-SO 157 ° 0 min 0,000 mm 0,0 UV-I 0 W/m² -2,7 °C -0,3 °C 4,8 km/h (1 Bft)
21.12.2018 00:39 -0,3 °C 84 % 1021,5 hPa 0,0 mm 0,0 km/h (0 Bft) S-SO 157 ° 0 min 0,000 mm 0,0 UV-I 0 W/m² -2,7 °C -0,3 °C 0,0 km/h (0 Bft)
21.12.2018 00:40 -0,3 °C 85 % 1021,5 hPa 0,0 mm 0,0 km/h (0 Bft) S-SO 157 ° 0 min 0,000 mm 0,0 UV-I 0 W/m² -2,5 °C -0,3 °C 0,0 km/h (0 Bft)
21.12.2018 00:41 -0,3 °C 85 % 1021,5 hPa 0,0 mm 0,0 km/h (0 Bft) S-SO 157 ° 0 min 0,000 mm 0,0 UV-I 0 W/m² -2,5 °C -0,3 °C 0,0 km/h (0 Bft)
21.12.2018 00:42 -0,4 °C 85 % 1021,4 hPa 0,0 mm 0,0 km/h (0 Bft) S-SO 157 ° 0 min 0,000 mm 0,0 UV-I 0 W/m² -2,6 °C -0,4 °C 0,0 km/h (0 Bft)
21.12.2018 00:43 -0,4 °C 85 % 1021,4 hPa 0,0 mm 0,0 km/h (0 Bft) S-SO 157 ° 0 min 0,000 mm 0,0 UV-I 0 W/m² -2,6 °C -0,4 °C 0,0 km/h (0 Bft)
21.12.2018 00:44 -0,4 °C 85 % 1021,4 hPa 0,0 mm 0,0 km/h (0 Bft) S-SO 157 ° 0 min 0,000 mm 0,0 UV-I 0 W/m² -2,6 °C -0,4 °C 0,0 km/h (0 Bft)
21.12.2018 00:45 -0,4 °C 85 % 1021,4 hPa 0,0 mm 0,0 km/h (0 Bft) S-SO 157 ° 0 min 0,000 mm 0,0 UV-I 0 W/m² -2,6 °C -0,4 °C 0,0 km/h (0 Bft)
21.12.2018 00:46 -0,4 °C 85 % 1021,4 hPa 0,0 mm 0,0 km/h (0 Bft) S-SO 157 ° 0 min 0,000 mm 0,0 UV-I 0 W/m² -2,6 °C -0,4 °C 0,0 km/h (0 Bft)
21.12.2018 00:47 -0,4 °C 85 % 1021,3 hPa 0,0 mm 0,0 km/h (0 Bft) S-SO 157 ° 0 min 0,000 mm 0,0 UV-I 0 W/m² -2,6 °C -0,4 °C 0,0 km/h (0 Bft)
21.12.2018 00:48 -0,4 °C 85 % 1021,3 hPa 0,0 mm 0,0 km/h (0 Bft) S-SO 157 ° 0 min 0,000 mm 0,0 UV-I 0 W/m² -2,6 °C -0,4 °C 0,0 km/h (0 Bft)
21.12.2018 00:49 -0,4 °C 85 % 1021,4 hPa 0,0 mm 0,0 km/h (0 Bft) S-SO 157 ° 0 min 0,000 mm 0,0 UV-I 0 W/m² -2,6 °C -0,4 °C 0,0 km/h (0 Bft)
21.12.2018 00:50 -0,4 °C 86 % 1021,3 hPa 0,0 mm 0,0 km/h (0 Bft) S-SO 157 ° 0 min 0,000 mm 0,0 UV-I 0 W/m² -2,4 °C -0,4 °C 0,0 km/h (0 Bft)
21.12.2018 00:51 -0,4 °C 85 % 1021,3 hPa 0,0 mm 0,0 km/h (0 Bft) S-SO 157 ° 0 min 0,000 mm 0,0 UV-I 0 W/m² -2,6 °C -0,4 °C 0,0 km/h (0 Bft)
21.12.2018 00:52 -0,4 °C 85 % 1021,3 hPa 0,0 mm 0,0 km/h (0 Bft) S-SO 157 ° 0 min 0,000 mm 0,0 UV-I 0 W/m² -2,6 °C -0,4 °C 0,0 km/h (0 Bft)
21.12.2018 00:53 -0,4 °C 86 % 1021,3 hPa 0,0 mm 0,0 km/h (0 Bft) S-SO 157 ° 0 min 0,000 mm 0,0 UV-I 0 W/m² -2,4 °C -0,4 °C 0,0 km/h (0 Bft)
21.12.2018 00:54 -0,4 °C 86 % 1021,3 hPa 0,0 mm 0,0 km/h (0 Bft) S-SO 157 ° 0 min 0,000 mm 0,0 UV-I 0 W/m² -2,4 °C -0,4 °C 0,0 km/h (0 Bft)
21.12.2018 00:55 -0,4 °C 86 % 1021,3 hPa 0,0 mm 0,0 km/h (0 Bft) S-SO 157 ° 0 min 0,000 mm 0,0 UV-I 0 W/m² -2,4 °C -0,4 °C 0,0 km/h (0 Bft)
21.12.2018 00:56 -0,4 °C 86 % 1021,3 hPa 0,0 mm 0,0 km/h (0 Bft) S-SO 157 ° 0 min 0,000 mm 0,0 UV-I 0 W/m² -2,4 °C -0,4 °C 0,0 km/h (0 Bft)
21.12.2018 00:57 -0,4 °C 86 % 1021,3 hPa 0,0 mm 0,0 km/h (0 Bft) S-SO 157 ° 0 min 0,000 mm 0,0 UV-I 0 W/m² -2,4 °C -0,4 °C 0,0 km/h (0 Bft)
21.12.2018 00:58 -0,5 °C 86 % 1021,3 hPa 0,0 mm 0,0 km/h (0 Bft) S-SO 157 ° 0 min 0,000 mm 0,0 UV-I 0 W/m² -2,5 °C -0,5 °C 0,0 km/h (0 Bft)
21.12.2018 00:59 -0,5 °C 86 % 1021,3 hPa 0,0 mm 0,0 km/h (0 Bft) S-SO 157 ° 0 min 0,000 mm 0,0 UV-I 0 W/m² -2,5 °C -0,5 °C 0,0 km/h (0 Bft)
21.12.2018 01:00 -0,5 °C 86 % 1021,3 hPa 0,0 mm 0,0 km/h (0 Bft) S-SO 157 ° 0 min 0,000 mm 0,0 UV-I 0 W/m² -2,5 °C -0,5 °C 0,0 km/h (0 Bft)
21.12.2018 01:01 -0,5 °C 86 % 1021,3 hPa 0,0 mm 0,0 km/h (0 Bft) S-SO 157 ° 0 min 0,000 mm 0,0 UV-I 0 W/m² -2,5 °C -0,5 °C 0,0 km/h (0 Bft)
21.12.2018 01:02 -0,5 °C 86 % 1021,3 hPa 0,0 mm 0,0 km/h (0 Bft) S-SO 157 ° 0 min 0,000 mm 0,0 UV-I 0 W/m² -2,5 °C -0,5 °C 0,0 km/h (0 Bft)
21.12.2018 01:03 -0,5 °C 86 % 1021,4 hPa 0,0 mm 0,0 km/h (0 Bft) S-SO 157 ° 0 min 0,000 mm 0,0 UV-I 0 W/m² -2,5 °C -0,5 °C 0,0 km/h (0 Bft)
21.12.2018 01:04 -0,6 °C 86 % 1021,4 hPa 0,0 mm 0,0 km/h (0 Bft) S-SO 157 ° 0 min 0,000 mm 0,0 UV-I 0 W/m² -2,6 °C -0,6 °C 0,0 km/h (0 Bft)
21.12.2018 01:05 -0,6 °C 86 % 1021,4 hPa 0,0 mm 0,0 km/h (0 Bft) S-SO 157 ° 0 min 0,000 mm 0,0 UV-I 0 W/m² -2,6 °C -0,6 °C 0,0 km/h (0 Bft)
21.12.2018 01:06 -0,6 °C 86 % 1021,4 hPa 0,0 mm 0,0 km/h (0 Bft) S-SO 157 ° 0 min 0,000 mm 0,0 UV-I 0 W/m² -2,6 °C -0,6 °C 0,0 km/h (0 Bft)
21.12.2018 01:07 -0,6 °C 86 % 1021,4 hPa 0,0 mm 0,0 km/h (0 Bft) S-SO 157 ° 0 min 0,000 mm 0,0 UV-I 0 W/m² -2,6 °C -0,6 °C 0,0 km/h (0 Bft)
21.12.2018 01:08 -0,6 °C 86 % 1021,4 hPa 0,0 mm 0,0 km/h (0 Bft) S-SO 157 ° 0 min 0,000 mm 0,0 UV-I 0 W/m² -2,6 °C -0,6 °C 0,0 km/h (0 Bft)
21.12.2018 01:09 -0,6 °C 86 % 1021,4 hPa 0,0 mm 0,0 km/h (0 Bft) S-SO 157 ° 0 min 0,000 mm 0,0 UV-I 0 W/m² -2,6 °C -0,6 °C 0,0 km/h (0 Bft)
21.12.2018 01:10 -0,6 °C 87 % 1021,4 hPa 0,0 mm 0,0 km/h (0 Bft) S-SO 157 ° 0 min 0,000 mm 0,0 UV-I 0 W/m² -2,5 °C -0,6 °C 0,0 km/h (0 Bft)
21.12.2018 01:11 -0,6 °C 87 % 1021,4 hPa 0,0 mm 0,0 km/h (0 Bft) S-SO 157 ° 0 min 0,000 mm 0,0 UV-I 0 W/m² -2,5 °C -0,6 °C 0,0 km/h (0 Bft)
21.12.2018 01:12 -0,6 °C 87 % 1021,5 hPa 0,0 mm 0,0 km/h (0 Bft) S-SO 157 ° 0 min 0,000 mm 0,0 UV-I 0 W/m² -2,5 °C -0,6 °C 0,0 km/h (0 Bft)
21.12.2018 01:13 -0,6 °C 87 % 1021,5 hPa 0,0 mm 0,0 km/h (0 Bft) S-SO 157 ° 0 min 0,000 mm 0,0 UV-I 0 W/m² -2,5 °C -0,6 °C 0,0 km/h (0 Bft)
21.12.2018 01:14 -0,6 °C 87 % 1021,5 hPa 0,0 mm 0,0 km/h (0 Bft) S-SO 157 ° 0 min 0,000 mm 0,0 UV-I 0 W/m² -2,5 °C -0,6 °C 0,0 km/h (0 Bft)
21.12.2018 01:15 -0,6 °C 87 % 1021,5 hPa 0,0 mm 0,0 km/h (0 Bft) S-SO 157 ° 0 min 0,000 mm 0,0 UV-I 0 W/m² -2,5 °C -0,6 °C 0,0 km/h (0 Bft)
21.12.2018 01:16 -0,6 °C 87 % 1021,5 hPa 0,0 mm 0,0 km/h (0 Bft) S-SO 157 ° 0 min 0,000 mm 0,0 UV-I 0 W/m² -2,5 °C -0,6 °C 0,0 km/h (0 Bft)
21.12.2018 01:17 -0,6 °C 87 % 1021,5 hPa 0,0 mm 0,0 km/h (0 Bft) S-SO 157 ° 0 min 0,000 mm 0,0 UV-I 0 W/m² -2,5 °C -0,6 °C 0,0 km/h (0 Bft)
21.12.2018 01:18 -0,6 °C 87 % 1021,4 hPa 0,0 mm 0,0 km/h (0 Bft) S-SO 157 ° 0 min 0,000 mm 0,0 UV-I 0 W/m² -2,5 °C -0,6 °C 0,0 km/h (0 Bft)
21.12.2018 01:19 -0,6 °C 87 % 1021,4 hPa 0,0 mm 0,0 km/h (0 Bft) S-SO 157 ° 0 min 0,000 mm 0,0 UV-I 0 W/m² -2,5 °C -0,6 °C 0,0 km/h (0 Bft)
21.12.2018 01:20 -0,6 °C 87 % 1021,4 hPa 0,0 mm 0,0 km/h (0 Bft) S-SO 157 ° 0 min 0,000 mm 0,0 UV-I 0 W/m² -2,5 °C -0,6 °C 0,0 km/h (0 Bft)
21.12.2018 01:21 -0,6 °C 87 % 1021,4 hPa 0,0 mm 0,0 km/h (0 Bft) S-SO 157 ° 0 min 0,000 mm 0,0 UV-I 0 W/m² -2,5 °C -0,6 °C 0,0 km/h (0 Bft)
21.12.2018 01:22 -0,6 °C 87 % 1021,5 hPa 0,0 mm 0,0 km/h (0 Bft) S-SO 157 ° 0 min 0,000 mm 0,0 UV-I 0 W/m² -2,5 °C -0,6 °C 0,0 km/h (0 Bft)
21.12.2018 01:23 -0,6 °C 87 % 1021,5 hPa 0,0 mm 0,0 km/h (0 Bft) S-SO 157 ° 0 min 0,000 mm 0,0 UV-I 0 W/m² -2,5 °C -0,6 °C 0,0 km/h (0 Bft)
21.12.2018 01:24 -0,6 °C 87 % 1021,5 hPa 0,0 mm 0,0 km/h (0 Bft) S-SO 157 ° 0 min 0,000 mm 0,0 UV-I 0 W/m² -2,5 °C -0,6 °C 0,0 km/h (0 Bft)
21.12.2018 01:25 -0,6 °C 87 % 1021,5 hPa 0,0 mm 0,0 km/h (0 Bft) S-SO 157 ° 0 min 0,000 mm 0,0 UV-I 0 W/m² -2,5 °C -0,6 °C 0,0 km/h (0 Bft)
21.12.2018 01:26 -0,6 °C 87 % 1021,4 hPa 0,0 mm 0,0 km/h (0 Bft) S-SO 157 ° 0 min 0,000 mm 0,0 UV-I 0 W/m² -2,5 °C -0,6 °C 0,0 km/h (0 Bft)
21.12.2018 01:27 -0,6 °C 88 % 1021,4 hPa 0,0 mm 0,0 km/h (0 Bft) S-SO 157 ° 0 min 0,000 mm 0,0 UV-I 0 W/m² -2,3 °C -0,6 °C 0,0 km/h (0 Bft)
21.12.2018 01:28 -0,6 °C 88 % 1021,3 hPa 0,0 mm 0,0 km/h (0 Bft) S-SO 157 ° 0 min 0,000 mm 0,0 UV-I 0 W/m² -2,3 °C -0,6 °C 0,0 km/h (0 Bft)
21.12.2018 01:29 -0,6 °C 88 % 1021,3 hPa 0,0 mm 0,0 km/h (0 Bft) S-SO 157 ° 0 min 0,000 mm 0,0 UV-I 0 W/m² -2,3 °C -0,6 °C 0,0 km/h (0 Bft)
21.12.2018 01:30 -0,6 °C 88 % 1021,3 hPa 0,0 mm 0,0 km/h (0 Bft) S-SO 157 ° 0 min 0,000 mm 0,0 UV-I 0 W/m² -2,3 °C -0,6 °C 0,0 km/h (0 Bft)
21.12.2018 01:31 -0,6 °C 88 % 1021,3 hPa 0,0 mm 0,0 km/h (0 Bft) S-SO 157 ° 0 min 0,000 mm 0,0 UV-I 0 W/m² -2,3 °C -0,6 °C 0,0 km/h (0 Bft)
21.12.2018 01:32 -0,6 °C 88 % 1021,3 hPa 0,0 mm 0,0 km/h (0 Bft) S-SO 157 ° 0 min 0,000 mm 0,0 UV-I 0 W/m² -2,3 °C -0,6 °C 0,0 km/h (0 Bft)
21.12.2018 01:33 -0,6 °C 88 % 1021,3 hPa 0,0 mm 0,0 km/h (0 Bft) S-SO 157 ° 0 min 0,000 mm 0,0 UV-I 0 W/m² -2,3 °C -0,6 °C 0,0 km/h (0 Bft)
21.12.2018 01:34 -0,6 °C 88 % 1021,2 hPa 0,0 mm 0,0 km/h (0 Bft) S-SO 157 ° 0 min 0,000 mm 0,0 UV-I 0 W/m² -2,3 °C -0,6 °C 0,0 km/h (0 Bft)
21.12.2018 01:35 -0,6 °C 88 % 1021,3 hPa 0,0 mm 0,0 km/h (0 Bft) S-SO 157 ° 0 min 0,000 mm 0,0 UV-I 0 W/m² -2,3 °C -0,6 °C 0,0 km/h (0 Bft)
21.12.2018 01:36 -0,6 °C 88 % 1021,3 hPa 0,0 mm 0,0 km/h (0 Bft) S-SO 157 ° 0 min 0,000 mm 0,0 UV-I 0 W/m² -2,3 °C -0,6 °C 0,0 km/h (0 Bft)
21.12.2018 01:37 -0,6 °C 88 % 1021,3 hPa 0,0 mm 0,0 km/h (0 Bft) S-SO 157 ° 0 min 0,000 mm 0,0 UV-I 0 W/m² -2,3 °C -0,6 °C 0,0 km/h (0 Bft)
21.12.2018 01:38 -0,6 °C 88 % 1021,3 hPa 0,0 mm 0,1 km/h (0 Bft) S-SO 157 ° 0 min 0,000 mm 0,0 UV-I 0 W/m² -2,3 °C -0,6 °C 1,6 km/h (1 Bft)
21.12.2018 01:39 -0,6 °C 88 % 1021,3 hPa 0,0 mm 0,0 km/h (0 Bft) S-SO 157 ° 0 min 0,000 mm 0,0 UV-I 0 W/m² -2,3 °C -0,6 °C 0,0 km/h (0 Bft)
21.12.2018 01:40 -0,6 °C 88 % 1021,3 hPa 0,0 mm 0,2 km/h (0 Bft) S-SO 157 ° 0 min 0,000 mm 0,0 UV-I 0 W/m² -2,3 °C -0,6 °C 1,6 km/h (1 Bft)
21.12.2018 01:41 -0,6 °C 88 % 1021,3 hPa 0,0 mm 0,3 km/h (0 Bft) S-SO 157 ° 0 min 0,000 mm 0,0 UV-I 0 W/m² -2,3 °C -0,6 °C 1,6 km/h (1 Bft)
21.12.2018 01:42 -0,6 °C 88 % 1021,3 hPa 0,0 mm 0,0 km/h (0 Bft) S-SO 157 ° 0 min 0,000 mm 0,0 UV-I 0 W/m² -2,3 °C -0,6 °C 0,0 km/h (0 Bft)
21.12.2018 01:43 -0,6 °C 88 % 1021,3 hPa 0,0 mm 0,3 km/h (0 Bft) S-SO 157 ° 0 min 0,000 mm 0,0 UV-I 0 W/m² -2,3 °C -0,6 °C 1,6 km/h (1 Bft)
21.12.2018 01:44 -0,6 °C 88 % 1021,3 hPa 0,0 mm 1,9 km/h (1 Bft) S-SO 157 ° 0 min 0,000 mm 0,0 UV-I 0 W/m² -2,3 °C -0,6 °C 3,2 km/h (1 Bft)
21.12.2018 01:45 -0,7 °C 88 % 1021,2 hPa 0,0 mm 0,1 km/h (0 Bft) S-SO 157 ° 0 min 0,000 mm 0,0 UV-I 0 W/m² -2,4 °C -0,7 °C 1,6 km/h (1 Bft)
21.12.2018 01:46 -0,7 °C 88 % 1021,2 hPa 0,0 mm 0,0 km/h (0 Bft) S-SO 157 ° 0 min 0,000 mm 0,0 UV-I 0 W/m² -2,4 °C -0,7 °C 0,0 km/h (0 Bft)
21.12.2018 01:47 -0,6 °C 88 % 1021,2 hPa 0,0 mm 0,0 km/h (0 Bft) S-SO 157 ° 0 min 0,000 mm 0,0 UV-I 0 W/m² -2,3 °C -0,6 °C 0,0 km/h (0 Bft)
21.12.2018 01:48 -0,7 °C 88 % 1021,2 hPa 0,0 mm 0,0 km/h (0 Bft) S-SO 157 ° 0 min 0,000 mm 0,0 UV-I 0 W/m² -2,4 °C -0,7 °C 0,0 km/h (0 Bft)
21.12.2018 01:49 -0,7 °C 88 % 1021,2 hPa 0,0 mm 0,0 km/h (0 Bft) S-SO 157 ° 0 min 0,000 mm 0,0 UV-I 0 W/m² -2,4 °C -0,7 °C 0,0 km/h (0 Bft)
21.12.2018 01:50 -0,7 °C 88 % 1021,2 hPa 0,0 mm 0,0 km/h (0 Bft) S-SO 157 ° 0 min 0,000 mm 0,0 UV-I 0 W/m² -2,4 °C -0,7 °C 0,0 km/h (0 Bft)
21.12.2018 01:51 -0,7 °C 88 % 1021,2 hPa 0,0 mm 0,0 km/h (0 Bft) S-SO 157 ° 0 min 0,000 mm 0,0 UV-I 0 W/m² -2,4 °C -0,7 °C 0,0 km/h (0 Bft)
21.12.2018 01:52 -0,7 °C 88 % 1021,2 hPa 0,0 mm 0,0 km/h (0 Bft) S-SO 157 ° 0 min 0,000 mm 0,0 UV-I 0 W/m² -2,4 °C -0,7 °C 0,0 km/h (0 Bft)
21.12.2018 01:53 -0,7 °C 88 % 1021,2 hPa 0,0 mm 0,0 km/h (0 Bft) S-SO 157 ° 0 min 0,000 mm 0,0 UV-I 0 W/m² -2,4 °C -0,7 °C 0,0 km/h (0 Bft)
21.12.2018 01:54 -0,7 °C 88 % 1021,2 hPa 0,0 mm 0,0 km/h (0 Bft) S-SO 157 ° 0 min 0,000 mm 0,0 UV-I 0 W/m² -2,4 °C -0,7 °C 0,0 km/h (0 Bft)
21.12.2018 01:55 -0,7 °C 88 % 1021,2 hPa 0,0 mm 0,0 km/h (0 Bft) S-SO 157 ° 0 min 0,000 mm 0,0 UV-I 0 W/m² -2,4 °C -0,7 °C 0,0 km/h (0 Bft)
21.12.2018 01:56 -0,7 °C 88 % 1021,2 hPa 0,0 mm 0,0 km/h (0 Bft) S-SO 157 ° 0 min 0,000 mm 0,0 UV-I 0 W/m² -2,4 °C -0,7 °C 0,0 km/h (0 Bft)
21.12.2018 01:57 -0,7 °C 88 % 1021,1 hPa 0,0 mm 0,0 km/h (0 Bft) S-SO 157 ° 0 min 0,000 mm 0,0 UV-I 0 W/m² -2,4 °C -0,7 °C 0,0 km/h (0 Bft)
21.12.2018 01:58 -0,7 °C 88 % 1021,1 hPa 0,0 mm 0,0 km/h (0 Bft) S-SO 157 ° 0 min 0,000 mm 0,0 UV-I 0 W/m² -2,4 °C -0,7 °C 0,0 km/h (0 Bft)
21.12.2018 01:59 -0,7 °C 89 % 1021,1 hPa 0,0 mm 0,0 km/h (0 Bft) S-SO 157 ° 0 min 0,000 mm 0,0 UV-I 0 W/m² -2,3 °C -0,7 °C 0,0 km/h (0 Bft)
21.12.2018 02:00 -0,7 °C 89 % 1021,1 hPa 0,0 mm 0,0 km/h (0 Bft) S-SO 157 ° 0 min 0,000 mm 0,0 UV-I 0 W/m² -2,3 °C -0,7 °C 0,0 km/h (0 Bft)
21.12.2018 02:01 -0,7 °C 89 % 1021,1 hPa 0,0 mm 0,0 km/h (0 Bft) S-SO 157 ° 0 min 0,000 mm 0,0 UV-I 0 W/m² -2,3 °C -0,7 °C 0,0 km/h (0 Bft)
21.12.2018 02:02 -0,7 °C 89 % 1021,1 hPa 0,0 mm 0,0 km/h (0 Bft) S-SO 157 ° 0 min 0,000 mm 0,0 UV-I 0 W/m² -2,3 °C -0,7 °C 0,0 km/h (0 Bft)
21.12.2018 02:03 -0,7 °C 89 % 1021,2 hPa 0,0 mm 0,0 km/h (0 Bft) S-SO 157 ° 0 min 0,000 mm 0,0 UV-I 0 W/m² -2,3 °C -0,7 °C 0,0 km/h (0 Bft)
21.12.2018 02:04 -0,7 °C 89 % 1021,1 hPa 0,0 mm 0,0 km/h (0 Bft) S-SO 157 ° 0 min 0,000 mm 0,0 UV-I 0 W/m² -2,3 °C -0,7 °C 0,0 km/h (0 Bft)
21.12.2018 02:05 -0,7 °C 89 % 1021,1 hPa 0,0 mm 0,0 km/h (0 Bft) S-SO 157 ° 0 min 0,000 mm 0,0 UV-I 0 W/m² -2,3 °C -0,7 °C 0,0 km/h (0 Bft)
21.12.2018 02:06 -0,7 °C 89 % 1021,1 hPa 0,0 mm 0,0 km/h (0 Bft) S-SO 157 ° 0 min 0,000 mm 0,0 UV-I 0 W/m² -2,3 °C -0,7 °C 0,0 km/h (0 Bft)
21.12.2018 02:07 -0,7 °C 89 % 1021,1 hPa 0,0 mm 0,0 km/h (0 Bft) S-SO 157 ° 0 min 0,000 mm 0,0 UV-I 0 W/m² -2,3 °C -0,7 °C 0,0 km/h (0 Bft)
21.12.2018 02:08 -0,7 °C 89 % 1021,1 hPa 0,0 mm 0,0 km/h (0 Bft) S-SO 157 ° 0 min 0,000 mm 0,0 UV-I 0 W/m² -2,3 °C -0,7 °C 0,0 km/h (0 Bft)
21.12.2018 02:09 -0,7 °C 89 % 1021,2 hPa 0,0 mm 0,0 km/h (0 Bft) S-SO 157 ° 0 min 0,000 mm 0,0 UV-I 0 W/m² -2,3 °C -0,7 °C 0,0 km/h (0 Bft)
21.12.2018 02:10 -0,7 °C 89 % 1021,2 hPa 0,0 mm 0,0 km/h (0 Bft) S-SO 157 ° 0 min 0,000 mm 0,0 UV-I 0 W/m² -2,3 °C -0,7 °C 0,0 km/h (0 Bft)
21.12.2018 02:11 -0,7 °C 89 % 1021,3 hPa 0,0 mm 0,0 km/h (0 Bft) S-SO 157 ° 0 min 0,000 mm 0,0 UV-I 0 W/m² -2,3 °C -0,7 °C 0,0 km/h (0 Bft)
21.12.2018 02:12 -0,8 °C 89 % 1021,2 hPa 0,0 mm 0,0 km/h (0 Bft) S-SO 157 ° 0 min 0,000 mm 0,0 UV-I 0 W/m² -2,4 °C -0,8 °C 0,0 km/h (0 Bft)
21.12.2018 02:13 -0,7 °C 89 % 1021,2 hPa 0,0 mm 0,0 km/h (0 Bft) S-SO 157 ° 0 min 0,000 mm 0,0 UV-I 0 W/m² -2,3 °C -0,7 °C 0,0 km/h (0 Bft)
21.12.2018 02:14 -0,7 °C 89 % 1021,2 hPa 0,0 mm 0,0 km/h (0 Bft) S-SO 157 ° 0 min 0,000 mm 0,0 UV-I 0 W/m² -2,3 °C -0,7 °C 0,0 km/h (0 Bft)
21.12.2018 02:15 -0,7 °C 89 % 1021,2 hPa 0,0 mm 0,0 km/h (0 Bft) S-SO 157 ° 0 min 0,000 mm 0,0 UV-I 0 W/m² -2,3 °C -0,7 °C 0,0 km/h (0 Bft)
21.12.2018 02:16 -0,8 °C 88 % 1021,3 hPa 0,0 mm 0,0 km/h (0 Bft) S-SO 157 ° 0 min 0,000 mm 0,0 UV-I 0 W/m² -2,5 °C -0,8 °C 0,0 km/h (0 Bft)
21.12.2018 02:17 -0,8 °C 89 % 1021,3 hPa 0,0 mm 0,0 km/h (0 Bft) S-SO 157 ° 0 min 0,000 mm 0,0 UV-I 0 W/m² -2,4 °C -0,8 °C 0,0 km/h (0 Bft)
21.12.2018 02:18 -0,8 °C 88 % 1021,3 hPa 0,0 mm 0,0 km/h (0 Bft) S-SO 157 ° 0 min 0,000 mm 0,0 UV-I 0 W/m² -2,5 °C -0,8 °C 0,0 km/h (0 Bft)
21.12.2018 02:19 -0,8 °C 88 % 1021,3 hPa 0,0 mm 0,0 km/h (0 Bft) S-SO 157 ° 0 min 0,000 mm 0,0 UV-I 0 W/m² -2,5 °C -0,8 °C 0,0 km/h (0 Bft)
21.12.2018 02:20 -0,8 °C 89 % 1021,4 hPa 0,0 mm 0,0 km/h (0 Bft) S-SO 157 ° 0 min 0,000 mm 0,0 UV-I 0 W/m² -2,4 °C -0,8 °C 0,0 km/h (0 Bft)
21.12.2018 02:21 -0,8 °C 89 % 1021,4 hPa 0,0 mm 0,0 km/h (0 Bft) S-SO 157 ° 0 min 0,000 mm 0,0 UV-I 0 W/m² -2,4 °C -0,8 °C 0,0 km/h (0 Bft)
21.12.2018 02:22 -0,8 °C 89 % 1021,4 hPa 0,0 mm 0,0 km/h (0 Bft) S-SO 157 ° 0 min 0,000 mm 0,0 UV-I 0 W/m² -2,4 °C -0,8 °C 0,0 km/h (0 Bft)
21.12.2018 02:23 -0,8 °C 89 % 1021,4 hPa 0,0 mm 0,0 km/h (0 Bft) S-SO 157 ° 0 min 0,000 mm 0,0 UV-I 0 W/m² -2,4 °C -0,8 °C 0,0 km/h (0 Bft)
21.12.2018 02:24 -0,8 °C 89 % 1021,4 hPa 0,0 mm 0,0 km/h (0 Bft) S-SO 157 ° 0 min 0,000 mm 0,0 UV-I 0 W/m² -2,4 °C -0,8 °C 0,0 km/h (0 Bft)
21.12.2018 02:25 -0,8 °C 89 % 1021,4 hPa 0,0 mm 0,0 km/h (0 Bft) S-SO 157 ° 0 min 0,000 mm 0,0 UV-I 0 W/m² -2,4 °C -0,8 °C 0,0 km/h (0 Bft)
21.12.2018 02:26 -0,8 °C 89 % 1021,4 hPa 0,0 mm 0,0 km/h (0 Bft) S-SO 157 ° 0 min 0,000 mm 0,0 UV-I 0 W/m² -2,4 °C -0,8 °C 0,0 km/h (0 Bft)
21.12.2018 02:27 -0,8 °C 89 % 1021,4 hPa 0,0 mm 0,0 km/h (0 Bft) S-SO 157 ° 0 min 0,000 mm 0,0 UV-I 0 W/m² -2,4 °C -0,8 °C 0,0 km/h (0 Bft)
21.12.2018 02:28 -0,8 °C 89 % 1021,4 hPa 0,0 mm 0,0 km/h (0 Bft) S-SO 157 ° 0 min 0,000 mm 0,0 UV-I 0 W/m² -2,4 °C -0,8 °C 0,0 km/h (0 Bft)
21.12.2018 02:29 -0,8 °C 89 % 1021,4 hPa 0,0 mm 0,0 km/h (0 Bft) S-SO 157 ° 0 min 0,000 mm 0,0 UV-I 0 W/m² -2,4 °C -0,8 °C 0,0 km/h (0 Bft)
21.12.2018 02:30 -0,8 °C 89 % 1021,4 hPa 0,0 mm 0,0 km/h (0 Bft) S-SO 157 ° 0 min 0,000 mm 0,0 UV-I 0 W/m² -2,4 °C -0,8 °C 0,0 km/h (0 Bft)
21.12.2018 02:31 -0,8 °C 89 % 1021,3 hPa 0,0 mm 0,0 km/h (0 Bft) S-SO 157 ° 0 min 0,000 mm 0,0 UV-I 0 W/m² -2,4 °C -0,8 °C 0,0 km/h (0 Bft)
21.12.2018 02:32 -0,8 °C 89 % 1021,3 hPa 0,0 mm 0,0 km/h (0 Bft) S-SO 157 ° 0 min 0,000 mm 0,0 UV-I 0 W/m² -2,4 °C -0,8 °C 0,0 km/h (0 Bft)
21.12.2018 02:33 -0,8 °C 89 % 1021,3 hPa 0,0 mm 0,0 km/h (0 Bft) S-SO 157 ° 0 min 0,000 mm 0,0 UV-I 0 W/m² -2,4 °C -0,8 °C 0,0 km/h (0 Bft)
21.12.2018 02:34 -0,8 °C 89 % 1021,3 hPa 0,0 mm 0,0 km/h (0 Bft) S-SO 157 ° 0 min 0,000 mm 0,0 UV-I 0 W/m² -2,4 °C -0,8 °C 0,0 km/h (0 Bft)
21.12.2018 02:35 -0,8 °C 89 % 1021,4 hPa 0,0 mm 0,0 km/h (0 Bft) S-SO 157 ° 0 min 0,000 mm 0,0 UV-I 0 W/m² -2,4 °C -0,8 °C 0,0 km/h (0 Bft)
21.12.2018 02:36 -0,8 °C 89 % 1021,4 hPa 0,0 mm 0,0 km/h (0 Bft) S-SO 157 ° 0 min 0,000 mm 0,0 UV-I 0 W/m² -2,4 °C -0,8 °C 0,0 km/h (0 Bft)
21.12.2018 02:37 -0,8 °C 89 % 1021,4 hPa 0,0 mm 0,0 km/h (0 Bft) S-SO 157 ° 0 min 0,000 mm 0,0 UV-I 0 W/m² -2,4 °C -0,8 °C 0,0 km/h (0 Bft)
21.12.2018 02:38 -0,8 °C 89 % 1021,4 hPa 0,0 mm 0,0 km/h (0 Bft) S-SO 157 ° 0 min 0,000 mm 0,0 UV-I 0 W/m² -2,4 °C -0,8 °C 0,0 km/h (0 Bft)
21.12.2018 02:39 -0,8 °C 89 % 1021,3 hPa 0,0 mm 0,0 km/h (0 Bft) S-SO 157 ° 0 min 0,000 mm 0,0 UV-I 0 W/m² -2,4 °C -0,8 °C 0,0 km/h (0 Bft)
21.12.2018 02:40 -0,8 °C 89 % 1021,3 hPa 0,0 mm 0,0 km/h (0 Bft) S-SO 157 ° 0 min 0,000 mm 0,0 UV-I 0 W/m² -2,4 °C -0,8 °C 0,0 km/h (0 Bft)
21.12.2018 02:41 -0,8 °C 89 % 1021,3 hPa 0,0 mm 0,0 km/h (0 Bft) S-SO 157 ° 0 min 0,000 mm 0,0 UV-I 0 W/m² -2,4 °C -0,8 °C 0,0 km/h (0 Bft)
21.12.2018 02:42 -0,8 °C 89 % 1021,5 hPa 0,0 mm 0,9 km/h (0 Bft) S-SO 157 ° 0 min 0,000 mm 0,0 UV-I 0 W/m² -2,4 °C -0,8 °C 3,2 km/h (1 Bft)
21.12.2018 02:43 -0,8 °C 89 % 1021,5 hPa 0,0 mm 0,7 km/h (0 Bft) S-SO 157 ° 0 min 0,000 mm 0,0 UV-I 0 W/m² -2,4 °C -0,8 °C 3,2 km/h (1 Bft)
21.12.2018 02:44 -0,8 °C 89 % 1021,5 hPa 0,0 mm 0,0 km/h (0 Bft) S-SO 157 ° 0 min 0,000 mm 0,0 UV-I 0 W/m² -2,4 °C -0,8 °C 0,0 km/h (0 Bft)
21.12.2018 02:45 -0,8 °C 89 % 1021,4 hPa 0,0 mm 0,0 km/h (0 Bft) S-SO 157 ° 0 min 0,000 mm 0,0 UV-I 0 W/m² -2,4 °C -0,8 °C 0,0 km/h (0 Bft)
21.12.2018 02:46 -0,8 °C 89 % 1021,4 hPa 0,0 mm 0,0 km/h (0 Bft) S-SO 157 ° 0 min 0,000 mm 0,0 UV-I 0 W/m² -2,4 °C -0,8 °C 0,0 km/h (0 Bft)
21.12.2018 02:47 -0,8 °C 89 % 1021,4 hPa 0,0 mm 0,0 km/h (0 Bft) S-SO 157 ° 0 min 0,000 mm 0,0 UV-I 0 W/m² -2,4 °C -0,8 °C 0,0 km/h (0 Bft)
21.12.2018 02:48 -0,8 °C 89 % 1021,4 hPa 0,0 mm 0,0 km/h (0 Bft) S-SO 157 ° 0 min 0,000 mm 0,0 UV-I 0 W/m² -2,4 °C -0,8 °C 0,0 km/h (0 Bft)
21.12.2018 02:49 -0,8 °C 89 % 1021,4 hPa 0,0 mm 3,2 km/h (1 Bft) S-SO 157 ° 0 min 0,000 mm 0,0 UV-I 0 W/m² -2,4 °C -0,8 °C 8,0 km/h (2 Bft)
21.12.2018 02:50 -0,8 °C 89 % 1021,4 hPa 0,0 mm 1,4 km/h (1 Bft) S-SO 157 ° 0 min 0,000 mm 0,0 UV-I 0 W/m² -2,4 °C -0,8 °C 3,2 km/h (1 Bft)
21.12.2018 02:51 -0,7 °C 89 % 1021,4 hPa 0,0 mm 0,0 km/h (0 Bft) S-SO 157 ° 0 min 0,000 mm 0,0 UV-I 0 W/m² -2,3 °C -0,7 °C 0,0 km/h (0 Bft)
21.12.2018 02:52 -0,7 °C 89 % 1021,4 hPa 0,0 mm 0,0 km/h (0 Bft) S-SO 157 ° 0 min 0,000 mm 0,0 UV-I 0 W/m² -2,3 °C -0,7 °C 0,0 km/h (0 Bft)
21.12.2018 02:53 -0,7 °C 89 % 1021,4 hPa 0,0 mm 0,0 km/h (0 Bft) S-SO 157 ° 0 min 0,000 mm 0,0 UV-I 0 W/m² -2,3 °C -0,7 °C 0,0 km/h (0 Bft)
21.12.2018 02:54 -0,7 °C 89 % 1021,4 hPa 0,0 mm 0,0 km/h (0 Bft) S-SO 157 ° 0 min 0,000 mm 0,0 UV-I 0 W/m² -2,3 °C -0,7 °C 0,0 km/h (0 Bft)
21.12.2018 02:55 -0,7 °C 89 % 1021,3 hPa 0,0 mm 0,0 km/h (0 Bft) S-SO 157 ° 0 min 0,000 mm 0,0 UV-I 0 W/m² -2,3 °C -0,7 °C 0,0 km/h (0 Bft)
21.12.2018 02:56 -0,7 °C 89 % 1021,3 hPa 0,0 mm 0,0 km/h (0 Bft) S-SO 157 ° 0 min 0,000 mm 0,0 UV-I 0 W/m² -2,3 °C -0,7 °C 0,0 km/h (0 Bft)
21.12.2018 02:57 -0,7 °C 89 % 1021,3 hPa 0,0 mm 0,0 km/h (0 Bft) S-SO 157 ° 0 min 0,000 mm 0,0 UV-I 0 W/m² -2,3 °C -0,7 °C 0,0 km/h (0 Bft)
21.12.2018 02:58 -0,7 °C 89 % 1021,3 hPa 0,0 mm 0,0 km/h (0 Bft) S-SO 157 ° 0 min 0,000 mm 0,0 UV-I 0 W/m² -2,3 °C -0,7 °C 0,0 km/h (0 Bft)
21.12.2018 02:59 -0,7 °C 89 % 1021,3 hPa 0,0 mm 0,0 km/h (0 Bft) S-SO 157 ° 0 min 0,000 mm 0,0 UV-I 0 W/m² -2,3 °C -0,7 °C 0,0 km/h (0 Bft)
21.12.2018 03:00 -0,7 °C 89 % 1021,3 hPa 0,0 mm 0,0 km/h (0 Bft) S-SO 157 ° 0 min 0,000 mm 0,0 UV-I 0 W/m² -2,3 °C -0,7 °C 0,0 km/h (0 Bft)
21.12.2018 03:01 -0,7 °C 89 % 1021,3 hPa 0,0 mm 0,0 km/h (0 Bft) S-SO 157 ° 0 min 0,000 mm 0,0 UV-I 0 W/m² -2,3 °C -0,7 °C 0,0 km/h (0 Bft)
21.12.2018 03:02 -0,7 °C 89 % 1021,3 hPa 0,0 mm 0,0 km/h (0 Bft) S-SO 157 ° 0 min 0,000 mm 0,0 UV-I 0 W/m² -2,3 °C -0,7 °C 0,0 km/h (0 Bft)
21.12.2018 03:03 -0,7 °C 89 % 1021,3 hPa 0,0 mm 0,0 km/h (0 Bft) S-SO 157 ° 0 min 0,000 mm 0,0 UV-I 0 W/m² -2,3 °C -0,7 °C 0,0 km/h (0 Bft)
21.12.2018 03:04 -0,6 °C 89 % 1021,3 hPa 0,0 mm 0,0 km/h (0 Bft) S-SO 157 ° 0 min 0,000 mm 0,0 UV-I 0 W/m² -2,2 °C -0,6 °C 0,0 km/h (0 Bft)
21.12.2018 03:05 -0,7 °C 89 % 1021,3 hPa 0,0 mm 0,0 km/h (0 Bft) S-SO 157 ° 0 min 0,000 mm 0,0 UV-I 0 W/m² -2,3 °C -0,7 °C 0,0 km/h (0 Bft)
21.12.2018 03:06 -0,7 °C 89 % 1021,4 hPa 0,0 mm 0,0 km/h (0 Bft) S-SO 157 ° 0 min 0,000 mm 0,0 UV-I 0 W/m² -2,3 °C -0,7 °C 0,0 km/h (0 Bft)
21.12.2018 03:07 -0,7 °C 89 % 1021,3 hPa 0,0 mm 0,0 km/h (0 Bft) S-SO 157 ° 0 min 0,000 mm 0,0 UV-I 0 W/m² -2,3 °C -0,7 °C 0,0 km/h (0 Bft)
21.12.2018 03:08 -0,7 °C 89 % 1021,3 hPa 0,0 mm 0,0 km/h (0 Bft) S-SO 157 ° 0 min 0,000 mm 0,0 UV-I 0 W/m² -2,3 °C -0,7 °C 0,0 km/h (0 Bft)
21.12.2018 03:09 -0,7 °C 89 % 1021,3 hPa 0,0 mm 0,0 km/h (0 Bft) S-SO 157 ° 0 min 0,000 mm 0,0 UV-I 0 W/m² -2,3 °C -0,7 °C 0,0 km/h (0 Bft)
21.12.2018 03:10 -0,7 °C 89 % 1021,3 hPa 0,0 mm 0,0 km/h (0 Bft) S-SO 157 ° 0 min 0,000 mm 0,0 UV-I 0 W/m² -2,3 °C -0,7 °C 0,0 km/h (0 Bft)
21.12.2018 03:11 -0,7 °C 89 % 1021,2 hPa 0,0 mm 0,0 km/h (0 Bft) S-SO 157 ° 0 min 0,000 mm 0,0 UV-I 0 W/m² -2,3 °C -0,7 °C 0,0 km/h (0 Bft)
21.12.2018 03:12 -0,7 °C 89 % 1021,2 hPa 0,0 mm 0,1 km/h (0 Bft) S-SO 157 ° 0 min 0,000 mm 0,0 UV-I 0 W/m² -2,3 °C -0,7 °C 1,6 km/h (1 Bft)
21.12.2018 03:13 -0,7 °C 89 % 1021,2 hPa 0,0 mm 0,0 km/h (0 Bft) S-SO 157 ° 0 min 0,000 mm 0,0 UV-I 0 W/m² -2,3 °C -0,7 °C 0,0 km/h (0 Bft)
21.12.2018 03:14 -0,7 °C 89 % 1021,2 hPa 0,0 mm 0,0 km/h (0 Bft) S-SO 157 ° 0 min 0,000 mm 0,0 UV-I 0 W/m² -2,3 °C -0,7 °C 0,0 km/h (0 Bft)
21.12.2018 03:15 -0,7 °C 89 % 1021,2 hPa 0,0 mm 0,0 km/h (0 Bft) S-SO 157 ° 0 min 0,000 mm 0,0 UV-I 0 W/m² -2,3 °C -0,7 °C 0,0 km/h (0 Bft)
21.12.2018 03:16 -0,7 °C 89 % 1021,1 hPa 0,0 mm 0,0 km/h (0 Bft) S-SO 157 ° 0 min 0,000 mm 0,0 UV-I 0 W/m² -2,3 °C -0,7 °C 0,0 km/h (0 Bft)
21.12.2018 03:17 -0,7 °C 89 % 1021,1 hPa 0,0 mm 0,0 km/h (0 Bft) S-SO 157 ° 0 min 0,000 mm 0,0 UV-I 0 W/m² -2,3 °C -0,7 °C 0,0 km/h (0 Bft)
21.12.2018 03:18 -0,7 °C 89 % 1021,1 hPa 0,0 mm 1,0 km/h (0 Bft) S-SO 157 ° 0 min 0,000 mm 0,0 UV-I 0 W/m² -2,3 °C -0,7 °C 4,8 km/h (1 Bft)
21.12.2018 03:19 -0,6 °C 89 % 1021,0 hPa 0,0 mm 3,6 km/h (1 Bft) S-SO 157 ° 0 min 0,000 mm 0,0 UV-I 0 W/m² -2,2 °C -0,6 °C 4,8 km/h (1 Bft)
21.12.2018 03:20 -0,6 °C 89 % 1021,0 hPa 0,0 mm 4,6 km/h (1 Bft) S 175 ° 0 min 0,000 mm 0,0 UV-I 0 W/m² -2,2 °C -2,1 °C 6,4 km/h (2 Bft)
21.12.2018 03:21 -0,6 °C 89 % 1021,1 hPa 0,0 mm 5,0 km/h (1 Bft) S 175 ° 0 min 0,000 mm 0,0 UV-I 0 W/m² -2,2 °C -2,3 °C 6,4 km/h (2 Bft)
21.12.2018 03:22 -0,6 °C 89 % 1021,1 hPa 0,0 mm 2,3 km/h (1 Bft) S 175 ° 0 min 0,000 mm 0,0 UV-I 0 W/m² -2,2 °C -0,6 °C 4,8 km/h (1 Bft)
21.12.2018 03:23 -0,5 °C 89 % 1021,0 hPa 0,0 mm 1,1 km/h (1 Bft) S 175 ° 0 min 0,000 mm 0,0 UV-I 0 W/m² -2,1 °C -0,5 °C 3,2 km/h (1 Bft)
21.12.2018 03:24 -0,5 °C 89 % 1021,0 hPa 0,0 mm 0,3 km/h (0 Bft) S 175 ° 0 min 0,000 mm 0,0 UV-I 0 W/m² -2,1 °C -0,5 °C 1,6 km/h (1 Bft)
21.12.2018 03:25 -0,4 °C 89 % 1021,0 hPa 0,0 mm 1,3 km/h (1 Bft) S 175 ° 0 min 0,000 mm 0,0 UV-I 0 W/m² -2,0 °C -0,4 °C 3,2 km/h (1 Bft)
21.12.2018 03:26 -0,4 °C 89 % 1021,0 hPa 0,0 mm 2,2 km/h (1 Bft) S 175 ° 0 min 0,000 mm 0,0 UV-I 0 W/m² -2,0 °C -0,4 °C 3,2 km/h (1 Bft)
21.12.2018 03:27 -0,4 °C 89 % 1020,9 hPa 0,0 mm 1,7 km/h (1 Bft) S 175 ° 0 min 0,000 mm 0,0 UV-I 0 W/m² -2,0 °C -0,4 °C 3,2 km/h (1 Bft)
21.12.2018 03:28 -0,3 °C 89 % 1020,9 hPa 0,0 mm 2,1 km/h (1 Bft) S 175 ° 0 min 0,000 mm 0,0 UV-I 0 W/m² -1,9 °C -0,3 °C 3,2 km/h (1 Bft)
21.12.2018 03:29 -0,3 °C 89 % 1020,9 hPa 0,0 mm 0,8 km/h (0 Bft) S 175 ° 0 min 0,000 mm 0,0 UV-I 0 W/m² -1,9 °C -0,3 °C 1,6 km/h (1 Bft)
21.12.2018 03:30 -0,3 °C 89 % 1020,9 hPa 0,0 mm 0,0 km/h (0 Bft) S 175 ° 0 min 0,000 mm 0,0 UV-I 0 W/m² -1,9 °C -0,3 °C 0,0 km/h (0 Bft)
21.12.2018 03:31 -0,2 °C 89 % 1020,9 hPa 0,0 mm 1,2 km/h (1 Bft) SW 233 ° 0 min 0,000 mm 0,0 UV-I 0 W/m² -1,8 °C -0,2 °C 3,2 km/h (1 Bft)
21.12.2018 03:32 -0,2 °C 88 % 1020,9 hPa 0,0 mm 2,8 km/h (1 Bft) SW 221 ° 0 min 0,000 mm 0,0 UV-I 0 W/m² -1,9 °C -0,2 °C 4,8 km/h (1 Bft)
21.12.2018 03:33 -0,2 °C 88 % 1020,9 hPa 0,0 mm 1,1 km/h (1 Bft) SW 221 ° 0 min 0,000 mm 0,0 UV-I 0 W/m² -1,9 °C -0,2 °C 3,2 km/h (1 Bft)
21.12.2018 03:34 -0,2 °C 88 % 1020,8 hPa 0,0 mm 0,4 km/h (0 Bft) SW 221 ° 0 min 0,000 mm 0,0 UV-I 0 W/m² -1,9 °C -0,2 °C 3,2 km/h (1 Bft)
21.12.2018 03:35 -0,1 °C 88 % 1020,9 hPa 0,0 mm 0,0 km/h (0 Bft) SW 221 ° 0 min 0,000 mm 0,0 UV-I 0 W/m² -1,8 °C -0,1 °C 0,0 km/h (0 Bft)
21.12.2018 03:36 -0,1 °C 88 % 1020,9 hPa 0,0 mm 0,0 km/h (0 Bft) SW 221 ° 0 min 0,000 mm 0,0 UV-I 0 W/m² -1,8 °C -0,1 °C 0,0 km/h (0 Bft)
21.12.2018 03:37 -0,1 °C 88 % 1020,8 hPa 0,0 mm 0,0 km/h (0 Bft) SW 221 ° 0 min 0,000 mm 0,0 UV-I 0 W/m² -1,8 °C -0,1 °C 0,0 km/h (0 Bft)
21.12.2018 03:38 -0,1 °C 88 % 1020,8 hPa 0,0 mm 0,6 km/h (0 Bft) SW 221 ° 0 min 0,000 mm 0,0 UV-I 0 W/m² -1,8 °C -0,1 °C 1,6 km/h (1 Bft)
21.12.2018 03:39 -0,1 °C 88 % 1020,8 hPa 0,0 mm 0,3 km/h (0 Bft) SW 221 ° 0 min 0,000 mm 0,0 UV-I 0 W/m² -1,8 °C -0,1 °C 1,6 km/h (1 Bft)
21.12.2018 03:40 0,0 °C 88 % 1020,8 hPa 0,0 mm 0,5 km/h (0 Bft) SW 221 ° 0 min 0,000 mm 0,0 UV-I 0 W/m² -1,7 °C 0,0 °C 3,2 km/h (1 Bft)
21.12.2018 03:41 0,0 °C 88 % 1020,8 hPa 0,0 mm 0,0 km/h (0 Bft) SW 221 ° 0 min 0,000 mm 0,0 UV-I 0 W/m² -1,7 °C 0,0 °C 0,0 km/h (0 Bft)
21.12.2018 03:42 0,0 °C 88 % 1020,8 hPa 0,0 mm 0,0 km/h (0 Bft) SW 221 ° 0 min 0,000 mm 0,0 UV-I 0 W/m² -1,7 °C 0,0 °C 0,0 km/h (0 Bft)
21.12.2018 03:43 0,1 °C 88 % 1020,8 hPa 0,0 mm 0,1 km/h (0 Bft) SW 221 ° 0 min 0,000 mm 0,0 UV-I 0 W/m² -1,6 °C 0,1 °C 1,6 km/h (1 Bft)
21.12.2018 03:44 0,1 °C 88 % 1020,8 hPa 0,0 mm 0,5 km/h (0 Bft) SW 221 ° 0 min 0,000 mm 0,0 UV-I 0 W/m² -1,6 °C 0,1 °C 1,6 km/h (1 Bft)
21.12.2018 03:45 0,1 °C 88 % 1020,7 hPa 0,0 mm 0,0 km/h (0 Bft) SW 221 ° 0 min 0,000 mm 0,0 UV-I 0 W/m² -1,6 °C 0,1 °C 0,0 km/h (0 Bft)
21.12.2018 03:46 0,1 °C 88 % 1020,7 hPa 0,0 mm 0,7 km/h (0 Bft) SW 221 ° 0 min 0,000 mm 0,0 UV-I 0 W/m² -1,6 °C 0,1 °C 1,6 km/h (1 Bft)
21.12.2018 03:47 0,1 °C 87 % 1020,7 hPa 0,0 mm 3,6 km/h (1 Bft) S 181 ° 0 min 0,000 mm 0,0 UV-I 0 W/m² -1,8 °C 0,1 °C 6,4 km/h (2 Bft)
21.12.2018 03:48 0,1 °C 87 % 1020,7 hPa 0,0 mm 0,9 km/h (0 Bft) S 181 ° 0 min 0,000 mm 0,0 UV-I 0 W/m² -1,8 °C 0,1 °C 3,2 km/h (1 Bft)
21.12.2018 03:49 0,1 °C 87 % 1020,7 hPa 0,0 mm 1,2 km/h (1 Bft) S 181 ° 0 min 0,000 mm 0,0 UV-I 0 W/m² -1,8 °C 0,1 °C 3,2 km/h (1 Bft)
21.12.2018 03:50 0,2 °C 87 % 1020,6 hPa 0,0 mm 0,0 km/h (0 Bft) S 181 ° 0 min 0,000 mm 0,0 UV-I 0 W/m² -1,7 °C 0,2 °C 0,0 km/h (0 Bft)
21.12.2018 03:51 0,2 °C 87 % 1020,6 hPa 0,0 mm 0,0 km/h (0 Bft) S 181 ° 0 min 0,000 mm 0,0 UV-I 0 W/m² -1,7 °C 0,2 °C 0,0 km/h (0 Bft)
21.12.2018 03:52 0,2 °C 87 % 1020,6 hPa 0,0 mm 0,0 km/h (0 Bft) S 181 ° 0 min 0,000 mm 0,0 UV-I 0 W/m² -1,7 °C 0,2 °C 0,0 km/h (0 Bft)
21.12.2018 03:53 0,3 °C 87 % 1020,6 hPa 0,0 mm 0,0 km/h (0 Bft) S 181 ° 0 min 0,000 mm 0,0 UV-I 0 W/m² -1,6 °C 0,3 °C 0,0 km/h (0 Bft)
21.12.2018 03:54 0,3 °C 86 % 1020,5 hPa 0,0 mm 0,0 km/h (0 Bft) S 181 ° 0 min 0,000 mm 0,0 UV-I 0 W/m² -1,8 °C 0,3 °C 0,0 km/h (0 Bft)
21.12.2018 03:55 0,3 °C 86 % 1020,6 hPa 0,0 mm 0,0 km/h (0 Bft) S 181 ° 0 min 0,000 mm 0,0 UV-I 0 W/m² -1,8 °C 0,3 °C 0,0 km/h (0 Bft)
21.12.2018 03:56 0,3 °C 86 % 1020,6 hPa 0,0 mm 0,0 km/h (0 Bft) S 181 ° 0 min 0,000 mm 0,0 UV-I 0 W/m² -1,8 °C 0,3 °C 0,0 km/h (0 Bft)
21.12.2018 03:57 0,3 °C 86 % 1020,7 hPa 0,0 mm 0,0 km/h (0 Bft) S 181 ° 0 min 0,000 mm 0,0 UV-I 0 W/m² -1,8 °C 0,3 °C 0,0 km/h (0 Bft)
21.12.2018 03:58 0,3 °C 86 % 1020,6 hPa 0,0 mm 0,0 km/h (0 Bft) S 181 ° 0 min 0,000 mm 0,0 UV-I 0 W/m² -1,8 °C 0,3 °C 0,0 km/h (0 Bft)
21.12.2018 03:59 0,3 °C 86 % 1020,7 hPa 0,0 mm 0,0 km/h (0 Bft) S 181 ° 0 min 0,000 mm 0,0 UV-I 0 W/m² -1,8 °C 0,3 °C 0,0 km/h (0 Bft)
21.12.2018 04:00 0,3 °C 86 % 1020,8 hPa 0,0 mm 0,0 km/h (0 Bft) S 181 ° 0 min 0,000 mm 0,0 UV-I 0 W/m² -1,8 °C 0,3 °C 0,0 km/h (0 Bft)
21.12.2018 04:01 0,3 °C 86 % 1020,8 hPa 0,0 mm 0,0 km/h (0 Bft) S 181 ° 0 min 0,000 mm 0,0 UV-I 0 W/m² -1,8 °C 0,3 °C 0,0 km/h (0 Bft)
21.12.2018 04:02 0,3 °C 86 % 1020,8 hPa 0,0 mm 0,0 km/h (0 Bft) S 181 ° 0 min 0,000 mm 0,0 UV-I 0 W/m² -1,8 °C 0,3 °C 0,0 km/h (0 Bft)
21.12.2018 04:03 0,3 °C 86 % 1020,8 hPa 0,0 mm 0,0 km/h (0 Bft) S 181 ° 0 min 0,000 mm 0,0 UV-I 0 W/m² -1,8 °C 0,3 °C 0,0 km/h (0 Bft)
21.12.2018 04:04 0,3 °C 86 % 1020,7 hPa 0,0 mm 0,0 km/h (0 Bft) S 181 ° 0 min 0,000 mm 0,0 UV-I 0 W/m² -1,8 °C 0,3 °C 0,0 km/h (0 Bft)
21.12.2018 04:05 0,3 °C 86 % 1020,8 hPa 0,0 mm 0,0 km/h (0 Bft) S 181 ° 0 min 0,000 mm 0,0 UV-I 0 W/m² -1,8 °C 0,3 °C 0,0 km/h (0 Bft)
21.12.2018 04:06 0,3 °C 86 % 1020,8 hPa 0,0 mm 0,0 km/h (0 Bft) S 182 ° 0 min 0,000 mm 0,0 UV-I 0 W/m² -1,8 °C 0,3 °C 0,0 km/h (0 Bft)
21.12.2018 04:07 0,3 °C 86 % 1020,8 hPa 0,0 mm 0,0 km/h (0 Bft) S 182 ° 0 min 0,000 mm 0,0 UV-I 0 W/m² -1,8 °C 0,3 °C 0,0 km/h (0 Bft)
21.12.2018 04:08 0,3 °C 86 % 1020,8 hPa 0,0 mm 0,0 km/h (0 Bft) S 182 ° 0 min 0,000 mm 0,0 UV-I 0 W/m² -1,8 °C 0,3 °C 0,0 km/h (0 Bft)
21.12.2018 04:09 0,3 °C 86 % 1020,8 hPa 0,0 mm 1,1 km/h (1 Bft) W 280 ° 0 min 0,000 mm 0,0 UV-I 0 W/m² -1,8 °C 0,3 °C 4,8 km/h (1 Bft)
21.12.2018 04:10 0,3 °C 86 % 1020,8 hPa 0,0 mm 4,1 km/h (1 Bft) W 259 ° 0 min 0,000 mm 0,0 UV-I 0 W/m² -1,8 °C 0,3 °C 6,4 km/h (2 Bft)
21.12.2018 04:11 0,3 °C 85 % 1020,9 hPa 0,0 mm 4,1 km/h (1 Bft) W-SW 253 ° 0 min 0,000 mm 0,0 UV-I 0 W/m² -1,9 °C 0,3 °C 6,4 km/h (2 Bft)
21.12.2018 04:12 0,3 °C 85 % 1020,8 hPa 0,0 mm 0,0 km/h (0 Bft) W-SW 253 ° 0 min 0,000 mm 0,0 UV-I 0 W/m² -1,9 °C 0,3 °C 0,0 km/h (0 Bft)
21.12.2018 04:13 0,3 °C 85 % 1020,8 hPa 0,0 mm 0,1 km/h (0 Bft) W-SW 253 ° 0 min 0,000 mm 0,0 UV-I 0 W/m² -1,9 °C 0,3 °C 1,6 km/h (1 Bft)
21.12.2018 04:14 0,3 °C 85 % 1020,8 hPa 0,0 mm 1,4 km/h (1 Bft) W 259 ° 0 min 0,000 mm 0,0 UV-I 0 W/m² -1,9 °C 0,3 °C 3,2 km/h (1 Bft)
21.12.2018 04:15 0,3 °C 85 % 1020,8 hPa 0,0 mm 0,0 km/h (0 Bft) W 259 ° 0 min 0,000 mm 0,0 UV-I 0 W/m² -1,9 °C 0,3 °C 0,0 km/h (0 Bft)
21.12.2018 04:16 0,3 °C 85 % 1020,8 hPa 0,0 mm 0,1 km/h (0 Bft) W 259 ° 0 min 0,000 mm 0,0 UV-I 0 W/m² -1,9 °C 0,3 °C 1,6 km/h (1 Bft)
21.12.2018 04:17 0,3 °C 85 % 1020,9 hPa 0,0 mm 3,3 km/h (1 Bft) W-NW 297 ° 0 min 0,000 mm 0,0 UV-I 0 W/m² -1,9 °C 0,3 °C 4,8 km/h (1 Bft)
21.12.2018 04:18 0,3 °C 85 % 1020,9 hPa 0,0 mm 0,5 km/h (0 Bft) W-NW 297 ° 0 min 0,000 mm 0,0 UV-I 0 W/m² -1,9 °C 0,3 °C 3,2 km/h (1 Bft)
21.12.2018 04:19 0,3 °C 85 % 1020,9 hPa 0,0 mm 0,1 km/h (0 Bft) W-NW 297 ° 0 min 0,000 mm 0,0 UV-I 0 W/m² -1,9 °C 0,3 °C 1,6 km/h (1 Bft)
21.12.2018 04:20 0,2 °C 85 % 1020,8 hPa 0,0 mm 0,9 km/h (0 Bft) W-NW 297 ° 0 min 0,000 mm 0,0 UV-I 0 W/m² -2,0 °C 0,2 °C 1,6 km/h (1 Bft)
21.12.2018 04:21 0,2 °C 85 % 1020,8 hPa 0,0 mm 0,0 km/h (0 Bft) W-NW 297 ° 0 min 0,000 mm 0,0 UV-I 0 W/m² -2,0 °C 0,2 °C 0,0 km/h (0 Bft)
21.12.2018 04:22 0,2 °C 85 % 1020,9 hPa 0,0 mm 0,0 km/h (0 Bft) W-NW 297 ° 0 min 0,000 mm 0,0 UV-I 0 W/m² -2,0 °C 0,2 °C 0,0 km/h (0 Bft)
21.12.2018 04:23 0,2 °C 85 % 1020,9 hPa 0,0 mm 0,0 km/h (0 Bft) W-NW 297 ° 0 min 0,000 mm 0,0 UV-I 0 W/m² -2,0 °C 0,2 °C 0,0 km/h (0 Bft)
21.12.2018 04:24 0,2 °C 85 % 1020,9 hPa 0,0 mm 0,6 km/h (0 Bft) W-NW 297 ° 0 min 0,000 mm 0,0 UV-I 0 W/m² -2,0 °C 0,2 °C 1,6 km/h (1 Bft)
21.12.2018 04:25 0,2 °C 85 % 1020,8 hPa 0,0 mm 1,4 km/h (1 Bft) W-NW 297 ° 0 min 0,000 mm 0,0 UV-I 0 W/m² -2,0 °C 0,2 °C 3,2 km/h (1 Bft)
21.12.2018 04:26 0,1 °C 85 % 1020,7 hPa 0,0 mm 2,3 km/h (1 Bft) W-NW 297 ° 0 min 0,000 mm 0,0 UV-I 0 W/m² -2,1 °C 0,1 °C 3,2 km/h (1 Bft)
21.12.2018 04:27 0,1 °C 85 % 1020,7 hPa 0,0 mm 3,7 km/h (1 Bft) W-NW 297 ° 0 min 0,000 mm 0,0 UV-I 0 W/m² -2,1 °C 0,1 °C 4,8 km/h (1 Bft)
21.12.2018 04:28 0,1 °C 85 % 1020,7 hPa 0,0 mm 2,3 km/h (1 Bft) W-NW 296 ° 0 min 0,000 mm 0,0 UV-I 0 W/m² -2,1 °C 0,1 °C 3,2 km/h (1 Bft)
21.12.2018 04:29 0,1 °C 85 % 1020,8 hPa 0,0 mm 0,0 km/h (0 Bft) W-NW 296 ° 0 min 0,000 mm 0,0 UV-I 0 W/m² -2,1 °C 0,1 °C 0,0 km/h (0 Bft)
21.12.2018 04:30 0,1 °C 86 % 1020,8 hPa 0,0 mm 0,2 km/h (0 Bft) W-NW 296 ° 0 min 0,000 mm 0,0 UV-I 0 W/m² -2,0 °C 0,1 °C 1,6 km/h (1 Bft)
21.12.2018 04:31 0,1 °C 86 % 1020,8 hPa 0,0 mm 2,6 km/h (1 Bft) W-NW 296 ° 0 min 0,000 mm 0,0 UV-I 0 W/m² -2,0 °C 0,1 °C 3,2 km/h (1 Bft)
21.12.2018 04:32 0,1 °C 86 % 1020,8 hPa 0,0 mm 0,8 km/h (0 Bft) W-NW 296 ° 0 min 0,000 mm 0,0 UV-I 0 W/m² -2,0 °C 0,1 °C 3,2 km/h (1 Bft)
21.12.2018 04:33 0,1 °C 86 % 1020,8 hPa 0,0 mm 0,2 km/h (0 Bft) W-NW 296 ° 0 min 0,000 mm 0,0 UV-I 0 W/m² -2,0 °C 0,1 °C 1,6 km/h (1 Bft)
21.12.2018 04:34 0,0 °C 86 % 1020,8 hPa 0,0 mm 0,0 km/h (0 Bft) W-NW 296 ° 0 min 0,000 mm 0,0 UV-I 0 W/m² -2,1 °C 0,0 °C 0,0 km/h (0 Bft)
21.12.2018 04:35 -0,1 °C 86 % 1020,7 hPa 0,0 mm 0,0 km/h (0 Bft) W-NW 296 ° 0 min 0,000 mm 0,0 UV-I 0 W/m² -2,2 °C -0,1 °C 0,0 km/h (0 Bft)
21.12.2018 04:36 -0,1 °C 85 % 1020,7 hPa 0,0 mm 0,0 km/h (0 Bft) W-NW 296 ° 0 min 0,000 mm 0,0 UV-I 0 W/m² -2,3 °C -0,1 °C 0,0 km/h (0 Bft)
21.12.2018 04:37 -0,1 °C 85 % 1020,7 hPa 0,0 mm 0,0 km/h (0 Bft) W-NW 296 ° 0 min 0,000 mm 0,0 UV-I 0 W/m² -2,3 °C -0,1 °C 0,0 km/h (0 Bft)
21.12.2018 04:38 -0,1 °C 85 % 1020,8 hPa 0,0 mm 0,0 km/h (0 Bft) W-NW 296 ° 0 min 0,000 mm 0,0 UV-I 0 W/m² -2,3 °C -0,1 °C 0,0 km/h (0 Bft)
21.12.2018 04:39 -0,1 °C 86 % 1020,7 hPa 0,0 mm 1,9 km/h (1 Bft) S 187 ° 0 min 0,000 mm 0,0 UV-I 0 W/m² -2,2 °C -0,1 °C 3,2 km/h (1 Bft)
21.12.2018 04:40 -0,1 °C 86 % 1020,7 hPa 0,0 mm 1,8 km/h (1 Bft) S 187 ° 0 min 0,000 mm 0,0 UV-I 0 W/m² -2,2 °C -0,1 °C 3,2 km/h (1 Bft)
21.12.2018 04:41 -0,1 °C 86 % 1020,8 hPa 0,0 mm 2,6 km/h (1 Bft) S 188 ° 0 min 0,000 mm 0,0 UV-I 0 W/m² -2,2 °C -0,1 °C 3,2 km/h (1 Bft)
21.12.2018 04:42 -0,2 °C 86 % 1020,8 hPa 0,0 mm 0,0 km/h (0 Bft) S 187 ° 0 min 0,000 mm 0,0 UV-I 0 W/m² -2,3 °C -0,2 °C 0,0 km/h (0 Bft)
21.12.2018 04:43 -0,2 °C 86 % 1020,7 hPa 0,0 mm 1,8 km/h (1 Bft) S 187 ° 0 min 0,000 mm 0,0 UV-I 0 W/m² -2,3 °C -0,2 °C 4,8 km/h (1 Bft)
21.12.2018 04:44 -0,2 °C 86 % 1020,6 hPa 0,0 mm 2,8 km/h (1 Bft) S 187 ° 0 min 0,000 mm 0,0 UV-I 0 W/m² -2,3 °C -0,2 °C 3,2 km/h (1 Bft)
21.12.2018 04:45 -0,2 °C 86 % 1020,6 hPa 0,0 mm 2,5 km/h (1 Bft) S 187 ° 0 min 0,000 mm 0,0 UV-I 0 W/m² -2,3 °C -0,2 °C 3,2 km/h (1 Bft)
21.12.2018 04:46 -0,2 °C 86 % 1020,6 hPa 0,0 mm 0,5 km/h (0 Bft) W-NW 300 ° 0 min 0,000 mm 0,0 UV-I 0 W/m² -2,3 °C -0,2 °C 3,2 km/h (1 Bft)
21.12.2018 04:47 -0,2 °C 86 % 1020,7 hPa 0,0 mm 3,8 km/h (1 Bft) W-NW 300 ° 0 min 0,000 mm 0,0 UV-I 0 W/m² -2,3 °C -0,2 °C 4,8 km/h (1 Bft)
21.12.2018 04:48 -0,2 °C 86 % 1020,7 hPa 0,0 mm 1,3 km/h (1 Bft) W-NW 300 ° 0 min 0,000 mm 0,0 UV-I 0 W/m² -2,3 °C -0,2 °C 4,8 km/h (1 Bft)
21.12.2018 04:49 -0,2 °C 86 % 1020,6 hPa 0,0 mm 1,2 km/h (1 Bft) W-NW 300 ° 0 min 0,000 mm 0,0 UV-I 0 W/m² -2,3 °C -0,2 °C 3,2 km/h (1 Bft)
21.12.2018 04:50 -0,2 °C 86 % 1020,6 hPa 0,0 mm 1,7 km/h (1 Bft) W-NW 299 ° 0 min 0,000 mm 0,0 UV-I 0 W/m² -2,3 °C -0,2 °C 3,2 km/h (1 Bft)
21.12.2018 04:51 -0,3 °C 86 % 1020,6 hPa 0,0 mm 0,3 km/h (0 Bft) W-NW 299 ° 0 min 0,000 mm 0,0 UV-I 0 W/m² -2,3 °C -0,3 °C 1,6 km/h (1 Bft)
21.12.2018 04:52 -0,3 °C 86 % 1020,6 hPa 0,0 mm 0,1 km/h (0 Bft) W-NW 299 ° 0 min 0,000 mm 0,0 UV-I 0 W/m² -2,3 °C -0,3 °C 1,6 km/h (1 Bft)
21.12.2018 04:53 -0,3 °C 86 % 1020,4 hPa 0,0 mm 0,0 km/h (0 Bft) W-NW 299 ° 0 min 0,000 mm 0,0 UV-I 0 W/m² -2,3 °C -0,3 °C 0,0 km/h (0 Bft)
21.12.2018 04:54 -0,3 °C 86 % 1020,4 hPa 0,0 mm 0,0 km/h (0 Bft) W-NW 299 ° 0 min 0,000 mm 0,0 UV-I 0 W/m² -2,3 °C -0,3 °C 0,0 km/h (0 Bft)
21.12.2018 04:55 -0,3 °C 86 % 1020,4 hPa 0,0 mm 0,0 km/h (0 Bft) W-NW 299 ° 0 min 0,000 mm 0,0 UV-I 0 W/m² -2,3 °C -0,3 °C 0,0 km/h (0 Bft)
21.12.2018 04:56 -0,3 °C 86 % 1020,4 hPa 0,0 mm 0,0 km/h (0 Bft) W-NW 299 ° 0 min 0,000 mm 0,0 UV-I 0 W/m² -2,3 °C -0,3 °C 0,0 km/h (0 Bft)
21.12.2018 04:57 -0,3 °C 86 % 1020,5 hPa 0,0 mm 3,1 km/h (1 Bft) W-NW 299 ° 0 min 0,000 mm 0,0 UV-I 0 W/m² -2,3 °C -0,3 °C 6,4 km/h (2 Bft)
21.12.2018 04:58 -0,3 °C 86 % 1020,5 hPa 0,0 mm 4,2 km/h (1 Bft) W-NW 299 ° 0 min 0,000 mm 0,0 UV-I 0 W/m² -2,3 °C -0,3 °C 6,4 km/h (2 Bft)
21.12.2018 04:59 -0,3 °C 86 % 1020,5 hPa 0,0 mm 1,1 km/h (1 Bft) N-NO 24 ° 0 min 0,000 mm 0,0 UV-I 0 W/m² -2,3 °C -0,3 °C 3,2 km/h (1 Bft)
21.12.2018 05:00 -0,4 °C 86 % 1020,4 hPa 0,0 mm 0,1 km/h (0 Bft) N-NO 24 ° 0 min 0,000 mm 0,0 UV-I 0 W/m² -2,4 °C -0,4 °C 1,6 km/h (1 Bft)
21.12.2018 05:01 -0,4 °C 86 % 1020,3 hPa 0,0 mm 0,0 km/h (0 Bft) N-NO 24 ° 0 min 0,000 mm 0,0 UV-I 0 W/m² -2,4 °C -0,4 °C 0,0 km/h (0 Bft)
21.12.2018 05:02 -0,4 °C 86 % 1020,3 hPa 0,0 mm 0,0 km/h (0 Bft) N-NO 24 ° 0 min 0,000 mm 0,0 UV-I 0 W/m² -2,4 °C -0,4 °C 0,0 km/h (0 Bft)
21.12.2018 05:03 -0,4 °C 86 % 1020,4 hPa 0,0 mm 0,0 km/h (0 Bft) N-NO 24 ° 0 min 0,000 mm 0,0 UV-I 0 W/m² -2,4 °C -0,4 °C 0,0 km/h (0 Bft)
21.12.2018 05:04 -0,5 °C 86 % 1020,3 hPa 0,0 mm 0,0 km/h (0 Bft) N-NO 24 ° 0 min 0,000 mm 0,0 UV-I 0 W/m² -2,5 °C -0,5 °C 0,0 km/h (0 Bft)
21.12.2018 05:05 -0,5 °C 86 % 1020,3 hPa 0,0 mm 0,0 km/h (0 Bft) N-NO 24 ° 0 min 0,000 mm 0,0 UV-I 0 W/m² -2,5 °C -0,5 °C 0,0 km/h (0 Bft)
21.12.2018 05:06 -0,5 °C 86 % 1020,3 hPa 0,0 mm 0,0 km/h (0 Bft) N-NO 24 ° 0 min 0,000 mm 0,0 UV-I 0 W/m² -2,5 °C -0,5 °C 0,0 km/h (0 Bft)
21.12.2018 05:07 -0,5 °C 86 % 1020,3 hPa 0,0 mm 0,0 km/h (0 Bft) N-NO 24 ° 0 min 0,000 mm 0,0 UV-I 0 W/m² -2,5 °C -0,5 °C 0,0 km/h (0 Bft)
21.12.2018 05:08 -0,5 °C 86 % 1020,4 hPa 0,0 mm 0,0 km/h (0 Bft) N-NO 24 ° 0 min 0,000 mm 0,0 UV-I 0 W/m² -2,5 °C -0,5 °C 0,0 km/h (0 Bft)
21.12.2018 05:09 -0,5 °C 86 % 1020,4 hPa 0,0 mm 0,0 km/h (0 Bft) N-NO 24 ° 0 min 0,000 mm 0,0 UV-I 0 W/m² -2,5 °C -0,5 °C 0,0 km/h (0 Bft)
21.12.2018 05:10 -0,6 °C 86 % 1020,3 hPa 0,0 mm 0,0 km/h (0 Bft) N-NO 24 ° 0 min 0,000 mm 0,0 UV-I 0 W/m² -2,6 °C -0,6 °C 0,0 km/h (0 Bft)
21.12.2018 05:11 -0,6 °C 86 % 1020,3 hPa 0,0 mm 0,0 km/h (0 Bft) N-NO 24 ° 0 min 0,000 mm 0,0 UV-I 0 W/m² -2,6 °C -0,6 °C 0,0 km/h (0 Bft)
21.12.2018 05:12 -0,6 °C 86 % 1020,3 hPa 0,0 mm 0,0 km/h (0 Bft) N-NO 24 ° 0 min 0,000 mm 0,0 UV-I 0 W/m² -2,6 °C -0,6 °C 0,0 km/h (0 Bft)
21.12.2018 05:13 -0,6 °C 86 % 1020,3 hPa 0,0 mm 0,0 km/h (0 Bft) N-NO 24 ° 0 min 0,000 mm 0,0 UV-I 0 W/m² -2,6 °C -0,6 °C 0,0 km/h (0 Bft)
21.12.2018 05:14 -0,6 °C 86 % 1020,3 hPa 0,0 mm 0,1 km/h (0 Bft) N-NO 24 ° 0 min 0,000 mm 0,0 UV-I 0 W/m² -2,6 °C -0,6 °C 1,6 km/h (1 Bft)
21.12.2018 05:15 -0,6 °C 87 % 1020,2 hPa 0,0 mm 0,0 km/h (0 Bft) N-NO 24 ° 0 min 0,000 mm 0,0 UV-I 0 W/m² -2,5 °C -0,6 °C 0,0 km/h (0 Bft)
21.12.2018 05:16 -0,6 °C 87 % 1020,1 hPa 0,0 mm 0,1 km/h (0 Bft) N-NO 24 ° 0 min 0,000 mm 0,0 UV-I 0 W/m² -2,5 °C -0,6 °C 1,6 km/h (1 Bft)
21.12.2018 05:17 -0,6 °C 87 % 1020,1 hPa 0,0 mm 0,0 km/h (0 Bft) N-NO 24 ° 0 min 0,000 mm 0,0 UV-I 0 W/m² -2,5 °C -0,6 °C 0,0 km/h (0 Bft)
21.12.2018 05:18 -0,7 °C 87 % 1020,1 hPa 0,0 mm 0,0 km/h (0 Bft) N-NO 24 ° 0 min 0,000 mm 0,0 UV-I 0 W/m² -2,6 °C -0,7 °C 0,0 km/h (0 Bft)
21.12.2018 05:19 -0,7 °C 87 % 1020,2 hPa 0,0 mm 0,0 km/h (0 Bft) N-NO 24 ° 0 min 0,000 mm 0,0 UV-I 0 W/m² -2,6 °C -0,7 °C 0,0 km/h (0 Bft)
21.12.2018 05:20 -0,7 °C 87 % 1020,1 hPa 0,0 mm 0,2 km/h (0 Bft) N-NO 24 ° 0 min 0,000 mm 0,0 UV-I 0 W/m² -2,6 °C -0,7 °C 1,6 km/h (1 Bft)
21.12.2018 05:21 -0,7 °C 87 % 1020,1 hPa 0,0 mm 1,7 km/h (1 Bft) N-NO 24 ° 0 min 0,000 mm 0,0 UV-I 0 W/m² -2,6 °C -0,7 °C 3,2 km/h (1 Bft)
21.12.2018 05:22 -0,7 °C 87 % 1020,1 hPa 0,0 mm 0,0 km/h (0 Bft) N-NO 24 ° 0 min 0,000 mm 0,0 UV-I 0 W/m² -2,6 °C -0,7 °C 0,0 km/h (0 Bft)
21.12.2018 05:23 -0,7 °C 87 % 1020,1 hPa 0,0 mm 0,1 km/h (0 Bft) N-NO 24 ° 0 min 0,000 mm 0,0 UV-I 0 W/m² -2,6 °C -0,7 °C 1,6 km/h (1 Bft)
21.12.2018 05:24 -0,7 °C 87 % 1020,1 hPa 0,0 mm 0,0 km/h (0 Bft) N-NO 24 ° 0 min 0,000 mm 0,0 UV-I 0 W/m² -2,6 °C -0,7 °C 0,0 km/h (0 Bft)
21.12.2018 05:25 -0,7 °C 87 % 1020,0 hPa 0,0 mm 0,0 km/h (0 Bft) N-NO 24 ° 0 min 0,000 mm 0,0 UV-I 0 W/m² -2,6 °C -0,7 °C 0,0 km/h (0 Bft)
21.12.2018 05:26 -0,7 °C 87 % 1020,0 hPa 0,0 mm 0,0 km/h (0 Bft) N-NO 24 ° 0 min 0,000 mm 0,0 UV-I 0 W/m² -2,6 °C -0,7 °C 0,0 km/h (0 Bft)
21.12.2018 05:27 -0,7 °C 87 % 1020,0 hPa 0,0 mm 0,0 km/h (0 Bft) N-NO 24 ° 0 min 0,000 mm 0,0 UV-I 0 W/m² -2,6 °C -0,7 °C 0,0 km/h (0 Bft)
21.12.2018 05:28 -0,7 °C 87 % 1019,9 hPa 0,0 mm 0,0 km/h (0 Bft) N-NO 24 ° 0 min 0,000 mm 0,0 UV-I 0 W/m² -2,6 °C -0,7 °C 0,0 km/h (0 Bft)
21.12.2018 05:29 -0,7 °C 87 % 1019,9 hPa 0,0 mm 0,0 km/h (0 Bft) N-NO 24 ° 0 min 0,000 mm 0,0 UV-I 0 W/m² -2,6 °C -0,7 °C 0,0 km/h (0 Bft)
21.12.2018 05:30 -0,8 °C 88 % 1019,9 hPa 0,0 mm 0,0 km/h (0 Bft) N-NO 24 ° 0 min 0,000 mm 0,0 UV-I 0 W/m² -2,5 °C -0,8 °C 0,0 km/h (0 Bft)
21.12.2018 05:31 -0,7 °C 87 % 1019,7 hPa 0,0 mm 0,0 km/h (0 Bft) N-NO 24 ° 0 min 0,000 mm 0,0 UV-I 0 W/m² -2,6 °C -0,7 °C 0,0 km/h (0 Bft)
21.12.2018 05:32 -0,8 °C 87 % 1019,7 hPa 0,0 mm 0,7 km/h (0 Bft) O-SO 106 ° 0 min 0,000 mm 0,0 UV-I 0 W/m² -2,7 °C -0,8 °C 3,2 km/h (1 Bft)
21.12.2018 05:33 -0,8 °C 87 % 1019,8 hPa 0,0 mm 0,0 km/h (0 Bft) O-SO 106 ° 0 min 0,000 mm 0,0 UV-I 0 W/m² -2,7 °C -0,8 °C 0,0 km/h (0 Bft)
21.12.2018 05:34 -0,8 °C 87 % 1019,7 hPa 0,0 mm 0,0 km/h (0 Bft) O-SO 106 ° 0 min 0,000 mm 0,0 UV-I 0 W/m² -2,7 °C -0,8 °C 0,0 km/h (0 Bft)
21.12.2018 05:35 -0,8 °C 88 % 1019,7 hPa 0,0 mm 0,0 km/h (0 Bft) O-SO 106 ° 0 min 0,000 mm 0,0 UV-I 0 W/m² -2,5 °C -0,8 °C 0,0 km/h (0 Bft)
21.12.2018 05:36 -0,8 °C 88 % 1019,6 hPa 0,0 mm 0,0 km/h (0 Bft) O-SO 106 ° 0 min 0,000 mm 0,0 UV-I 0 W/m² -2,5 °C -0,8 °C 0,0 km/h (0 Bft)
21.12.2018 05:37 -0,8 °C 88 % 1019,7 hPa 0,0 mm 0,3 km/h (0 Bft) O-SO 106 ° 0 min 0,000 mm 0,0 UV-I 0 W/m² -2,5 °C -0,8 °C 3,2 km/h (1 Bft)
21.12.2018 05:38 -0,8 °C 88 % 1019,7 hPa 0,0 mm 0,6 km/h (0 Bft) O-SO 106 ° 0 min 0,000 mm 0,0 UV-I 0 W/m² -2,5 °C -0,8 °C 3,2 km/h (1 Bft)
21.12.2018 05:39 -0,8 °C 88 % 1019,7 hPa 0,0 mm 0,0 km/h (0 Bft) O-SO 106 ° 0 min 0,000 mm 0,0 UV-I 0 W/m² -2,5 °C -0,8 °C 0,0 km/h (0 Bft)
21.12.2018 05:40 -0,8 °C 88 % 1019,7 hPa 0,0 mm 0,0 km/h (0 Bft) O-SO 106 ° 0 min 0,000 mm 0,0 UV-I 0 W/m² -2,5 °C -0,8 °C 0,0 km/h (0 Bft)
21.12.2018 05:41 -0,8 °C 88 % 1019,6 hPa 0,0 mm 2,9 km/h (1 Bft) O-SO 106 ° 0 min 0,000 mm 0,0 UV-I 0 W/m² -2,5 °C -0,8 °C 4,8 km/h (1 Bft)
21.12.2018 05:42 -0,8 °C 88 % 1019,6 hPa 0,0 mm 1,5 km/h (1 Bft) O-SO 106 ° 0 min 0,000 mm 0,0 UV-I 0 W/m² -2,5 °C -0,8 °C 3,2 km/h (1 Bft)
21.12.2018 05:43 -0,8 °C 88 % 1019,6 hPa 0,0 mm 0,0 km/h (0 Bft) O-SO 106 ° 0 min 0,000 mm 0,0 UV-I 0 W/m² -2,5 °C -0,8 °C 0,0 km/h (0 Bft)
21.12.2018 05:44 -0,8 °C 88 % 1019,6 hPa 0,0 mm 0,0 km/h (0 Bft) O-SO 106 ° 0 min 0,000 mm 0,0 UV-I 0 W/m² -2,5 °C -0,8 °C 0,0 km/h (0 Bft)
21.12.2018 05:45 -0,8 °C 88 % 1019,6 hPa 0,0 mm 0,0 km/h (0 Bft) O-SO 106 ° 0 min 0,000 mm 0,0 UV-I 0 W/m² -2,5 °C -0,8 °C 0,0 km/h (0 Bft)
21.12.2018 05:46 -0,8 °C 88 % 1019,5 hPa 0,0 mm 0,0 km/h (0 Bft) O-SO 106 ° 0 min 0,000 mm 0,0 UV-I 0 W/m² -2,5 °C -0,8 °C 0,0 km/h (0 Bft)
21.12.2018 05:47 -0,8 °C 88 % 1019,5 hPa 0,0 mm 0,0 km/h (0 Bft) O-SO 106 ° 0 min 0,000 mm 0,0 UV-I 0 W/m² -2,5 °C -0,8 °C 0,0 km/h (0 Bft)
21.12.2018 05:48 -0,8 °C 88 % 1019,5 hPa 0,0 mm 0,0 km/h (0 Bft) O-SO 106 ° 0 min 0,000 mm 0,0 UV-I 0 W/m² -2,5 °C -0,8 °C 0,0 km/h (0 Bft)
21.12.2018 05:49 -0,8 °C 88 % 1019,5 hPa 0,0 mm 0,8 km/h (0 Bft) O-SO 106 ° 0 min 0,000 mm 0,0 UV-I 0 W/m² -2,5 °C -0,8 °C 1,6 km/h (1 Bft)
21.12.2018 05:50 -0,8 °C 88 % 1019,5 hPa 0,0 mm 0,1 km/h (0 Bft) O-SO 106 ° 0 min 0,000 mm 0,0 UV-I 0 W/m² -2,5 °C -0,8 °C 1,6 km/h (1 Bft)
21.12.2018 05:51 -0,8 °C 88 % 1019,5 hPa 0,0 mm 0,0 km/h (0 Bft) O-SO 106 ° 0 min 0,000 mm 0,0 UV-I 0 W/m² -2,5 °C -0,8 °C 0,0 km/h (0 Bft)
21.12.2018 05:52 -0,8 °C 88 % 1019,5 hPa 0,0 mm 0,0 km/h (0 Bft) O-SO 106 ° 0 min 0,000 mm 0,0 UV-I 0 W/m² -2,5 °C -0,8 °C 0,0 km/h (0 Bft)
21.12.2018 05:53 -0,8 °C 88 % 1019,5 hPa 0,0 mm 0,0 km/h (0 Bft) O-SO 106 ° 0 min 0,000 mm 0,0 UV-I 0 W/m² -2,5 °C -0,8 °C 0,0 km/h (0 Bft)
21.12.2018 05:54 -0,8 °C 88 % 1019,5 hPa 0,0 mm 0,0 km/h (0 Bft) O-SO 106 ° 0 min 0,000 mm 0,0 UV-I 0 W/m² -2,5 °C -0,8 °C 0,0 km/h (0 Bft)
21.12.2018 05:55 -0,8 °C 88 % 1019,5 hPa 0,0 mm 0,0 km/h (0 Bft) O-SO 106 ° 0 min 0,000 mm 0,0 UV-I 0 W/m² -2,5 °C -0,8 °C 0,0 km/h (0 Bft)
21.12.2018 05:56 -0,8 °C 88 % 1019,5 hPa 0,0 mm 0,0 km/h (0 Bft) O-SO 106 ° 0 min 0,000 mm 0,0 UV-I 0 W/m² -2,5 °C -0,8 °C 0,0 km/h (0 Bft)
21.12.2018 05:57 -0,8 °C 88 % 1019,4 hPa 0,0 mm 0,0 km/h (0 Bft) O-SO 106 ° 0 min 0,000 mm 0,0 UV-I 0 W/m² -2,5 °C -0,8 °C 0,0 km/h (0 Bft)
21.12.2018 05:58 -0,8 °C 88 % 1019,4 hPa 0,0 mm 0,0 km/h (0 Bft) O-SO 106 ° 0 min 0,000 mm 0,0 UV-I 0 W/m² -2,5 °C -0,8 °C 0,0 km/h (0 Bft)
21.12.2018 05:59 -0,8 °C 88 % 1019,4 hPa 0,0 mm 0,0 km/h (0 Bft) O-SO 106 ° 0 min 0,000 mm 0,0 UV-I 0 W/m² -2,5 °C -0,8 °C 0,0 km/h (0 Bft)
21.12.2018 06:00 -0,8 °C 88 % 1019,4 hPa 0,0 mm 0,0 km/h (0 Bft) O-SO 106 ° 0 min 0,000 mm 0,0 UV-I 0 W/m² -2,5 °C -0,8 °C 0,0 km/h (0 Bft)
21.12.2018 06:01 -0,8 °C 88 % 1019,4 hPa 0,0 mm 0,0 km/h (0 Bft) O-SO 106 ° 0 min 0,000 mm 0,0 UV-I 0 W/m² -2,5 °C -0,8 °C 0,0 km/h (0 Bft)
21.12.2018 06:02 -0,8 °C 88 % 1019,3 hPa 0,0 mm 0,9 km/h (0 Bft) O-SO 106 ° 0 min 0,000 mm 0,0 UV-I 0 W/m² -2,5 °C -0,8 °C 3,2 km/h (1 Bft)
21.12.2018 06:03 -0,8 °C 88 % 1019,3 hPa 0,0 mm 5,4 km/h (1 Bft) O-SO 115 ° 0 min 0,000 mm 0,0 UV-I 0 W/m² -2,5 °C -2,7 °C 9,7 km/h (2 Bft)
21.12.2018 06:04 -0,8 °C 88 % 1019,2 hPa 0,0 mm 3,2 km/h (1 Bft) O-SO 119 ° 0 min 0,000 mm 0,0 UV-I 0 W/m² -2,5 °C -0,8 °C 6,4 km/h (2 Bft)
21.12.2018 06:05 -0,8 °C 88 % 1019,2 hPa 0,0 mm 1,0 km/h (0 Bft) O-SO 119 ° 0 min 0,000 mm 0,0 UV-I 0 W/m² -2,5 °C -0,8 °C 6,4 km/h (2 Bft)
21.12.2018 06:06 -0,8 °C 88 % 1019,2 hPa 0,0 mm 0,0 km/h (0 Bft) O-SO 119 ° 0 min 0,000 mm 0,0 UV-I 0 W/m² -2,5 °C -0,8 °C 0,0 km/h (0 Bft)
21.12.2018 06:07 -0,8 °C 88 % 1019,2 hPa 0,0 mm 0,0 km/h (0 Bft) O-SO 119 ° 0 min 0,000 mm 0,0 UV-I 0 W/m² -2,5 °C -0,8 °C 0,0 km/h (0 Bft)
21.12.2018 06:08 -0,8 °C 89 % 1019,2 hPa 0,0 mm 0,0 km/h (0 Bft) O-SO 119 ° 0 min 0,000 mm 0,0 UV-I 0 W/m² -2,4 °C -0,8 °C 0,0 km/h (0 Bft)
21.12.2018 06:09 -0,7 °C 88 % 1019,2 hPa 0,0 mm 0,0 km/h (0 Bft) O-SO 119 ° 0 min 0,000 mm 0,0 UV-I 0 W/m² -2,4 °C -0,7 °C 0,0 km/h (0 Bft)
21.12.2018 06:10 -0,8 °C 89 % 1019,3 hPa 0,0 mm 0,0 km/h (0 Bft) O-SO 119 ° 0 min 0,000 mm 0,0 UV-I 0 W/m² -2,4 °C -0,8 °C 0,0 km/h (0 Bft)
21.12.2018 06:11 -0,8 °C 89 % 1019,4 hPa 0,0 mm 3,4 km/h (1 Bft) N-NW 334 ° 0 min 0,000 mm 0,0 UV-I 0 W/m² -2,4 °C -0,8 °C 4,8 km/h (1 Bft)
21.12.2018 06:12 -0,7 °C 89 % 1019,3 hPa 0,0 mm 0,5 km/h (0 Bft) N-NW 333 ° 0 min 0,000 mm 0,0 UV-I 0 W/m² -2,3 °C -0,7 °C 1,6 km/h (1 Bft)
21.12.2018 06:13 -0,7 °C 88 % 1019,3 hPa 0,0 mm 0,6 km/h (0 Bft) N-NW 333 ° 0 min 0,000 mm 0,0 UV-I 0 W/m² -2,4 °C -0,7 °C 3,2 km/h (1 Bft)
21.12.2018 06:14 -0,7 °C 88 % 1019,4 hPa 0,0 mm 0,3 km/h (0 Bft) N-NW 333 ° 0 min 0,000 mm 0,0 UV-I 0 W/m² -2,4 °C -0,7 °C 1,6 km/h (1 Bft)
21.12.2018 06:15 -0,7 °C 88 % 1019,4 hPa 0,0 mm 0,0 km/h (0 Bft) N-NW 333 ° 0 min 0,000 mm 0,0 UV-I 0 W/m² -2,4 °C -0,7 °C 0,0 km/h (0 Bft)
21.12.2018 06:16 -0,7 °C 88 % 1019,4 hPa 0,0 mm 0,0 km/h (0 Bft) N-NW 333 ° 0 min 0,000 mm 0,0 UV-I 0 W/m² -2,4 °C -0,7 °C 0,0 km/h (0 Bft)
21.12.2018 06:17 -0,7 °C 88 % 1019,5 hPa 0,0 mm 0,4 km/h (0 Bft) N-NW 333 ° 0 min 0,000 mm 0,0 UV-I 0 W/m² -2,4 °C -0,7 °C 3,2 km/h (1 Bft)
21.12.2018 06:18 -0,7 °C 88 % 1019,6 hPa 0,0 mm 2,7 km/h (1 Bft) N-NW 333 ° 0 min 0,000 mm 0,0 UV-I 0 W/m² -2,4 °C -0,7 °C 4,8 km/h (1 Bft)
21.12.2018 06:19 -0,7 °C 88 % 1019,6 hPa 0,0 mm 3,7 km/h (1 Bft) N-NW 333 ° 0 min 0,000 mm 0,0 UV-I 0 W/m² -2,4 °C -0,7 °C 4,8 km/h (1 Bft)
21.12.2018 06:20 -0,7 °C 88 % 1019,6 hPa 0,0 mm 3,4 km/h (1 Bft) N-NW 333 ° 0 min 0,000 mm 0,0 UV-I 0 W/m² -2,4 °C -0,7 °C 4,8 km/h (1 Bft)
21.12.2018 06:21 -0,6 °C 88 % 1019,7 hPa 0,0 mm 1,8 km/h (1 Bft) N-NW 333 ° 0 min 0,000 mm 0,0 UV-I 0 W/m² -2,3 °C -0,6 °C 3,2 km/h (1 Bft)
21.12.2018 06:22 -0,6 °C 88 % 1019,7 hPa 0,0 mm 0,2 km/h (0 Bft) N-NW 333 ° 0 min 0,000 mm 0,0 UV-I 0 W/m² -2,3 °C -0,6 °C 1,6 km/h (1 Bft)
21.12.2018 06:23 -0,6 °C 88 % 1019,7 hPa 0,0 mm 3,1 km/h (1 Bft) O-SO 119 ° 0 min 0,000 mm 0,0 UV-I 0 W/m² -2,3 °C -0,6 °C 4,8 km/h (1 Bft)
21.12.2018 06:24 -0,6 °C 88 % 1019,7 hPa 0,0 mm 2,2 km/h (1 Bft) O-SO 119 ° 0 min 0,000 mm 0,0 UV-I 0 W/m² -2,3 °C -0,6 °C 3,2 km/h (1 Bft)
21.12.2018 06:25 -0,6 °C 88 % 1019,7 hPa 0,0 mm 1,6 km/h (1 Bft) O-SO 119 ° 0 min 0,000 mm 0,0 UV-I 0 W/m² -2,3 °C -0,6 °C 1,6 km/h (1 Bft)
21.12.2018 06:26 -0,6 °C 88 % 1019,7 hPa 0,0 mm 1,0 km/h (0 Bft) O-SO 119 ° 0 min 0,000 mm 0,0 UV-I 0 W/m² -2,3 °C -0,6 °C 3,2 km/h (1 Bft)
21.12.2018 06:27 -0,5 °C 88 % 1019,7 hPa 0,0 mm 0,2 km/h (0 Bft) O-SO 119 ° 0 min 0,000 mm 0,0 UV-I 0 W/m² -2,2 °C -0,5 °C 1,6 km/h (1 Bft)
21.12.2018 06:28 -0,5 °C 88 % 1019,7 hPa 0,0 mm 3,1 km/h (1 Bft) O-SO 119 ° 0 min 0,000 mm 0,0 UV-I 0 W/m² -2,2 °C -0,5 °C 3,2 km/h (1 Bft)
21.12.2018 06:29 -0,4 °C 88 % 1019,7 hPa 0,0 mm 2,6 km/h (1 Bft) O-SO 119 ° 0 min 0,000 mm 0,0 UV-I 0 W/m² -2,1 °C -0,4 °C 3,2 km/h (1 Bft)
21.12.2018 06:30 -0,4 °C 87 % 1019,7 hPa 0,0 mm 2,7 km/h (1 Bft) O-SO 119 ° 0 min 0,000 mm 0,0 UV-I 0 W/m² -2,3 °C -0,4 °C 3,2 km/h (1 Bft)
21.12.2018 06:31 -0,4 °C 87 % 1019,6 hPa 0,0 mm 3,9 km/h (1 Bft) O-SO 119 ° 0 min 0,000 mm 0,0 UV-I 0 W/m² -2,3 °C -0,4 °C 4,8 km/h (1 Bft)
21.12.2018 06:32 -0,3 °C 87 % 1019,5 hPa 0,0 mm 4,5 km/h (1 Bft) O-SO 119 ° 0 min 0,000 mm 0,0 UV-I 0 W/m² -2,2 °C -0,3 °C 6,4 km/h (2 Bft)
21.12.2018 06:33 -0,2 °C 86 % 1019,5 hPa 0,0 mm 4,2 km/h (1 Bft) SO 134 ° 0 min 0,000 mm 0,0 UV-I 0 W/m² -2,3 °C -0,2 °C 6,4 km/h (2 Bft)
21.12.2018 06:34 -0,2 °C 86 % 1019,5 hPa 0,0 mm 3,4 km/h (1 Bft) SO 134 ° 0 min 0,000 mm 0,0 UV-I 0 W/m² -2,3 °C -0,2 °C 4,8 km/h (1 Bft)
21.12.2018 06:35 -0,1 °C 86 % 1019,4 hPa 0,0 mm 2,7 km/h (1 Bft) SO 134 ° 0 min 0,000 mm 0,0 UV-I 0 W/m² -2,2 °C -0,1 °C 4,8 km/h (1 Bft)
21.12.2018 06:36 -0,1 °C 85 % 1019,4 hPa 0,0 mm 1,7 km/h (1 Bft) SO 134 ° 0 min 0,000 mm 0,0 UV-I 0 W/m² -2,3 °C -0,1 °C 3,2 km/h (1 Bft)
21.12.2018 06:37 0,1 °C 85 % 1019,3 hPa 0,0 mm 4,6 km/h (1 Bft) SO 134 ° 0 min 0,000 mm 0,0 UV-I 0 W/m² -2,1 °C -1,3 °C 4,8 km/h (1 Bft)
21.12.2018 06:38 0,1 °C 85 % 1019,3 hPa 0,0 mm 3,5 km/h (1 Bft) SO 134 ° 0 min 0,000 mm 0,0 UV-I 0 W/m² -2,1 °C 0,1 °C 4,8 km/h (1 Bft)
21.12.2018 06:39 0,2 °C 84 % 1019,3 hPa 0,0 mm 3,6 km/h (1 Bft) SO 134 ° 0 min 0,000 mm 0,0 UV-I 0 W/m² -2,2 °C 0,2 °C 4,8 km/h (1 Bft)
21.12.2018 06:40 0,2 °C 84 % 1019,3 hPa 0,0 mm 3,2 km/h (1 Bft) SO 134 ° 0 min 0,000 mm 0,0 UV-I 0 W/m² -2,2 °C 0,2 °C 4,8 km/h (1 Bft)
21.12.2018 06:41 0,3 °C 83 % 1019,2 hPa 0,0 mm 1,9 km/h (1 Bft) SO 134 ° 0 min 0,000 mm 0,0 UV-I 0 W/m² -2,2 °C 0,3 °C 3,2 km/h (1 Bft)
21.12.2018 06:42 0,4 °C 83 % 1019,2 hPa 0,0 mm 3,9 km/h (1 Bft) S 178 ° 0 min 0,000 mm 0,0 UV-I 0 W/m² -2,1 °C 0,4 °C 8,0 km/h (2 Bft)
21.12.2018 06:43 0,4 °C 82 % 1019,2 hPa 0,0 mm 2,5 km/h (1 Bft) S 178 ° 0 min 0,000 mm 0,0 UV-I 0 W/m² -2,3 °C 0,4 °C 3,2 km/h (1 Bft)
21.12.2018 06:44 0,5 °C 82 % 1019,2 hPa 0,0 mm 3,6 km/h (1 Bft) S 178 ° 0 min 0,000 mm 0,0 UV-I 0 W/m² -2,2 °C 0,5 °C 4,8 km/h (1 Bft)
21.12.2018 06:45 0,6 °C 82 % 1019,2 hPa 0,0 mm 1,3 km/h (1 Bft) S 178 ° 0 min 0,000 mm 0,0 UV-I 0 W/m² -2,1 °C 0,6 °C 3,2 km/h (1 Bft)
21.12.2018 06:46 0,6 °C 81 % 1019,2 hPa 0,0 mm 1,0 km/h (0 Bft) S 178 ° 0 min 0,000 mm 0,0 UV-I 0 W/m² -2,3 °C 0,6 °C 3,2 km/h (1 Bft)
21.12.2018 06:47 0,7 °C 81 % 1019,2 hPa 0,0 mm 1,1 km/h (1 Bft) S 178 ° 0 min 0,000 mm 0,0 UV-I 0 W/m² -2,2 °C 0,7 °C 3,2 km/h (1 Bft)
21.12.2018 06:48 0,7 °C 81 % 1019,2 hPa 0,0 mm 0,5 km/h (0 Bft) S 178 ° 0 min 0,000 mm 0,0 UV-I 0 W/m² -2,2 °C 0,7 °C 1,6 km/h (1 Bft)
21.12.2018 06:49 0,7 °C 81 % 1019,3 hPa 0,0 mm 0,0 km/h (0 Bft) S 178 ° 0 min 0,000 mm 0,0 UV-I 0 W/m² -2,2 °C 0,7 °C 0,0 km/h (0 Bft)
21.12.2018 06:50 0,8 °C 81 % 1019,3 hPa 0,0 mm 0,0 km/h (0 Bft) S 178 ° 0 min 0,000 mm 0,0 UV-I 0 W/m² -2,1 °C 0,8 °C 0,0 km/h (0 Bft)
21.12.2018 06:51 0,8 °C 81 % 1019,2 hPa 0,0 mm 0,0 km/h (0 Bft) S 178 ° 0 min 0,000 mm 0,0 UV-I 0 W/m² -2,1 °C 0,8 °C 0,0 km/h (0 Bft)
21.12.2018 06:52 0,8 °C 81 % 1019,2 hPa 0,0 mm 0,0 km/h (0 Bft) S 178 ° 0 min 0,000 mm 0,0 UV-I 0 W/m² -2,1 °C 0,8 °C 0,0 km/h (0 Bft)
21.12.2018 06:53 0,8 °C 81 % 1019,2 hPa 0,0 mm 0,0 km/h (0 Bft) S 178 ° 0 min 0,000 mm 0,0 UV-I 0 W/m² -2,1 °C 0,8 °C 0,0 km/h (0 Bft)
21.12.2018 06:54 0,8 °C 81 % 1019,2 hPa 0,0 mm 0,9 km/h (0 Bft) S 178 ° 0 min 0,000 mm 0,0 UV-I 0 W/m² -2,1 °C 0,8 °C 1,6 km/h (1 Bft)
21.12.2018 06:55 0,8 °C 80 % 1019,2 hPa 0,0 mm 0,1 km/h (0 Bft) S 178 ° 0 min 0,000 mm 0,0 UV-I 0 W/m² -2,2 °C 0,8 °C 1,6 km/h (1 Bft)
21.12.2018 06:56 0,8 °C 80 % 1019,2 hPa 0,0 mm 0,0 km/h (0 Bft) S 178 ° 0 min 0,000 mm 0,0 UV-I 0 W/m² -2,2 °C 0,8 °C 0,0 km/h (0 Bft)
21.12.2018 06:57 0,7 °C 80 % 1019,2 hPa 0,0 mm 1,0 km/h (0 Bft) S 178 ° 0 min 0,000 mm 0,0 UV-I 0 W/m² -2,3 °C 0,7 °C 1,6 km/h (1 Bft)
21.12.2018 06:58 0,7 °C 80 % 1019,2 hPa 0,0 mm 1,1 km/h (1 Bft) S 178 ° 0 min 0,000 mm 0,0 UV-I 0 W/m² -2,3 °C 0,7 °C 3,2 km/h (1 Bft)
21.12.2018 06:59 0,7 °C 80 % 1019,2 hPa 0,0 mm 2,3 km/h (1 Bft) S 178 ° 0 min 0,000 mm 0,0 UV-I 0 W/m² -2,3 °C 0,7 °C 3,2 km/h (1 Bft)
21.12.2018 07:00 0,7 °C 80 % 1019,2 hPa 0,0 mm 2,8 km/h (1 Bft) S 178 ° 0 min 0,000 mm 0,0 UV-I 0 W/m² -2,3 °C 0,7 °C 4,8 km/h (1 Bft)
21.12.2018 07:01 0,7 °C 80 % 1019,2 hPa 0,0 mm 2,6 km/h (1 Bft) S 178 ° 0 min 0,000 mm 0,0 UV-I 0 W/m² -2,3 °C 0,7 °C 3,2 km/h (1 Bft)
21.12.2018 07:02 0,7 °C 79 % 1019,2 hPa 0,0 mm 0,8 km/h (0 Bft) S 178 ° 0 min 0,000 mm 0,0 UV-I 0 W/m² -2,5 °C 0,7 °C 3,2 km/h (1 Bft)
21.12.2018 07:03 0,7 °C 79 % 1019,2 hPa 0,0 mm 3,6 km/h (1 Bft) S 178 ° 0 min 0,000 mm 0,0 UV-I 0 W/m² -2,5 °C 0,7 °C 4,8 km/h (1 Bft)
21.12.2018 07:04 0,7 °C 79 % 1019,3 hPa 0,0 mm 4,4 km/h (1 Bft) S 178 ° 0 min 0,000 mm 0,0 UV-I 0 W/m² -2,5 °C 0,7 °C 4,8 km/h (1 Bft)
21.12.2018 07:05 0,8 °C 79 % 1019,2 hPa 0,0 mm 4,0 km/h (1 Bft) S 178 ° 0 min 0,000 mm 0,0 UV-I 0 W/m² -2,4 °C 0,8 °C 4,8 km/h (1 Bft)
21.12.2018 07:06 0,8 °C 79 % 1019,1 hPa 0,0 mm 2,7 km/h (1 Bft) S 178 ° 0 min 0,000 mm 0,0 UV-I 0 W/m² -2,4 °C 0,8 °C 3,2 km/h (1 Bft)
21.12.2018 07:07 0,8 °C 79 % 1019,1 hPa 0,0 mm 3,6 km/h (1 Bft) S 178 ° 0 min 0,000 mm 0,0 UV-I 0 W/m² -2,4 °C 0,8 °C 4,8 km/h (1 Bft)
21.12.2018 07:08 0,9 °C 79 % 1019,0 hPa 0,0 mm 3,6 km/h (1 Bft) S 178 ° 0 min 0,000 mm 0,0 UV-I 0 W/m² -2,3 °C 0,9 °C 4,8 km/h (1 Bft)
21.12.2018 07:09 0,9 °C 79 % 1019,0 hPa 0,0 mm 4,6 km/h (1 Bft) S 178 ° 0 min 0,000 mm 0,0 UV-I 0 W/m² -2,3 °C -0,4 °C 6,4 km/h (2 Bft)
21.12.2018 07:10 1,0 °C 79 % 1018,9 hPa 0,0 mm 2,4 km/h (1 Bft) S 178 ° 0 min 0,000 mm 0,0 UV-I 0 W/m² -2,2 °C 1,0 °C 3,2 km/h (1 Bft)
21.12.2018 07:11 1,1 °C 79 % 1018,8 hPa 0,0 mm 2,6 km/h (1 Bft) S 178 ° 0 min 0,000 mm 0,0 UV-I 0 W/m² -2,1 °C 1,1 °C 3,2 km/h (1 Bft)
21.12.2018 07:12 1,1 °C 79 % 1018,8 hPa 0,0 mm 3,2 km/h (1 Bft) S 178 ° 0 min 0,000 mm 0,0 UV-I 0 W/m² -2,1 °C 1,1 °C 4,8 km/h (1 Bft)
21.12.2018 07:13 1,1 °C 78 % 1018,8 hPa 0,0 mm 2,2 km/h (1 Bft) S 178 ° 0 min 0,000 mm 0,0 UV-I 0 W/m² -2,3 °C 1,1 °C 3,2 km/h (1 Bft)
21.12.2018 07:14 1,1 °C 78 % 1018,7 hPa 0,0 mm 2,1 km/h (1 Bft) S 178 ° 0 min 0,000 mm 0,0 UV-I 0 W/m² -2,3 °C 1,1 °C 3,2 km/h (1 Bft)
21.12.2018 07:15 1,1 °C 78 % 1018,6 hPa 0,0 mm 2,9 km/h (1 Bft) S 178 ° 0 min 0,000 mm 0,0 UV-I 0 W/m² -2,3 °C 1,1 °C 4,8 km/h (1 Bft)
21.12.2018 07:16 1,2 °C 78 % 1018,6 hPa 0,0 mm 3,7 km/h (1 Bft) S-SW 207 ° 0 min 0,000 mm 0,0 UV-I 0 W/m² -2,2 °C 1,2 °C 4,8 km/h (1 Bft)
21.12.2018 07:17 1,1 °C 78 % 1018,6 hPa 0,0 mm 6,3 km/h (2 Bft) S-SW 207 ° 0 min 0,000 mm 0,0 UV-I 0 W/m² -2,3 °C -0,9 °C 8,0 km/h (2 Bft)
21.12.2018 07:18 1,1 °C 77 % 1018,7 hPa 0,0 mm 4,5 km/h (1 Bft) S-SW 198 ° 0 min 0,000 mm 0,0 UV-I 0 W/m² -2,5 °C 1,1 °C 4,8 km/h (1 Bft)
21.12.2018 07:19 1,0 °C 77 % 1018,7 hPa 0,0 mm 1,8 km/h (1 Bft) S-SW 198 ° 0 min 0,000 mm 0,0 UV-I 0 W/m² -2,6 °C 1,0 °C 3,2 km/h (1 Bft)
21.12.2018 07:20 1,0 °C 78 % 1018,8 hPa 0,0 mm 1,6 km/h (1 Bft) W-NW 293 ° 0 min 0,000 mm 0,0 UV-I 0 W/m² -2,4 °C 1,0 °C 3,2 km/h (1 Bft)
21.12.2018 07:21 0,9 °C 77 % 1018,8 hPa 0,0 mm 2,3 km/h (1 Bft) W-NW 293 ° 0 min 0,000 mm 0,0 UV-I 0 W/m² -2,7 °C 0,9 °C 3,2 km/h (1 Bft)
21.12.2018 07:22 0,9 °C 77 % 1018,8 hPa 0,0 mm 0,4 km/h (0 Bft) W-NW 293 ° 0 min 0,000 mm 0,0 UV-I 0 W/m² -2,7 °C 0,9 °C 1,6 km/h (1 Bft)
21.12.2018 07:23 0,9 °C 77 % 1018,8 hPa 0,0 mm 0,0 km/h (0 Bft) W-NW 293 ° 0 min 0,000 mm 0,0 UV-I 0 W/m² -2,7 °C 0,9 °C 0,0 km/h (0 Bft)
21.12.2018 07:24 0,8 °C 77 % 1018,8 hPa 0,0 mm 0,0 km/h (0 Bft) W-NW 293 ° 0 min 0,000 mm 0,0 UV-I 0 W/m² -2,8 °C 0,8 °C 0,0 km/h (0 Bft)
21.12.2018 07:25 0,8 °C 77 % 1018,7 hPa 0,0 mm 0,0 km/h (0 Bft) W-NW 293 ° 0 min 0,000 mm 0,0 UV-I 0 W/m² -2,8 °C 0,8 °C 0,0 km/h (0 Bft)
21.12.2018 07:26 0,8 °C 77 % 1018,7 hPa 0,0 mm 0,0 km/h (0 Bft) W-NW 293 ° 0 min 0,000 mm 0,0 UV-I 0 W/m² -2,8 °C 0,8 °C 0,0 km/h (0 Bft)
21.12.2018 07:27 0,7 °C 77 % 1018,7 hPa 0,0 mm 1,5 km/h (1 Bft) W-NW 293 ° 0 min 0,000 mm 0,0 UV-I 0 W/m² -2,9 °C 0,7 °C 3,2 km/h (1 Bft)
21.12.2018 07:28 0,7 °C 78 % 1018,6 hPa 0,0 mm 0,0 km/h (0 Bft) W-NW 293 ° 0 min 0,000 mm 0,0 UV-I 0 W/m² -2,7 °C 0,7 °C 0,0 km/h (0 Bft)
21.12.2018 07:29 0,6 °C 78 % 1018,7 hPa 0,0 mm 0,0 km/h (0 Bft) W-NW 293 ° 0 min 0,000 mm 0,0 UV-I 0 W/m² -2,8 °C 0,6 °C 0,0 km/h (0 Bft)
21.12.2018 07:30 0,6 °C 78 % 1018,6 hPa 0,0 mm 0,0 km/h (0 Bft) W-NW 293 ° 0 min 0,000 mm 0,0 UV-I 0 W/m² -2,8 °C 0,6 °C 0,0 km/h (0 Bft)
21.12.2018 07:31 0,6 °C 78 % 1018,7 hPa 0,0 mm 0,0 km/h (0 Bft) W-NW 293 ° 0 min 0,000 mm 0,0 UV-I 0 W/m² -2,8 °C 0,6 °C 0,0 km/h (0 Bft)
21.12.2018 07:32 0,6 °C 78 % 1018,6 hPa 0,0 mm 0,0 km/h (0 Bft) W-NW 293 ° 0 min 0,000 mm 0,0 UV-I 0 W/m² -2,8 °C 0,6 °C 0,0 km/h (0 Bft)
21.12.2018 07:33 0,5 °C 78 % 1018,6 hPa 0,0 mm 0,0 km/h (0 Bft) W-NW 293 ° 0 min 0,000 mm 0,0 UV-I 0 W/m² -2,9 °C 0,5 °C 0,0 km/h (0 Bft)
21.12.2018 07:34 0,4 °C 78 % 1018,6 hPa 0,0 mm 0,0 km/h (0 Bft) W-NW 293 ° 0 min 0,000 mm 0,0 UV-I 0 W/m² -3,0 °C 0,4 °C 0,0 km/h (0 Bft)
21.12.2018 07:35 0,4 °C 78 % 1018,6 hPa 0,0 mm 0,0 km/h (0 Bft) W-NW 293 ° 0 min 0,000 mm 0,0 UV-I 0 W/m² -3,0 °C 0,4 °C 0,0 km/h (0 Bft)
21.12.2018 07:36 0,4 °C 78 % 1018,6 hPa 0,0 mm 0,0 km/h (0 Bft) W-NW 293 ° 0 min 0,000 mm 0,0 UV-I 0 W/m² -3,0 °C 0,4 °C 0,0 km/h (0 Bft)
21.12.2018 07:37 0,3 °C 78 % 1018,6 hPa 0,0 mm 0,0 km/h (0 Bft) W-NW 293 ° 0 min 0,000 mm 0,0 UV-I 0 W/m² -3,1 °C 0,3 °C 0,0 km/h (0 Bft)
21.12.2018 07:38 0,3 °C 78 % 1018,5 hPa 0,0 mm 0,0 km/h (0 Bft) W-NW 293 ° 0 min 0,000 mm 0,0 UV-I 0 W/m² -3,1 °C 0,3 °C 0,0 km/h (0 Bft)
21.12.2018 07:39 0,2 °C 78 % 1018,5 hPa 0,0 mm 0,0 km/h (0 Bft) W-NW 293 ° 0 min 0,000 mm 0,0 UV-I 0 W/m² -3,2 °C 0,2 °C 0,0 km/h (0 Bft)
21.12.2018 07:40 0,2 °C 79 % 1018,4 hPa 0,0 mm 0,0 km/h (0 Bft) W-NW 293 ° 0 min 0,000 mm 0,0 UV-I 0 W/m² -3,0 °C 0,2 °C 0,0 km/h (0 Bft)
21.12.2018 07:41 0,2 °C 79 % 1018,4 hPa 0,0 mm 0,0 km/h (0 Bft) W-NW 293 ° 0 min 0,000 mm 0,0 UV-I 0 W/m² -3,0 °C 0,2 °C 0,0 km/h (0 Bft)
21.12.2018 07:42 0,1 °C 79 % 1018,3 hPa 0,0 mm 0,0 km/h (0 Bft) W-NW 293 ° 0 min 0,000 mm 0,0 UV-I 0 W/m² -3,1 °C 0,1 °C 0,0 km/h (0 Bft)
21.12.2018 07:43 0,1 °C 79 % 1018,3 hPa 0,0 mm 0,0 km/h (0 Bft) W-NW 293 ° 0 min 0,000 mm 0,0 UV-I 0 W/m² -3,1 °C 0,1 °C 0,0 km/h (0 Bft)
21.12.2018 07:44 0,1 °C 79 % 1018,3 hPa 0,0 mm 0,0 km/h (0 Bft) W-NW 293 ° 0 min 0,000 mm 0,0 UV-I 0 W/m² -3,1 °C 0,1 °C 0,0 km/h (0 Bft)
21.12.2018 07:45 0,1 °C 79 % 1018,3 hPa 0,0 mm 0,0 km/h (0 Bft) W-NW 293 ° 0 min 0,000 mm 0,0 UV-I 0 W/m² -3,1 °C 0,1 °C 0,0 km/h (0 Bft)
21.12.2018 07:46 0,0 °C 79 % 1018,3 hPa 0,0 mm 0,0 km/h (0 Bft) W-NW 293 ° 0 min 0,000 mm 0,0 UV-I 0 W/m² -3,2 °C 0,0 °C 0,0 km/h (0 Bft)
21.12.2018 07:47 -0,1 °C 79 % 1018,3 hPa 0,0 mm 0,0 km/h (0 Bft) W-NW 293 ° 0 min 0,000 mm 0,0 UV-I 0 W/m² -3,3 °C -0,1 °C 0,0 km/h (0 Bft)
21.12.2018 07:48 -0,1 °C 79 % 1018,3 hPa 0,0 mm 0,0 km/h (0 Bft) W-NW 293 ° 0 min 0,000 mm 0,0 UV-I 0 W/m² -3,3 °C -0,1 °C 0,0 km/h (0 Bft)
21.12.2018 07:49 -0,2 °C 79 % 1018,4 hPa 0,0 mm 0,0 km/h (0 Bft) W-NW 293 ° 0 min 0,000 mm 0,0 UV-I 0 W/m² -3,4 °C -0,2 °C 0,0 km/h (0 Bft)
21.12.2018 07:50 -0,2 °C 79 % 1018,3 hPa 0,0 mm 0,0 km/h (0 Bft) W-NW 293 ° 0 min 0,000 mm 0,0 UV-I 0 W/m² -3,4 °C -0,2 °C 0,0 km/h (0 Bft)
21.12.2018 07:51 -0,2 °C 79 % 1018,3 hPa 0,0 mm 0,0 km/h (0 Bft) W-NW 293 ° 0 min 0,000 mm 0,0 UV-I 0 W/m² -3,4 °C -0,2 °C 0,0 km/h (0 Bft)
21.12.2018 07:52 -0,2 °C 80 % 1018,4 hPa 0,0 mm 0,0 km/h (0 Bft) W-NW 293 ° 0 min 0,000 mm 0,0 UV-I 0 W/m² -3,2 °C -0,2 °C 0,0 km/h (0 Bft)
21.12.2018 07:53 -0,3 °C 80 % 1018,4 hPa 0,0 mm 0,0 km/h (0 Bft) W-NW 293 ° 0 min 0,000 mm 0,0 UV-I 0 W/m² -3,3 °C -0,3 °C 0,0 km/h (0 Bft)
21.12.2018 07:54 -0,3 °C 80 % 1018,3 hPa 0,0 mm 0,0 km/h (0 Bft) W-NW 293 ° 0 min 0,000 mm 0,0 UV-I 0 W/m² -3,3 °C -0,3 °C 0,0 km/h (0 Bft)
21.12.2018 07:55 -0,4 °C 81 % 1018,3 hPa 0,0 mm 0,0 km/h (0 Bft) W-NW 293 ° 0 min 0,000 mm 0,0 UV-I 0 W/m² -3,3 °C -0,4 °C 0,0 km/h (0 Bft)
21.12.2018 07:56 -0,4 °C 81 % 1018,3 hPa 0,0 mm 0,0 km/h (0 Bft) W-NW 293 ° 0 min 0,000 mm 0,0 UV-I 0 W/m² -3,3 °C -0,4 °C 0,0 km/h (0 Bft)
21.12.2018 07:57 -0,4 °C 81 % 1018,3 hPa 0,0 mm 0,0 km/h (0 Bft) W-NW 293 ° 0 min 0,000 mm 0,0 UV-I 0 W/m² -3,3 °C -0,4 °C 0,0 km/h (0 Bft)
21.12.2018 07:58 -0,5 °C 81 % 1018,3 hPa 0,0 mm 0,0 km/h (0 Bft) W-NW 293 ° 0 min 0,000 mm 0,0 UV-I 0 W/m² -3,3 °C -0,5 °C 0,0 km/h (0 Bft)
21.12.2018 07:59 -0,5 °C 81 % 1018,2 hPa 0,0 mm 0,0 km/h (0 Bft) W-NW 293 ° 0 min 0,000 mm 0,0 UV-I 0 W/m² -3,3 °C -0,5 °C 0,0 km/h (0 Bft)
21.12.2018 08:00 -0,6 °C 82 % 1018,2 hPa 0,0 mm 0,0 km/h (0 Bft) W-NW 293 ° 0 min 0,000 mm 0,0 UV-I 0 W/m² -3,3 °C -0,6 °C 0,0 km/h (0 Bft)
21.12.2018 08:01 -0,6 °C 82 % 1018,2 hPa 0,0 mm 0,0 km/h (0 Bft) W-NW 293 ° 0 min 0,000 mm 0,0 UV-I 0 W/m² -3,3 °C -0,6 °C 0,0 km/h (0 Bft)
21.12.2018 08:02 -0,6 °C 82 % 1018,2 hPa 0,0 mm 0,0 km/h (0 Bft) W-NW 293 ° 0 min 0,000 mm 0,0 UV-I 0 W/m² -3,3 °C -0,6 °C 0,0 km/h (0 Bft)
21.12.2018 08:03 -0,6 °C 82 % 1018,2 hPa 0,0 mm 0,0 km/h (0 Bft) W-NW 293 ° 0 min 0,000 mm 0,0 UV-I 0 W/m² -3,3 °C -0,6 °C 0,0 km/h (0 Bft)
21.12.2018 08:04 -0,6 °C 82 % 1018,2 hPa 0,0 mm 0,0 km/h (0 Bft) W-NW 293 ° 0 min 0,000 mm 0,0 UV-I 0 W/m² -3,3 °C -0,6 °C 0,0 km/h (0 Bft)
21.12.2018 08:05 -0,7 °C 82 % 1018,2 hPa 0,0 mm 0,0 km/h (0 Bft) W-NW 293 ° 0 min 0,000 mm 0,0 UV-I 0 W/m² -3,4 °C -0,7 °C 0,0 km/h (0 Bft)
21.12.2018 08:06 -0,7 °C 83 % 1018,2 hPa 0,0 mm 0,0 km/h (0 Bft) W-NW 293 ° 0 min 0,000 mm 0,0 UV-I 0 W/m² -3,2 °C -0,7 °C 0,0 km/h (0 Bft)
21.12.2018 08:07 -0,7 °C 83 % 1018,2 hPa 0,0 mm 0,0 km/h (0 Bft) W-NW 293 ° 0 min 0,000 mm 0,0 UV-I 0 W/m² -3,2 °C -0,7 °C 0,0 km/h (0 Bft)
21.12.2018 08:08 -0,7 °C 82 % 1018,2 hPa 0,0 mm 0,0 km/h (0 Bft) W-NW 293 ° 0 min 0,000 mm 0,0 UV-I 5 W/m² -3,4 °C -0,7 °C 0,0 km/h (0 Bft)
21.12.2018 08:09 -0,7 °C 82 % 1018,2 hPa 0,0 mm 0,0 km/h (0 Bft) W-NW 293 ° 0 min 0,000 mm 0,0 UV-I 5 W/m² -3,4 °C -0,7 °C 0,0 km/h (0 Bft)
21.12.2018 08:10 -0,7 °C 82 % 1018,1 hPa 0,0 mm 0,0 km/h (0 Bft) W-NW 293 ° 0 min 0,000 mm 0,0 UV-I 5 W/m² -3,4 °C -0,7 °C 0,0 km/h (0 Bft)
21.12.2018 08:11 -0,8 °C 83 % 1018,1 hPa 0,0 mm 0,4 km/h (0 Bft) W-NW 293 ° 0 min 0,000 mm 0,0 UV-I 5 W/m² -3,3 °C -0,8 °C 3,2 km/h (1 Bft)
21.12.2018 08:12 -0,8 °C 83 % 1018,1 hPa 0,0 mm 0,9 km/h (0 Bft) W-NW 293 ° 0 min 0,000 mm 0,0 UV-I 7 W/m² -3,3 °C -0,8 °C 3,2 km/h (1 Bft)
21.12.2018 08:13 -0,8 °C 83 % 1018,1 hPa 0,0 mm 0,0 km/h (0 Bft) W-NW 293 ° 0 min 0,000 mm 0,0 UV-I 7 W/m² -3,3 °C -0,8 °C 0,0 km/h (0 Bft)
21.12.2018 08:14 -0,8 °C 83 % 1018,2 hPa 0,0 mm 1,3 km/h (1 Bft) W-NW 293 ° 0 min 0,000 mm 0,0 UV-I 7 W/m² -3,3 °C -0,8 °C 3,2 km/h (1 Bft)
21.12.2018 08:15 -0,8 °C 83 % 1018,2 hPa 0,0 mm 2,8 km/h (1 Bft) W-NW 293 ° 0 min 0,000 mm 0,0 UV-I 9 W/m² -3,3 °C -0,8 °C 3,2 km/h (1 Bft)
21.12.2018 08:16 -0,8 °C 83 % 1018,2 hPa 0,0 mm 0,4 km/h (0 Bft) W-NW 293 ° 0 min 0,000 mm 0,0 UV-I 9 W/m² -3,3 °C -0,8 °C 1,6 km/h (1 Bft)
21.12.2018 08:17 -0,8 °C 83 % 1018,2 hPa 0,0 mm 0,0 km/h (0 Bft) W-NW 293 ° 0 min 0,000 mm 0,0 UV-I 9 W/m² -3,3 °C -0,8 °C 0,0 km/h (0 Bft)
21.12.2018 08:18 -0,8 °C 82 % 1018,2 hPa 0,0 mm 0,0 km/h (0 Bft) W-NW 293 ° 0 min 0,000 mm 0,0 UV-I 11 W/m² -3,5 °C -0,8 °C 0,0 km/h (0 Bft)
21.12.2018 08:19 -0,9 °C 82 % 1018,2 hPa 0,0 mm 0,0 km/h (0 Bft) W-NW 293 ° 0 min 0,000 mm 0,0 UV-I 11 W/m² -3,6 °C -0,9 °C 0,0 km/h (0 Bft)
21.12.2018 08:20 -0,9 °C 82 % 1018,2 hPa 0,0 mm 0,0 km/h (0 Bft) W-NW 293 ° 0 min 0,000 mm 0,0 UV-I 12 W/m² -3,6 °C -0,9 °C 0,0 km/h (0 Bft)
21.12.2018 08:21 -0,9 °C 82 % 1018,2 hPa 0,0 mm 0,0 km/h (0 Bft) W-NW 293 ° 0 min 0,000 mm 0,0 UV-I 12 W/m² -3,6 °C -0,9 °C 0,0 km/h (0 Bft)
21.12.2018 08:22 -0,9 °C 82 % 1018,2 hPa 0,0 mm 0,0 km/h (0 Bft) W-NW 293 ° 0 min 0,000 mm 0,0 UV-I 12 W/m² -3,6 °C -0,9 °C 0,0 km/h (0 Bft)
21.12.2018 08:23 -0,9 °C 83 % 1018,2 hPa 0,0 mm 0,0 km/h (0 Bft) W-NW 293 ° 0 min 0,000 mm 0,0 UV-I 14 W/m² -3,4 °C -0,9 °C 0,0 km/h (0 Bft)
21.12.2018 08:24 -0,9 °C 83 % 1018,2 hPa 0,0 mm 1,0 km/h (0 Bft) W-NW 293 ° 0 min 0,000 mm 0,0 UV-I 14 W/m² -3,4 °C -0,9 °C 1,6 km/h (1 Bft)
21.12.2018 08:25 -1,0 °C 83 % 1018,2 hPa 0,0 mm 0,0 km/h (0 Bft) W-NW 293 ° 0 min 0,000 mm 0,0 UV-I 16 W/m² -3,5 °C -1,0 °C 0,0 km/h (0 Bft)
21.12.2018 08:26 -1,0 °C 83 % 1018,2 hPa 0,0 mm 0,0 km/h (0 Bft) W-NW 293 ° 0 min 0,000 mm 0,0 UV-I 16 W/m² -3,5 °C -1,0 °C 0,0 km/h (0 Bft)
21.12.2018 08:27 -1,1 °C 83 % 1018,2 hPa 0,0 mm 0,0 km/h (0 Bft) W-NW 293 ° 0 min 0,000 mm 0,0 UV-I 18 W/m² -3,6 °C -1,1 °C 0,0 km/h (0 Bft)
21.12.2018 08:28 -1,1 °C 83 % 1018,2 hPa 0,0 mm 0,0 km/h (0 Bft) W-NW 293 ° 0 min 0,000 mm 0,0 UV-I 18 W/m² -3,6 °C -1,1 °C 0,0 km/h (0 Bft)
21.12.2018 08:29 -1,1 °C 83 % 1018,2 hPa 0,0 mm 0,0 km/h (0 Bft) W-NW 293 ° 0 min 0,000 mm 0,0 UV-I 19 W/m² -3,6 °C -1,1 °C 0,0 km/h (0 Bft)
21.12.2018 08:30 -1,1 °C 83 % 1018,2 hPa 0,0 mm 0,0 km/h (0 Bft) W-NW 293 ° 0 min 0,000 mm 0,0 UV-I 19 W/m² -3,6 °C -1,1 °C 0,0 km/h (0 Bft)
21.12.2018 08:31 -1,1 °C 83 % 1018,1 hPa 0,0 mm 0,0 km/h (0 Bft) W-NW 293 ° 0 min 0,000 mm 0,0 UV-I 19 W/m² -3,6 °C -1,1 °C 0,0 km/h (0 Bft)
21.12.2018 08:32 -1,1 °C 83 % 1018,2 hPa 0,0 mm 0,0 km/h (0 Bft) W-NW 293 ° 0 min 0,000 mm 0,0 UV-I 21 W/m² -3,6 °C -1,1 °C 0,0 km/h (0 Bft)
21.12.2018 08:33 -1,1 °C 83 % 1018,2 hPa 0,0 mm 0,5 km/h (0 Bft) W-NW 293 ° 0 min 0,000 mm 0,0 UV-I 21 W/m² -3,6 °C -1,1 °C 1,6 km/h (1 Bft)
21.12.2018 08:34 -1,1 °C 83 % 1018,2 hPa 0,0 mm 0,0 km/h (0 Bft) W-NW 293 ° 0 min 0,000 mm 0,0 UV-I 21 W/m² -3,6 °C -1,1 °C 0,0 km/h (0 Bft)
21.12.2018 08:35 -1,2 °C 83 % 1018,2 hPa 0,0 mm 0,0 km/h (0 Bft) W-NW 293 ° 0 min 0,000 mm 0,0 UV-I 21 W/m² -3,7 °C -1,2 °C 0,0 km/h (0 Bft)
21.12.2018 08:36 -1,2 °C 83 % 1018,2 hPa 0,0 mm 0,0 km/h (0 Bft) W-NW 293 ° 0 min 0,000 mm 0,0 UV-I 21 W/m² -3,7 °C -1,2 °C 0,0 km/h (0 Bft)
21.12.2018 08:37 -1,2 °C 83 % 1018,2 hPa 0,0 mm 0,0 km/h (0 Bft) W-NW 293 ° 0 min 0,000 mm 0,0 UV-I 23 W/m² -3,7 °C -1,2 °C 0,0 km/h (0 Bft)
21.12.2018 08:38 -1,2 °C 84 % 1018,0 hPa 0,0 mm 0,0 km/h (0 Bft) W-NW 293 ° 0 min 0,000 mm 0,0 UV-I 23 W/m² -3,5 °C -1,2 °C 0,0 km/h (0 Bft)
21.12.2018 08:39 -1,2 °C 84 % 1018,2 hPa 0,0 mm 0,0 km/h (0 Bft) W-NW 293 ° 0 min 0,000 mm 0,0 UV-I 23 W/m² -3,5 °C -1,2 °C 0,0 km/h (0 Bft)
21.12.2018 08:40 -1,2 °C 84 % 1018,1 hPa 0,0 mm 0,0 km/h (0 Bft) W-NW 293 ° 0 min 0,000 mm 0,0 UV-I 25 W/m² -3,5 °C -1,2 °C 0,0 km/h (0 Bft)
21.12.2018 08:41 -1,2 °C 84 % 1018,1 hPa 0,0 mm 0,0 km/h (0 Bft) W-NW 293 ° 0 min 0,000 mm 0,0 UV-I 25 W/m² -3,5 °C -1,2 °C 0,0 km/h (0 Bft)
21.12.2018 08:42 -1,2 °C 84 % 1018,2 hPa 0,0 mm 0,8 km/h (0 Bft) W-NW 293 ° 0 min 0,000 mm 0,0 UV-I 25 W/m² -3,5 °C -1,2 °C 1,6 km/h (1 Bft)
21.12.2018 08:43 -1,2 °C 84 % 1018,2 hPa 0,0 mm 0,0 km/h (0 Bft) W-NW 293 ° 0 min 0,000 mm 0,0 UV-I 26 W/m² -3,5 °C -1,2 °C 0,0 km/h (0 Bft)
21.12.2018 08:44 -1,3 °C 84 % 1018,2 hPa 0,0 mm 0,0 km/h (0 Bft) W-NW 293 ° 0 min 0,000 mm 0,0 UV-I 28 W/m² -3,6 °C -1,3 °C 0,0 km/h (0 Bft)
21.12.2018 08:45 -1,3 °C 84 % 1018,2 hPa 0,0 mm 0,0 km/h (0 Bft) W-NW 293 ° 0 min 0,000 mm 0,0 UV-I 28 W/m² -3,6 °C -1,3 °C 0,0 km/h (0 Bft)
21.12.2018 08:46 -1,2 °C 84 % 1018,2 hPa 0,0 mm 3,1 km/h (1 Bft) SO 132 ° 0 min 0,000 mm 0,0 UV-I 28 W/m² -3,5 °C -1,2 °C 4,8 km/h (1 Bft)
21.12.2018 08:47 -1,3 °C 84 % 1018,1 hPa 0,0 mm 2,3 km/h (1 Bft) SO 132 ° 0 min 0,000 mm 0,0 UV-I 30 W/m² -3,6 °C -1,3 °C 3,2 km/h (1 Bft)
21.12.2018 08:48 -1,3 °C 84 % 1018,0 hPa 0,0 mm 0,0 km/h (0 Bft) SO 132 ° 0 min 0,000 mm 0,0 UV-I 30 W/m² -3,6 °C -1,3 °C 0,0 km/h (0 Bft)
21.12.2018 08:49 -1,3 °C 84 % 1018,1 hPa 0,0 mm 0,0 km/h (0 Bft) SO 132 ° 0 min 0,000 mm 0,0 UV-I 32 W/m² -3,6 °C -1,3 °C 0,0 km/h (0 Bft)
21.12.2018 08:50 -1,3 °C 84 % 1018,0 hPa 0,0 mm 0,0 km/h (0 Bft) SO 132 ° 0 min 0,000 mm 0,0 UV-I 33 W/m² -3,6 °C -1,3 °C 0,0 km/h (0 Bft)
21.12.2018 08:51 -1,3 °C 84 % 1018,1 hPa 0,0 mm 0,0 km/h (0 Bft) SO 132 ° 0 min 0,000 mm 0,0 UV-I 33 W/m² -3,6 °C -1,3 °C 0,0 km/h (0 Bft)
21.12.2018 08:52 -1,3 °C 85 % 1018,0 hPa 0,0 mm 0,0 km/h (0 Bft) SO 132 ° 0 min 0,000 mm 0,0 UV-I 35 W/m² -3,5 °C -1,3 °C 0,0 km/h (0 Bft)
21.12.2018 08:53 -1,3 °C 85 % 1018,0 hPa 0,0 mm 0,0 km/h (0 Bft) SO 132 ° 0 min 0,000 mm 0,0 UV-I 35 W/m² -3,5 °C -1,3 °C 0,0 km/h (0 Bft)
21.12.2018 08:54 -1,3 °C 85 % 1018,0 hPa 0,0 mm 1,3 km/h (1 Bft) SO 132 ° 0 min 0,000 mm 0,0 UV-I 35 W/m² -3,5 °C -1,3 °C 3,2 km/h (1 Bft)
21.12.2018 08:55 -1,3 °C 85 % 1018,1 hPa 0,0 mm 0,0 km/h (0 Bft) SO 132 ° 0 min 0,000 mm 0,0 UV-I 37 W/m² -3,5 °C -1,3 °C 0,0 km/h (0 Bft)
21.12.2018 08:56 -1,3 °C 85 % 1018,2 hPa 0,0 mm 0,0 km/h (0 Bft) SO 132 ° 0 min 0,000 mm 0,0 UV-I 37 W/m² -3,5 °C -1,3 °C 0,0 km/h (0 Bft)
21.12.2018 08:57 -1,3 °C 85 % 1018,1 hPa 0,0 mm 0,0 km/h (0 Bft) SO 132 ° 0 min 0,000 mm 0,0 UV-I 37 W/m² -3,5 °C -1,3 °C 0,0 km/h (0 Bft)
21.12.2018 08:58 -1,3 °C 85 % 1018,2 hPa 0,0 mm 0,0 km/h (0 Bft) SO 132 ° 0 min 0,000 mm 0,0 UV-I 37 W/m² -3,5 °C -1,3 °C 0,0 km/h (0 Bft)
21.12.2018 08:59 -1,3 °C 85 % 1018,1 hPa 0,0 mm 0,0 km/h (0 Bft) SO 132 ° 0 min 0,000 mm 0,0 UV-I 37 W/m² -3,5 °C -1,3 °C 0,0 km/h (0 Bft)
21.12.2018 09:00 -1,3 °C 85 % 1018,1 hPa 0,0 mm 0,0 km/h (0 Bft) SO 132 ° 0 min 0,000 mm 0,0 UV-I 39 W/m² -3,5 °C -1,3 °C 0,0 km/h (0 Bft)
21.12.2018 09:01 -1,3 °C 85 % 1018,1 hPa 0,0 mm 0,0 km/h (0 Bft) SO 132 ° 0 min 0,000 mm 0,0 UV-I 39 W/m² -3,5 °C -1,3 °C 0,0 km/h (0 Bft)
21.12.2018 09:02 -1,3 °C 85 % 1018,1 hPa 0,0 mm 0,0 km/h (0 Bft) SO 132 ° 0 min 0,000 mm 0,0 UV-I 39 W/m² -3,5 °C -1,3 °C 0,0 km/h (0 Bft)
21.12.2018 09:03 -1,3 °C 85 % 1018,1 hPa 0,0 mm 0,0 km/h (0 Bft) SO 132 ° 0 min 0,000 mm 0,0 UV-I 42 W/m² -3,5 °C -1,3 °C 0,0 km/h (0 Bft)
21.12.2018 09:04 -1,3 °C 85 % 1018,1 hPa 0,0 mm 0,0 km/h (0 Bft) SO 132 ° 0 min 0,000 mm 0,0 UV-I 42 W/m² -3,5 °C -1,3 °C 0,0 km/h (0 Bft)
21.12.2018 09:05 -1,3 °C 85 % 1018,1 hPa 0,0 mm 0,0 km/h (0 Bft) SO 132 ° 0 min 0,000 mm 0,0 UV-I 47 W/m² -3,5 °C -1,3 °C 0,0 km/h (0 Bft)
21.12.2018 09:06 -1,3 °C 85 % 1018,0 hPa 0,0 mm 0,0 km/h (0 Bft) SO 132 ° 0 min 0,000 mm 0,0 UV-I 56 W/m² -3,5 °C -1,3 °C 0,0 km/h (0 Bft)
21.12.2018 09:07 -1,3 °C 86 % 1018,0 hPa 0,0 mm 0,1 km/h (0 Bft) SO 132 ° 0 min 0,000 mm 0,0 UV-I 62 W/m² -3,3 °C -1,3 °C 1,6 km/h (1 Bft)
21.12.2018 09:08 -1,3 °C 86 % 1018,0 hPa 0,0 mm 0,0 km/h (0 Bft) SO 132 ° 0 min 0,000 mm 0,0 UV-I 67 W/m² -3,3 °C -1,3 °C 0,0 km/h (0 Bft)
21.12.2018 09:09 -1,3 °C 86 % 1018,1 hPa 0,0 mm 0,0 km/h (0 Bft) SO 132 ° 0 min 0,000 mm 0,0 UV-I 72 W/m² -3,3 °C -1,3 °C 0,0 km/h (0 Bft)
21.12.2018 09:10 -1,2 °C 86 % 1018,1 hPa 0,0 mm 0,0 km/h (0 Bft) SO 132 ° 0 min 0,000 mm 0,0 UV-I 77 W/m² -3,2 °C -1,2 °C 0,0 km/h (0 Bft)
21.12.2018 09:11 -1,2 °C 86 % 1018,2 hPa 0,0 mm 0,0 km/h (0 Bft) SO 132 ° 0 min 0,000 mm 0,0 UV-I 83 W/m² -3,2 °C -1,2 °C 0,0 km/h (0 Bft)
21.12.2018 09:12 -1,2 °C 86 % 1018,2 hPa 0,0 mm 0,0 km/h (0 Bft) SO 132 ° 0 min 0,000 mm 0,0 UV-I 90 W/m² -3,2 °C -1,2 °C 0,0 km/h (0 Bft)
21.12.2018 09:13 -1,2 °C 86 % 1018,1 hPa 0,0 mm 0,0 km/h (0 Bft) SO 132 ° 0 min 0,000 mm 0,0 UV-I 91 W/m² -3,2 °C -1,2 °C 0,0 km/h (0 Bft)
21.12.2018 09:14 -1,2 °C 86 % 1018,2 hPa 0,0 mm 0,0 km/h (0 Bft) SO 132 ° 0 min 0,000 mm 0,0 UV-I 90 W/m² -3,2 °C -1,2 °C 0,0 km/h (0 Bft)
21.12.2018 09:15 -1,2 °C 86 % 1018,2 hPa 0,0 mm 0,0 km/h (0 Bft) SO 132 ° 0 min 0,000 mm 0,0 UV-I 84 W/m² -3,2 °C -1,2 °C 0,0 km/h (0 Bft)
21.12.2018 09:16 -1,2 °C 86 % 1018,2 hPa 0,0 mm 0,0 km/h (0 Bft) SO 132 ° 0 min 0,000 mm 0,0 UV-I 84 W/m² -3,2 °C -1,2 °C 0,0 km/h (0 Bft)
21.12.2018 09:17 -1,2 °C 86 % 1018,1 hPa 0,0 mm 0,0 km/h (0 Bft) SO 132 ° 0 min 0,000 mm 0,0 UV-I 69 W/m² -3,2 °C -1,2 °C 0,0 km/h (0 Bft)
21.12.2018 09:18 -1,1 °C 86 % 1018,1 hPa 0,0 mm 0,0 km/h (0 Bft) SO 132 ° 0 min 0,000 mm 0,0 UV-I 51 W/m² -3,1 °C -1,1 °C 0,0 km/h (0 Bft)
21.12.2018 09:19 -1,1 °C 86 % 1018,1 hPa 0,0 mm 0,0 km/h (0 Bft) SO 132 ° 0 min 0,000 mm 0,0 UV-I 46 W/m² -3,1 °C -1,1 °C 0,0 km/h (0 Bft)
21.12.2018 09:20 -1,1 °C 86 % 1018,0 hPa 0,0 mm 0,0 km/h (0 Bft) SO 132 ° 0 min 0,000 mm 0,0 UV-I 42 W/m² -3,1 °C -1,1 °C 0,0 km/h (0 Bft)
21.12.2018 09:21 -1,1 °C 86 % 1018,1 hPa 0,0 mm 0,0 km/h (0 Bft) SO 132 ° 0 min 0,000 mm 0,0 UV-I 39 W/m² -3,1 °C -1,1 °C 0,0 km/h (0 Bft)
21.12.2018 09:22 -1,1 °C 86 % 1018,1 hPa 0,0 mm 0,0 km/h (0 Bft) SO 132 ° 0 min 0,000 mm 0,0 UV-I 39 W/m² -3,1 °C -1,1 °C 0,0 km/h (0 Bft)
21.12.2018 09:23 -1,1 °C 87 % 1018,0 hPa 0,0 mm 0,0 km/h (0 Bft) SO 132 ° 0 min 0,000 mm 0,0 UV-I 37 W/m² -3,0 °C -1,1 °C 0,0 km/h (0 Bft)
21.12.2018 09:24 -1,0 °C 87 % 1018,0 hPa 0,0 mm 0,0 km/h (0 Bft) SO 132 ° 0 min 0,000 mm 0,0 UV-I 35 W/m² -2,9 °C -1,0 °C 0,0 km/h (0 Bft)
21.12.2018 09:25 -0,9 °C 87 % 1018,0 hPa 0,0 mm 0,0 km/h (0 Bft) SO 132 ° 0 min 0,000 mm 0,0 UV-I 35 W/m² -2,8 °C -0,9 °C 0,0 km/h (0 Bft)
21.12.2018 09:26 -0,9 °C 87 % 1018,0 hPa 0,0 mm 0,0 km/h (0 Bft) SO 132 ° 0 min 0,000 mm 0,0 UV-I 35 W/m² -2,8 °C -0,9 °C 0,0 km/h (0 Bft)
21.12.2018 09:27 -0,9 °C 87 % 1018,1 hPa 0,0 mm 0,0 km/h (0 Bft) SO 132 ° 0 min 0,000 mm 0,0 UV-I 35 W/m² -2,8 °C -0,9 °C 0,0 km/h (0 Bft)
21.12.2018 09:28 -0,9 °C 87 % 1018,0 hPa 0,0 mm 0,0 km/h (0 Bft) SO 132 ° 0 min 0,000 mm 0,0 UV-I 37 W/m² -2,8 °C -0,9 °C 0,0 km/h (0 Bft)
21.12.2018 09:29 -0,8 °C 87 % 1017,9 hPa 0,0 mm 1,5 km/h (1 Bft) SO 132 ° 0 min 0,000 mm 0,0 UV-I 37 W/m² -2,7 °C -0,8 °C 3,2 km/h (1 Bft)
21.12.2018 09:30 -0,8 °C 87 % 1017,9 hPa 0,0 mm 0,0 km/h (0 Bft) SO 132 ° 0 min 0,000 mm 0,0 UV-I 39 W/m² -2,7 °C -0,8 °C 0,0 km/h (0 Bft)
21.12.2018 09:31 -0,8 °C 87 % 1017,9 hPa 0,0 mm 0,0 km/h (0 Bft) SO 132 ° 0 min 0,000 mm 0,0 UV-I 39 W/m² -2,7 °C -0,8 °C 0,0 km/h (0 Bft)
21.12.2018 09:32 -0,7 °C 87 % 1017,9 hPa 0,0 mm 0,0 km/h (0 Bft) SO 132 ° 0 min 0,000 mm 0,0 UV-I 39 W/m² -2,6 °C -0,7 °C 0,0 km/h (0 Bft)
21.12.2018 09:33 -0,7 °C 87 % 1017,8 hPa 0,0 mm 0,0 km/h (0 Bft) SO 132 ° 0 min 0,000 mm 0,0 UV-I 39 W/m² -2,6 °C -0,7 °C 0,0 km/h (0 Bft)
21.12.2018 09:34 -0,7 °C 87 % 1017,8 hPa 0,0 mm 0,4 km/h (0 Bft) SO 132 ° 0 min 0,000 mm 0,0 UV-I 39 W/m² -2,6 °C -0,7 °C 1,6 km/h (1 Bft)
21.12.2018 09:35 -0,6 °C 87 % 1017,8 hPa 0,0 mm 2,8 km/h (1 Bft) W 268 ° 0 min 0,000 mm 0,0 UV-I 40 W/m² -2,5 °C -0,6 °C 4,8 km/h (1 Bft)
21.12.2018 09:36 -0,6 °C 87 % 1017,8 hPa 0,0 mm 0,9 km/h (0 Bft) W 268 ° 0 min 0,000 mm 0,0 UV-I 40 W/m² -2,5 °C -0,6 °C 3,2 km/h (1 Bft)
21.12.2018 09:37 -0,5 °C 87 % 1017,8 hPa 0,0 mm 0,1 km/h (0 Bft) W 268 ° 0 min 0,000 mm 0,0 UV-I 40 W/m² -2,4 °C -0,5 °C 1,6 km/h (1 Bft)
21.12.2018 09:38 -0,5 °C 87 % 1017,8 hPa 0,0 mm 0,7 km/h (0 Bft) W 268 ° 0 min 0,000 mm 0,0 UV-I 40 W/m² -2,4 °C -0,5 °C 1,6 km/h (1 Bft)
21.12.2018 09:39 -0,4 °C 87 % 1017,8 hPa 0,0 mm 0,0 km/h (0 Bft) W 268 ° 0 min 0,000 mm 0,0 UV-I 40 W/m² -2,3 °C -0,4 °C 0,0 km/h (0 Bft)
21.12.2018 09:40 -0,4 °C 87 % 1017,8 hPa 0,0 mm 0,0 km/h (0 Bft) W 268 ° 0 min 0,000 mm 0,0 UV-I 39 W/m² -2,3 °C -0,4 °C 0,0 km/h (0 Bft)
21.12.2018 09:41 -0,3 °C 87 % 1017,8 hPa 0,0 mm 0,0 km/h (0 Bft) W 268 ° 0 min 0,000 mm 0,0 UV-I 39 W/m² -2,2 °C -0,3 °C 0,0 km/h (0 Bft)
21.12.2018 09:42 -0,3 °C 87 % 1017,8 hPa 0,0 mm 0,0 km/h (0 Bft) W 268 ° 0 min 0,000 mm 0,0 UV-I 39 W/m² -2,2 °C -0,3 °C 0,0 km/h (0 Bft)
21.12.2018 09:43 -0,3 °C 87 % 1017,8 hPa 0,0 mm 0,0 km/h (0 Bft) W 268 ° 0 min 0,000 mm 0,0 UV-I 39 W/m² -2,2 °C -0,3 °C 0,0 km/h (0 Bft)
21.12.2018 09:44 -0,3 °C 87 % 1017,8 hPa 0,0 mm 0,0 km/h (0 Bft) W 268 ° 0 min 0,000 mm 0,0 UV-I 39 W/m² -2,2 °C -0,3 °C 0,0 km/h (0 Bft)
21.12.2018 09:45 -0,2 °C 87 % 1017,8 hPa 0,0 mm 0,0 km/h (0 Bft) W 268 ° 0 min 0,000 mm 0,0 UV-I 39 W/m² -2,1 °C -0,2 °C 0,0 km/h (0 Bft)
21.12.2018 09:46 -0,2 °C 87 % 1017,7 hPa 0,0 mm 0,0 km/h (0 Bft) W 268 ° 0 min 0,000 mm 0,0 UV-I 37 W/m² -2,1 °C -0,2 °C 0,0 km/h (0 Bft)
21.12.2018 09:47 -0,2 °C 87 % 1017,8 hPa 0,0 mm 0,0 km/h (0 Bft) W 268 ° 0 min 0,000 mm 0,0 UV-I 37 W/m² -2,1 °C -0,2 °C 0,0 km/h (0 Bft)
21.12.2018 09:48 -0,1 °C 87 % 1017,7 hPa 0,0 mm 0,0 km/h (0 Bft) W 268 ° 0 min 0,000 mm 0,0 UV-I 37 W/m² -2,0 °C -0,1 °C 0,0 km/h (0 Bft)
21.12.2018 09:49 -0,1 °C 87 % 1017,8 hPa 0,0 mm 0,0 km/h (0 Bft) W 268 ° 0 min 0,000 mm 0,0 UV-I 39 W/m² -2,0 °C -0,1 °C 0,0 km/h (0 Bft)
21.12.2018 09:50 -0,1 °C 87 % 1017,7 hPa 0,0 mm 0,0 km/h (0 Bft) W 268 ° 0 min 0,000 mm 0,0 UV-I 39 W/m² -2,0 °C -0,1 °C 0,0 km/h (0 Bft)
21.12.2018 09:51 -0,1 °C 87 % 1017,8 hPa 0,0 mm 0,0 km/h (0 Bft) W 268 ° 0 min 0,000 mm 0,0 UV-I 42 W/m² -2,0 °C -0,1 °C 0,0 km/h (0 Bft)
21.12.2018 09:52 -0,1 °C 87 % 1017,8 hPa 0,0 mm 0,0 km/h (0 Bft) W 268 ° 0 min 0,000 mm 0,0 UV-I 46 W/m² -2,0 °C -0,1 °C 0,0 km/h (0 Bft)
21.12.2018 09:53 0,0 °C 87 % 1017,8 hPa 0,0 mm 0,0 km/h (0 Bft) W 268 ° 0 min 0,000 mm 0,0 UV-I 53 W/m² -1,9 °C 0,0 °C 0,0 km/h (0 Bft)
21.12.2018 09:54 0,0 °C 87 % 1017,9 hPa 0,0 mm 0,0 km/h (0 Bft) W 268 ° 0 min 0,000 mm 0,0 UV-I 54 W/m² -1,9 °C 0,0 °C 0,0 km/h (0 Bft)
21.12.2018 09:55 0,0 °C 87 % 1017,9 hPa 0,0 mm 0,0 km/h (0 Bft) W 267 ° 0 min 0,000 mm 0,0 UV-I 58 W/m² -1,9 °C 0,0 °C 0,0 km/h (0 Bft)
21.12.2018 09:56 0,1 °C 86 % 1017,9 hPa 0,0 mm 0,0 km/h (0 Bft) W 267 ° 0 min 0,000 mm 0,0 UV-I 62 W/m² -2,0 °C 0,1 °C 0,0 km/h (0 Bft)
21.12.2018 09:57 0,1 °C 86 % 1017,9 hPa 0,0 mm 0,0 km/h (0 Bft) W 267 ° 0 min 0,000 mm 0,0 UV-I 65 W/m² -2,0 °C 0,1 °C 0,0 km/h (0 Bft)
21.12.2018 09:58 0,1 °C 86 % 1017,9 hPa 0,0 mm 1,2 km/h (1 Bft) W 267 ° 0 min 0,000 mm 0,0 UV-I 67 W/m² -2,0 °C 0,1 °C 3,2 km/h (1 Bft)
21.12.2018 09:59 0,2 °C 86 % 1018,0 hPa 0,0 mm 0,7 km/h (0 Bft) W 267 ° 0 min 0,000 mm 0,0 UV-I 69 W/m² -1,9 °C 0,2 °C 1,6 km/h (1 Bft)
21.12.2018 10:00 0,2 °C 86 % 1018,1 hPa 0,0 mm 0,0 km/h (0 Bft) W 267 ° 0 min 0,000 mm 0,0 UV-I 67 W/m² -1,9 °C 0,2 °C 0,0 km/h (0 Bft)
21.12.2018 10:01 0,2 °C 86 % 1018,0 hPa 0,0 mm 0,0 km/h (0 Bft) W 267 ° 0 min 0,025 mm 0,0 UV-I 65 W/m² -1,9 °C 0,2 °C 0,0 km/h (0 Bft)
21.12.2018 10:02 0,3 °C 86 % 1017,9 hPa 0,0 mm 0,0 km/h (0 Bft) W 267 ° 0 min 0,000 mm 0,0 UV-I 65 W/m² -1,8 °C 0,3 °C 0,0 km/h (0 Bft)
21.12.2018 10:03 0,3 °C 85 % 1018,0 hPa 0,0 mm 4,1 km/h (1 Bft) S-SO 167 ° 0 min 0,000 mm 0,0 UV-I 63 W/m² -1,9 °C 0,3 °C 9,7 km/h (2 Bft)
21.12.2018 10:04 0,4 °C 85 % 1017,9 hPa 0,0 mm 2,5 km/h (1 Bft) S 178 ° 0 min 0,000 mm 0,0 UV-I 63 W/m² -1,8 °C 0,4 °C 4,8 km/h (1 Bft)
21.12.2018 10:05 0,4 °C 84 % 1018,0 hPa 0,0 mm 3,5 km/h (1 Bft) NW 315 ° 0 min 0,000 mm 0,0 UV-I 58 W/m² -2,0 °C 0,4 °C 6,4 km/h (2 Bft)
21.12.2018 10:06 0,6 °C 83 % 1018,1 hPa 0,0 mm 1,8 km/h (1 Bft) NW 315 ° 0 min 0,000 mm 0,0 UV-I 56 W/m² -1,9 °C 0,6 °C 4,8 km/h (1 Bft)
21.12.2018 10:07 0,7 °C 83 % 1018,1 hPa 0,0 mm 0,0 km/h (0 Bft) NW 315 ° 0 min 0,000 mm 0,0 UV-I 54 W/m² -1,8 °C 0,7 °C 0,0 km/h (0 Bft)
21.12.2018 10:08 0,7 °C 83 % 1018,1 hPa 0,0 mm 1,1 km/h (1 Bft) N-NW 342 ° 0 min 0,000 mm 0,0 UV-I 54 W/m² -1,8 °C 0,7 °C 3,2 km/h (1 Bft)
21.12.2018 10:09 0,8 °C 83 % 1018,1 hPa 0,0 mm 0,9 km/h (0 Bft) N 355 ° 0 min 0,000 mm 0,0 UV-I 53 W/m² -1,8 °C 0,8 °C 3,2 km/h (1 Bft)
21.12.2018 10:10 0,8 °C 83 % 1018,1 hPa 0,0 mm 0,0 km/h (0 Bft) N 355 ° 0 min 0,000 mm 0,0 UV-I 53 W/m² -1,8 °C 0,8 °C 0,0 km/h (0 Bft)
21.12.2018 10:11 0,8 °C 83 % 1018,1 hPa 0,0 mm 0,4 km/h (0 Bft) N 355 ° 0 min 0,000 mm 0,0 UV-I 51 W/m² -1,8 °C 0,8 °C 3,2 km/h (1 Bft)
21.12.2018 10:12 0,9 °C 83 % 1018,0 hPa 0,0 mm 1,8 km/h (1 Bft) N 355 ° 0 min 0,000 mm 0,0 UV-I 53 W/m² -1,7 °C 0,9 °C 3,2 km/h (1 Bft)
21.12.2018 10:13 0,9 °C 83 % 1018,1 hPa 0,0 mm 0,1 km/h (0 Bft) N 355 ° 0 min 0,000 mm 0,0 UV-I 54 W/m² -1,7 °C 0,9 °C 1,6 km/h (1 Bft)
21.12.2018 10:14 1,0 °C 83 % 1018,1 hPa 0,0 mm 0,0 km/h (0 Bft) N 355 ° 0 min 0,000 mm 0,0 UV-I 54 W/m² -1,6 °C 1,0 °C 0,0 km/h (0 Bft)
21.12.2018 10:15 1,0 °C 83 % 1018,0 hPa 0,0 mm 0,1 km/h (0 Bft) N 355 ° 0 min 0,000 mm 0,0 UV-I 54 W/m² -1,6 °C 1,0 °C 1,6 km/h (1 Bft)
21.12.2018 10:16 1,1 °C 82 % 1018,1 hPa 0,0 mm 0,0 km/h (0 Bft) N 355 ° 0 min 0,000 mm 0,0 UV-I 53 W/m² -1,6 °C 1,1 °C 0,0 km/h (0 Bft)
21.12.2018 10:17 1,1 °C 82 % 1018,0 hPa 0,0 mm 0,0 km/h (0 Bft) N 355 ° 0 min 0,000 mm 0,0 UV-I 53 W/m² -1,6 °C 1,1 °C 0,0 km/h (0 Bft)
21.12.2018 10:18 1,1 °C 82 % 1018,0 hPa 0,0 mm 0,0 km/h (0 Bft) N 355 ° 0 min 0,000 mm 0,0 UV-I 51 W/m² -1,6 °C 1,1 °C 0,0 km/h (0 Bft)
21.12.2018 10:19 1,1 °C 82 % 1018,1 hPa 0,0 mm 0,0 km/h (0 Bft) N 355 ° 0 min 0,000 mm 0,0 UV-I 51 W/m² -1,6 °C 1,1 °C 0,0 km/h (0 Bft)
21.12.2018 10:20 1,1 °C 82 % 1018,0 hPa 0,0 mm 0,0 km/h (0 Bft) N 355 ° 0 min 0,000 mm 0,0 UV-I 49 W/m² -1,6 °C 1,1 °C 0,0 km/h (0 Bft)
21.12.2018 10:21 1,2 °C 82 % 1018,2 hPa 0,0 mm 0,0 km/h (0 Bft) N 355 ° 0 min 0,000 mm 0,0 UV-I 49 W/m² -1,5 °C 1,2 °C 0,0 km/h (0 Bft)
21.12.2018 10:22 1,2 °C 82 % 1018,1 hPa 0,0 mm 0,0 km/h (0 Bft) N 355 ° 0 min 0,000 mm 0,0 UV-I 49 W/m² -1,5 °C 1,2 °C 0,0 km/h (0 Bft)
21.12.2018 10:23 1,2 °C 82 % 1018,1 hPa 0,0 mm 0,0 km/h (0 Bft) N 355 ° 0 min 0,000 mm 0,0 UV-I 49 W/m² -1,5 °C 1,2 °C 0,0 km/h (0 Bft)
21.12.2018 10:24 1,3 °C 82 % 1018,1 hPa 0,0 mm 0,3 km/h (0 Bft) N 355 ° 0 min 0,000 mm 0,0 UV-I 49 W/m² -1,4 °C 1,3 °C 1,6 km/h (1 Bft)
21.12.2018 10:25 1,3 °C 82 % 1018,1 hPa 0,0 mm 0,7 km/h (0 Bft) N 355 ° 0 min 0,000 mm 0,0 UV-I 51 W/m² -1,4 °C 1,3 °C 1,6 km/h (1 Bft)
21.12.2018 10:26 1,3 °C 82 % 1018,1 hPa 0,0 mm 0,9 km/h (0 Bft) N 355 ° 0 min 0,000 mm 0,0 UV-I 51 W/m² -1,4 °C 1,3 °C 1,6 km/h (1 Bft)
21.12.2018 10:27 1,3 °C 81 % 1018,1 hPa 0,0 mm 0,3 km/h (0 Bft) N 355 ° 0 min 0,000 mm 0,0 UV-I 49 W/m² -1,6 °C 1,3 °C 1,6 km/h (1 Bft)
21.12.2018 10:28 1,3 °C 81 % 1018,1 hPa 0,0 mm 0,6 km/h (0 Bft) N 355 ° 0 min 0,000 mm 0,0 UV-I 49 W/m² -1,6 °C 1,3 °C 1,6 km/h (1 Bft)
21.12.2018 10:29 1,4 °C 81 % 1018,1 hPa 0,0 mm 2,1 km/h (1 Bft) W-NW 293 ° 0 min 0,000 mm 0,0 UV-I 51 W/m² -1,5 °C 1,4 °C 4,8 km/h (1 Bft)
21.12.2018 10:30 1,4 °C 81 % 1018,1 hPa 0,0 mm 3,2 km/h (1 Bft) W 269 ° 0 min 0,000 mm 0,0 UV-I 53 W/m² -1,5 °C 1,4 °C 6,4 km/h (2 Bft)
21.12.2018 10:31 1,4 °C 81 % 1018,0 hPa 0,0 mm 3,6 km/h (1 Bft) W-NW 283 ° 0 min 0,000 mm 0,0 UV-I 54 W/m² -1,5 °C 1,4 °C 6,4 km/h (2 Bft)
21.12.2018 10:32 1,4 °C 80 % 1018,1 hPa 0,0 mm 2,9 km/h (1 Bft) W-NW 282 ° 0 min 0,000 mm 0,0 UV-I 56 W/m² -1,7 °C 1,4 °C 6,4 km/h (2 Bft)
21.12.2018 10:33 1,4 °C 80 % 1018,1 hPa 0,0 mm 4,5 km/h (1 Bft) W 279 ° 0 min 0,000 mm 0,0 UV-I 54 W/m² -1,7 °C 1,4 °C 11,3 km/h (2 Bft)
21.12.2018 10:34 1,5 °C 80 % 1018,1 hPa 0,0 mm 3,8 km/h (1 Bft) W 262 ° 0 min 0,000 mm 0,0 UV-I 56 W/m² -1,6 °C 1,5 °C 4,8 km/h (1 Bft)
21.12.2018 10:35 1,6 °C 80 % 1018,1 hPa 0,0 mm 4,1 km/h (1 Bft) W 271 ° 0 min 0,000 mm 0,0 UV-I 56 W/m² -1,5 °C 1,6 °C 6,4 km/h (2 Bft)
21.12.2018 10:36 1,6 °C 80 % 1018,1 hPa 0,0 mm 5,3 km/h (1 Bft) W 269 ° 0 min 0,000 mm 0,0 UV-I 54 W/m² -1,5 °C 0,1 °C 6,4 km/h (2 Bft)
21.12.2018 10:37 1,6 °C 79 % 1018,1 hPa 0,0 mm 5,1 km/h (1 Bft) W-NW 286 ° 0 min 0,000 mm 0,0 UV-I 54 W/m² -1,6 °C 0,2 °C 11,3 km/h (2 Bft)
21.12.2018 10:38 1,7 °C 79 % 1018,1 hPa 0,0 mm 8,6 km/h (2 Bft) W 276 ° 0 min 0,000 mm 0,0 UV-I 54 W/m² -1,5 °C -0,9 °C 11,3 km/h (2 Bft)
21.12.2018 10:39 1,8 °C 77 % 1018,1 hPa 0,0 mm 5,4 km/h (1 Bft) W 275 ° 0 min 0,000 mm 0,0 UV-I 54 W/m² -1,8 °C 0,3 °C 9,7 km/h (2 Bft)
21.12.2018 10:40 1,9 °C 75 % 1018,1 hPa 0,0 mm 5,8 km/h (2 Bft) W 275 ° 0 min 0,000 mm 0,0 UV-I 51 W/m² -2,1 °C 0,2 °C 11,3 km/h (2 Bft)
21.12.2018 10:41 2,0 °C 75 % 1018,1 hPa 0,0 mm 9,1 km/h (2 Bft) W-NW 298 ° 0 min 0,000 mm 0,0 UV-I 49 W/m² -2,0 °C -0,7 °C 12,9 km/h (3 Bft)
21.12.2018 10:42 2,1 °C 74 % 1018,0 hPa 0,0 mm 6,4 km/h (2 Bft) W 261 ° 0 min 0,000 mm 0,0 UV-I 49 W/m² -2,0 °C 0,2 °C 11,3 km/h (2 Bft)
21.12.2018 10:43 2,2 °C 73 % 1018,0 hPa 0,0 mm 8,0 km/h (2 Bft) W-NW 288 ° 0 min 0,000 mm 0,0 UV-I 47 W/m² -2,1 °C -0,2 °C 14,5 km/h (3 Bft)
21.12.2018 10:44 2,4 °C 71 % 1018,0 hPa 0,0 mm 10,5 km/h (2 Bft) W-SW 246 ° 0 min 0,000 mm 0,0 UV-I 49 W/m² -2,3 °C -0,6 °C 19,3 km/h (3 Bft)
21.12.2018 10:45 2,6 °C 71 % 1018,0 hPa 0,0 mm 11,0 km/h (2 Bft) W 262 ° 0 min 0,000 mm 0,0 UV-I 47 W/m² -2,1 °C -0,4 °C 17,7 km/h (3 Bft)
21.12.2018 10:46 2,7 °C 70 % 1018,0 hPa 0,0 mm 9,5 km/h (2 Bft) W-SW 247 ° 0 min 0,000 mm 0,0 UV-I 47 W/m² -2,2 °C 0,0 °C 12,9 km/h (3 Bft)
21.12.2018 10:47 2,8 °C 70 % 1017,9 hPa 0,0 mm 10,3 km/h (2 Bft) W-NW 291 ° 0 min 0,000 mm 0,0 UV-I 47 W/m² -2,1 °C -0,0 °C 16,1 km/h (3 Bft)
21.12.2018 10:48 2,9 °C 69 % 1017,9 hPa 0,0 mm 8,7 km/h (2 Bft) W 265 ° 0 min 0,000 mm 0,0 UV-I 46 W/m² -2,2 °C 0,5 °C 14,5 km/h (3 Bft)
21.12.2018 10:49 3,1 °C 69 % 1017,8 hPa 0,0 mm 7,1 km/h (2 Bft) W-NW 289 ° 0 min 0,000 mm 0,0 UV-I 46 W/m² -2,0 °C 1,2 °C 9,7 km/h (2 Bft)
21.12.2018 10:50 3,2 °C 68 % 1017,9 hPa 0,0 mm 9,3 km/h (2 Bft) W-NW 286 ° 0 min 0,000 mm 0,0 UV-I 47 W/m² -2,1 °C 0,7 °C 17,7 km/h (3 Bft)
21.12.2018 10:51 3,3 °C 68 % 1017,8 hPa 0,0 mm 9,7 km/h (2 Bft) W 270 ° 0 min 0,000 mm 0,0 UV-I 46 W/m² -2,0 °C 0,7 °C 12,9 km/h (3 Bft)
21.12.2018 10:52 3,5 °C 68 % 1017,9 hPa 0,0 mm 10,5 km/h (2 Bft) W 259 ° 0 min 0,000 mm 0,0 UV-I 44 W/m² -1,8 °C 0,8 °C 14,5 km/h (3 Bft)
21.12.2018 10:53 3,6 °C 67 % 1017,9 hPa 0,0 mm 11,7 km/h (2 Bft) W-SW 258 ° 0 min 0,000 mm 0,0 UV-I 44 W/m² -1,9 °C 0,6 °C 16,1 km/h (3 Bft)
21.12.2018 10:54 3,7 °C 67 % 1017,9 hPa 0,0 mm 15,6 km/h (3 Bft) W-SW 252 ° 0 min 0,000 mm 0,0 UV-I 42 W/m² -1,8 °C 0,0 °C 20,9 km/h (4 Bft)
21.12.2018 10:55 3,8 °C 66 % 1017,8 hPa 0,0 mm 8,6 km/h (2 Bft) W 261 ° 0 min 0,000 mm 0,0 UV-I 42 W/m² -2,0 °C 1,6 °C 12,9 km/h (3 Bft)
21.12.2018 10:56 3,9 °C 67 % 1017,8 hPa 0,0 mm 10,2 km/h (2 Bft) W 264 ° 0 min 0,000 mm 0,0 UV-I 42 W/m² -1,7 °C 1,3 °C 14,5 km/h (3 Bft)
21.12.2018 10:57 3,9 °C 66 % 1017,9 hPa 0,0 mm 12,9 km/h (3 Bft) W 267 ° 0 min 0,000 mm 0,0 UV-I 44 W/m² -1,9 °C 0,8 °C 16,1 km/h (3 Bft)
21.12.2018 10:58 4,0 °C 66 % 1017,9 hPa 0,0 mm 13,0 km/h (3 Bft) W-NW 303 ° 0 min 0,000 mm 0,0 UV-I 42 W/m² -1,8 °C 0,9 °C 17,7 km/h (3 Bft)
21.12.2018 10:59 4,1 °C 66 % 1017,9 hPa 0,0 mm 9,5 km/h (2 Bft) W 260 ° 0 min 0,000 mm 0,0 UV-I 42 W/m² -1,7 °C 1,7 °C 17,7 km/h (3 Bft)
21.12.2018 11:00 4,1 °C 66 % 1017,9 hPa 0,0 mm 12,4 km/h (3 Bft) W 281 ° 0 min 0,000 mm 0,0 UV-I 40 W/m² -1,7 °C 1,1 °C 17,7 km/h (3 Bft)
21.12.2018 11:01 4,2 °C 66 % 1017,8 hPa 0,0 mm 8,0 km/h (2 Bft) W-SW 254 ° 0 min 0,026 mm 0,0 UV-I 37 W/m² -1,6 °C 2,2 °C 12,9 km/h (3 Bft)
21.12.2018 11:02 4,2 °C 66 % 1017,7 hPa 0,0 mm 7,7 km/h (2 Bft) W-SW 239 ° 0 min 0,000 mm 0,0 UV-I 37 W/m² -1,6 °C 2,3 °C 12,9 km/h (3 Bft)
21.12.2018 11:03 4,2 °C 65 % 1017,7 hPa 0,0 mm 9,7 km/h (2 Bft) W 259 ° 0 min 0,000 mm 0,0 UV-I 39 W/m² -1,8 °C 1,8 °C 14,5 km/h (3 Bft)
21.12.2018 11:04 4,2 °C 66 % 1017,6 hPa 0,0 mm 6,4 km/h (2 Bft) W-NW 285 ° 0 min 0,000 mm 0,0 UV-I 39 W/m² -1,6 °C 2,7 °C 11,3 km/h (2 Bft)
21.12.2018 11:05 4,3 °C 65 % 1017,5 hPa 0,0 mm 7,9 km/h (2 Bft) W-NW 285 ° 0 min 0,000 mm 0,0 UV-I 40 W/m² -1,7 °C 2,3 °C 14,5 km/h (3 Bft)
21.12.2018 11:06 4,3 °C 64 % 1017,4 hPa 0,0 mm 7,9 km/h (2 Bft) W 259 ° 0 min 0,000 mm 0,0 UV-I 42 W/m² -1,9 °C 2,3 °C 11,3 km/h (2 Bft)
21.12.2018 11:07 4,3 °C 64 % 1017,5 hPa 0,0 mm 6,6 km/h (2 Bft) W 261 ° 0 min 0,000 mm 0,0 UV-I 42 W/m² -1,9 °C 2,7 °C 9,7 km/h (2 Bft)
21.12.2018 11:08 4,4 °C 64 % 1017,4 hPa 0,0 mm 2,5 km/h (1 Bft) W-SW 246 ° 0 min 0,000 mm 0,0 UV-I 44 W/m² -1,8 °C 4,4 °C 6,4 km/h (2 Bft)
21.12.2018 11:09 4,4 °C 64 % 1017,3 hPa 0,0 mm 3,5 km/h (1 Bft) W-SW 248 ° 0 min 0,000 mm 0,0 UV-I 47 W/m² -1,8 °C 4,4 °C 4,8 km/h (1 Bft)
21.12.2018 11:10 4,4 °C 64 % 1017,4 hPa 0,0 mm 3,6 km/h (1 Bft) W-NW 292 ° 0 min 0,000 mm 0,0 UV-I 47 W/m² -1,8 °C 4,4 °C 9,7 km/h (2 Bft)
21.12.2018 11:11 4,4 °C 64 % 1017,4 hPa 0,0 mm 4,1 km/h (1 Bft) S-SW 207 ° 0 min 0,000 mm 0,0 UV-I 49 W/m² -1,8 °C 4,4 °C 11,3 km/h (2 Bft)
21.12.2018 11:12 4,5 °C 64 % 1017,3 hPa 0,0 mm 3,5 km/h (1 Bft) S-SW 201 ° 0 min 0,000 mm 0,0 UV-I 51 W/m² -1,7 °C 4,5 °C 4,8 km/h (1 Bft)
21.12.2018 11:13 4,6 °C 63 % 1017,4 hPa 0,0 mm 6,7 km/h (2 Bft) S-SW 192 ° 0 min 0,000 mm 0,0 UV-I 49 W/m² -1,8 °C 3,0 °C 11,3 km/h (2 Bft)
21.12.2018 11:14 4,6 °C 62 % 1017,4 hPa 0,0 mm 7,4 km/h (2 Bft) S-SW 200 ° 0 min 0,000 mm 0,0 UV-I 49 W/m² -2,0 °C 2,8 °C 11,3 km/h (2 Bft)
21.12.2018 11:15 4,6 °C 63 % 1017,4 hPa 0,0 mm 2,8 km/h (1 Bft) S 187 ° 0 min 0,000 mm 0,0 UV-I 49 W/m² -1,8 °C 4,6 °C 6,4 km/h (2 Bft)
21.12.2018 11:16 4,7 °C 65 % 1017,4 hPa 0,0 mm 0,0 km/h (0 Bft) S 187 ° 0 min 0,000 mm 0,0 UV-I 49 W/m² -1,3 °C 4,7 °C 0,0 km/h (0 Bft)
21.12.2018 11:17 4,7 °C 65 % 1017,2 hPa 0,0 mm 1,4 km/h (1 Bft) S 183 ° 0 min 0,000 mm 0,0 UV-I 47 W/m² -1,3 °C 4,7 °C 3,2 km/h (1 Bft)
21.12.2018 11:18 4,7 °C 65 % 1017,1 hPa 0,0 mm 4,3 km/h (1 Bft) S-SO 155 ° 0 min 0,000 mm 0,0 UV-I 47 W/m² -1,3 °C 4,7 °C 6,4 km/h (2 Bft)
21.12.2018 11:19 4,7 °C 65 % 1017,2 hPa 0,0 mm 0,7 km/h (0 Bft) S-SO 155 ° 0 min 0,000 mm 0,0 UV-I 49 W/m² -1,3 °C 4,7 °C 3,2 km/h (1 Bft)
21.12.2018 11:20 4,7 °C 65 % 1017,2 hPa 0,0 mm 0,3 km/h (0 Bft) S 186 ° 0 min 0,000 mm 0,0 UV-I 49 W/m² -1,3 °C 4,7 °C 1,6 km/h (1 Bft)
21.12.2018 11:21 4,7 °C 64 % 1017,2 hPa 0,0 mm 2,3 km/h (1 Bft) SW 220 ° 0 min 0,000 mm 0,0 UV-I 51 W/m² -1,5 °C 4,7 °C 3,2 km/h (1 Bft)
21.12.2018 11:22 4,8 °C 65 % 1017,1 hPa 0,0 mm 0,7 km/h (0 Bft) SW 220 ° 0 min 0,000 mm 0,0 UV-I 53 W/m² -1,2 °C 4,8 °C 3,2 km/h (1 Bft)
21.12.2018 11:23 4,7 °C 65 % 1017,1 hPa 0,0 mm 0,0 km/h (0 Bft) SW 219 ° 0 min 0,000 mm 0,0 UV-I 54 W/m² -1,3 °C 4,7 °C 0,0 km/h (0 Bft)
21.12.2018 11:24 4,8 °C 65 % 1017,0 hPa 0,0 mm 0,0 km/h (0 Bft) SW 219 ° 0 min 0,000 mm 0,0 UV-I 54 W/m² -1,2 °C 4,8 °C 0,0 km/h (0 Bft)
21.12.2018 11:25 4,7 °C 65 % 1017,0 hPa 0,0 mm 0,0 km/h (0 Bft) SW 219 ° 0 min 0,000 mm 0,0 UV-I 53 W/m² -1,3 °C 4,7 °C 0,0 km/h (0 Bft)
21.12.2018 11:26 4,8 °C 65 % 1016,9 hPa 0,0 mm 0,0 km/h (0 Bft) SW 219 ° 0 min 0,000 mm 0,0 UV-I 53 W/m² -1,2 °C 4,8 °C 0,0 km/h (0 Bft)
21.12.2018 11:27 4,7 °C 64 % 1016,9 hPa 0,0 mm 0,0 km/h (0 Bft) SW 219 ° 0 min 0,000 mm 0,0 UV-I 53 W/m² -1,5 °C 4,7 °C 0,0 km/h (0 Bft)
21.12.2018 11:28 4,8 °C 64 % 1016,9 hPa 0,0 mm 0,0 km/h (0 Bft) SW 219 ° 0 min 0,000 mm 0,0 UV-I 53 W/m² -1,4 °C 4,8 °C 0,0 km/h (0 Bft)
21.12.2018 11:29 4,7 °C 64 % 1016,8 hPa 0,0 mm 0,0 km/h (0 Bft) SW 219 ° 0 min 0,000 mm 0,0 UV-I 54 W/m² -1,5 °C 4,7 °C 0,0 km/h (0 Bft)
21.12.2018 11:30 4,7 °C 63 % 1016,8 hPa 0,0 mm 0,0 km/h (0 Bft) SW 219 ° 0 min 0,000 mm 0,0 UV-I 53 W/m² -1,7 °C 4,7 °C 0,0 km/h (0 Bft)
21.12.2018 11:31 4,7 °C 64 % 1016,7 hPa 0,0 mm 0,0 km/h (0 Bft) SW 219 ° 0 min 0,000 mm 0,0 UV-I 49 W/m² -1,5 °C 4,7 °C 0,0 km/h (0 Bft)
21.12.2018 11:32 4,7 °C 64 % 1016,7 hPa 0,0 mm 0,0 km/h (0 Bft) SW 219 ° 0 min 0,000 mm 0,0 UV-I 46 W/m² -1,5 °C 4,7 °C 0,0 km/h (0 Bft)
21.12.2018 11:33 4,8 °C 64 % 1016,8 hPa 0,0 mm 0,0 km/h (0 Bft) SW 219 ° 0 min 0,000 mm 0,0 UV-I 42 W/m² -1,4 °C 4,8 °C 0,0 km/h (0 Bft)
21.12.2018 11:34 4,7 °C 65 % 1016,7 hPa 0,0 mm 0,0 km/h (0 Bft) SW 219 ° 0 min 0,000 mm 0,0 UV-I 46 W/m² -1,3 °C 4,7 °C 0,0 km/h (0 Bft)
21.12.2018 11:35 4,7 °C 65 % 1016,7 hPa 0,0 mm 0,0 km/h (0 Bft) SW 219 ° 0 min 0,000 mm 0,0 UV-I 47 W/m² -1,3 °C 4,7 °C 0,0 km/h (0 Bft)
21.12.2018 11:36 4,7 °C 66 % 1016,7 hPa 0,0 mm 0,0 km/h (0 Bft) SW 219 ° 0 min 0,000 mm 0,0 UV-I 47 W/m² -1,1 °C 4,7 °C 0,0 km/h (0 Bft)
21.12.2018 11:37 4,7 °C 66 % 1016,7 hPa 0,0 mm 0,0 km/h (0 Bft) SW 219 ° 0 min 0,000 mm 0,0 UV-I 47 W/m² -1,1 °C 4,7 °C 0,0 km/h (0 Bft)
21.12.2018 11:38 4,7 °C 65 % 1016,8 hPa 0,0 mm 0,0 km/h (0 Bft) SW 219 ° 0 min 0,000 mm 0,0 UV-I 47 W/m² -1,3 °C 4,7 °C 0,0 km/h (0 Bft)
21.12.2018 11:39 4,7 °C 65 % 1016,8 hPa 0,0 mm 0,0 km/h (0 Bft) SW 219 ° 0 min 0,000 mm 0,0 UV-I 46 W/m² -1,3 °C 4,7 °C 0,0 km/h (0 Bft)
21.12.2018 11:40 4,7 °C 66 % 1016,7 hPa 0,0 mm 0,0 km/h (0 Bft) SW 219 ° 0 min 0,000 mm 0,0 UV-I 46 W/m² -1,1 °C 4,7 °C 0,0 km/h (0 Bft)
21.12.2018 11:41 4,7 °C 66 % 1016,7 hPa 0,0 mm 0,0 km/h (0 Bft) SW 219 ° 0 min 0,000 mm 0,0 UV-I 44 W/m² -1,1 °C 4,7 °C 0,0 km/h (0 Bft)
21.12.2018 11:42 4,7 °C 66 % 1016,6 hPa 0,0 mm 0,0 km/h (0 Bft) SW 219 ° 0 min 0,000 mm 0,0 UV-I 42 W/m² -1,1 °C 4,7 °C 0,0 km/h (0 Bft)
21.12.2018 11:43 4,7 °C 68 % 1016,5 hPa 0,0 mm 0,0 km/h (0 Bft) SW 219 ° 0 min 0,000 mm 0,0 UV-I 44 W/m² -0,7 °C 4,7 °C 0,0 km/h (0 Bft)
21.12.2018 11:44 4,7 °C 68 % 1016,5 hPa 0,0 mm 0,0 km/h (0 Bft) SW 219 ° 0 min 0,000 mm 0,0 UV-I 46 W/m² -0,7 °C 4,7 °C 0,0 km/h (0 Bft)
21.12.2018 11:45 4,7 °C 67 % 1016,4 hPa 0,0 mm 0,0 km/h (0 Bft) SW 219 ° 0 min 0,000 mm 0,0 UV-I 47 W/m² -0,9 °C 4,7 °C 0,0 km/h (0 Bft)
21.12.2018 11:46 4,7 °C 66 % 1016,4 hPa 0,0 mm 0,0 km/h (0 Bft) SW 219 ° 0 min 0,000 mm 0,0 UV-I 47 W/m² -1,1 °C 4,7 °C 0,0 km/h (0 Bft)
21.12.2018 11:47 4,6 °C 65 % 1016,4 hPa 0,0 mm 0,0 km/h (0 Bft) SW 219 ° 0 min 0,000 mm 0,0 UV-I 47 W/m² -1,4 °C 4,6 °C 0,0 km/h (0 Bft)
21.12.2018 11:48 4,6 °C 64 % 1016,3 hPa 0,0 mm 2,1 km/h (1 Bft) SW 219 ° 0 min 0,000 mm 0,0 UV-I 46 W/m² -1,6 °C 4,6 °C 4,8 km/h (1 Bft)
21.12.2018 11:49 4,6 °C 65 % 1016,2 hPa 0,0 mm 0,9 km/h (0 Bft) SW 219 ° 0 min 0,000 mm 0,0 UV-I 46 W/m² -1,4 °C 4,6 °C 3,2 km/h (1 Bft)
21.12.2018 11:50 4,6 °C 64 % 1016,2 hPa 0,0 mm 0,9 km/h (0 Bft) SW 219 ° 0 min 0,000 mm 0,0 UV-I 46 W/m² -1,6 °C 4,6 °C 3,2 km/h (1 Bft)
21.12.2018 11:51 4,6 °C 64 % 1016,2 hPa 0,0 mm 0,9 km/h (0 Bft) SW 219 ° 0 min 0,000 mm 0,0 UV-I 46 W/m² -1,6 °C 4,6 °C 3,2 km/h (1 Bft)
21.12.2018 11:52 4,6 °C 64 % 1016,1 hPa 0,0 mm 0,0 km/h (0 Bft) SW 219 ° 0 min 0,000 mm 0,0 UV-I 46 W/m² -1,6 °C 4,6 °C 0,0 km/h (0 Bft)
21.12.2018 11:53 4,6 °C 65 % 1016,2 hPa 0,0 mm 0,7 km/h (0 Bft) SW 219 ° 0 min 0,000 mm 0,0 UV-I 46 W/m² -1,4 °C 4,6 °C 3,2 km/h (1 Bft)
21.12.2018 11:54 4,6 °C 66 % 1016,2 hPa 0,0 mm 1,8 km/h (1 Bft) SW 219 ° 0 min 0,000 mm 0,0 UV-I 46 W/m² -1,2 °C 4,6 °C 3,2 km/h (1 Bft)
21.12.2018 11:55 4,6 °C 67 % 1016,1 hPa 0,0 mm 1,0 km/h (0 Bft) SW 219 ° 0 min 0,000 mm 0,0 UV-I 47 W/m² -1,0 °C 4,6 °C 1,6 km/h (1 Bft)
21.12.2018 11:56 4,6 °C 67 % 1016,1 hPa 0,0 mm 0,3 km/h (0 Bft) SW 219 ° 0 min 0,000 mm 0,0 UV-I 49 W/m² -1,0 °C 4,6 °C 3,2 km/h (1 Bft)
21.12.2018 11:57 4,6 °C 68 % 1015,9 hPa 0,0 mm 4,2 km/h (1 Bft) SW 218 ° 0 min 0,000 mm 0,0 UV-I 49 W/m² -0,8 °C 4,6 °C 4,8 km/h (1 Bft)
21.12.2018 11:58 4,6 °C 68 % 1015,9 hPa 0,0 mm 4,0 km/h (1 Bft) SW 218 ° 0 min 0,000 mm 0,0 UV-I 47 W/m² -0,8 °C 4,6 °C 4,8 km/h (1 Bft)
21.12.2018 11:59 4,6 °C 68 % 1015,8 hPa 0,0 mm 0,5 km/h (0 Bft) SW 218 ° 0 min 0,000 mm 0,0 UV-I 47 W/m² -0,8 °C 4,6 °C 3,2 km/h (1 Bft)
21.12.2018 12:00 4,6 °C 68 % 1015,7 hPa 0,0 mm 0,0 km/h (0 Bft) SW 219 ° 0 min 0,000 mm 0,0 UV-I 46 W/m² -0,8 °C 4,6 °C 0,0 km/h (0 Bft)
21.12.2018 12:01 4,5 °C 69 % 1015,8 hPa 0,0 mm 0,0 km/h (0 Bft) SW 219 ° 0 min 0,025 mm 0,0 UV-I 46 W/m² -0,7 °C 4,5 °C 0,0 km/h (0 Bft)
21.12.2018 12:02 4,5 °C 69 % 1015,8 hPa 0,0 mm 0,0 km/h (0 Bft) SW 219 ° 0 min 0,000 mm 0,0 UV-I 44 W/m² -0,7 °C 4,5 °C 0,0 km/h (0 Bft)
21.12.2018 12:03 4,5 °C 69 % 1015,7 hPa 0,0 mm 0,0 km/h (0 Bft) SW 219 ° 0 min 0,000 mm 0,0 UV-I 44 W/m² -0,7 °C 4,5 °C 0,0 km/h (0 Bft)
21.12.2018 12:04 4,5 °C 70 % 1015,6 hPa 0,0 mm 0,0 km/h (0 Bft) SW 218 ° 0 min 0,000 mm 0,0 UV-I 44 W/m² -0,5 °C 4,5 °C 0,0 km/h (0 Bft)
21.12.2018 12:05 4,5 °C 70 % 1015,5 hPa 0,0 mm 0,0 km/h (0 Bft) SW 219 ° 0 min 0,000 mm 0,0 UV-I 44 W/m² -0,5 °C 4,5 °C 0,0 km/h (0 Bft)
21.12.2018 12:06 4,5 °C 70 % 1015,6 hPa 0,0 mm 0,0 km/h (0 Bft) SW 219 ° 0 min 0,000 mm 0,0 UV-I 44 W/m² -0,5 °C 4,5 °C 0,0 km/h (0 Bft)
21.12.2018 12:07 4,4 °C 70 % 1015,5 hPa 0,0 mm 0,0 km/h (0 Bft) SW 218 ° 0 min 0,000 mm 0,0 UV-I 47 W/m² -0,6 °C 4,4 °C 0,0 km/h (0 Bft)
21.12.2018 12:08 4,4 °C 71 % 1015,5 hPa 0,0 mm 0,0 km/h (0 Bft) SW 218 ° 0 min 0,000 mm 0,0 UV-I 51 W/m² -0,4 °C 4,4 °C 0,0 km/h (0 Bft)
21.12.2018 12:09 4,4 °C 72 % 1015,2 hPa 0,0 mm 0,0 km/h (0 Bft) SW 219 ° 0 min 0,000 mm 0,0 UV-I 49 W/m² -0,2 °C 4,4 °C 0,0 km/h (0 Bft)
21.12.2018 12:10 4,4 °C 72 % 1015,1 hPa 0,0 mm 0,0 km/h (0 Bft) SW 218 ° 0 min 0,000 mm 0,0 UV-I 51 W/m² -0,2 °C 4,4 °C 0,0 km/h (0 Bft)
21.12.2018 12:11 4,3 °C 72 % 1015,1 hPa 0,0 mm 0,0 km/h (0 Bft) SW 219 ° 0 min 0,000 mm 0,0 UV-I 53 W/m² -0,3 °C 4,3 °C 0,0 km/h (0 Bft)
21.12.2018 12:12 4,3 °C 73 % 1015,0 hPa 0,0 mm 0,0 km/h (0 Bft) SW 219 ° 0 min 0,000 mm 0,0 UV-I 51 W/m² -0,1 °C 4,3 °C 0,0 km/h (0 Bft)
21.12.2018 12:13 4,3 °C 73 % 1015,0 hPa 0,0 mm 0,0 km/h (0 Bft) SW 219 ° 0 min 0,000 mm 0,0 UV-I 53 W/m² -0,1 °C 4,3 °C 0,0 km/h (0 Bft)
21.12.2018 12:14 4,3 °C 73 % 1015,0 hPa 0,0 mm 0,0 km/h (0 Bft) SW 219 ° 0 min 0,000 mm 0,0 UV-I 54 W/m² -0,1 °C 4,3 °C 0,0 km/h (0 Bft)
21.12.2018 12:15 4,3 °C 73 % 1015,1 hPa 0,0 mm 2,6 km/h (1 Bft) SW 219 ° 0 min 0,000 mm 0,0 UV-I 51 W/m² -0,1 °C 4,3 °C 4,8 km/h (1 Bft)
21.12.2018 12:16 4,3 °C 73 % 1015,2 hPa 0,0 mm 3,0 km/h (1 Bft) SW 219 ° 0 min 0,000 mm 0,0 UV-I 54 W/m² -0,1 °C 4,3 °C 4,8 km/h (1 Bft)
21.12.2018 12:17 4,2 °C 72 % 1015,0 hPa 0,0 mm 3,5 km/h (1 Bft) SW 218 ° 0 min 0,000 mm 0,0 UV-I 58 W/m² -0,4 °C 4,2 °C 4,8 km/h (1 Bft)
21.12.2018 12:18 4,2 °C 73 % 1014,8 hPa 0,0 mm 4,2 km/h (1 Bft) O-SO 111 ° 0 min 0,000 mm 0,0 UV-I 58 W/m² -0,2 °C 4,2 °C 4,8 km/h (1 Bft)
21.12.2018 12:19 4,2 °C 73 % 1014,8 hPa 0,0 mm 2,8 km/h (1 Bft) O-SO 111 ° 0 min 0,000 mm 0,0 UV-I 56 W/m² -0,2 °C 4,2 °C 4,8 km/h (1 Bft)
21.12.2018 12:20 4,2 °C 73 % 1014,9 hPa 0,0 mm 3,3 km/h (1 Bft) SW 214 ° 0 min 0,000 mm 0,0 UV-I 56 W/m² -0,2 °C 4,2 °C 4,8 km/h (1 Bft)
21.12.2018 12:21 4,2 °C 73 % 1014,8 hPa 0,0 mm 2,3 km/h (1 Bft) SW 214 ° 0 min 0,000 mm 0,0 UV-I 51 W/m² -0,2 °C 4,2 °C 4,8 km/h (1 Bft)
21.12.2018 12:22 4,1 °C 72 % 1015,0 hPa 0,0 mm 3,2 km/h (1 Bft) SO 138 ° 0 min 0,000 mm 0,0 UV-I 49 W/m² -0,5 °C 4,1 °C 8,0 km/h (2 Bft)
21.12.2018 12:23 4,1 °C 71 % 1014,8 hPa 0,0 mm 5,3 km/h (1 Bft) SO 129 ° 0 min 0,000 mm 0,0 UV-I 51 W/m² -0,7 °C 2,9 °C 8,0 km/h (2 Bft)
21.12.2018 12:24 4,1 °C 71 % 1014,7 hPa 0,0 mm 1,6 km/h (1 Bft) NW 313 ° 0 min 0,000 mm 0,0 UV-I 53 W/m² -0,7 °C 4,1 °C 3,2 km/h (1 Bft)
21.12.2018 12:25 4,1 °C 71 % 1014,8 hPa 0,0 mm 5,2 km/h (1 Bft) W-NW 288 ° 0 min 0,000 mm 0,0 UV-I 51 W/m² -0,7 °C 3,0 °C 11,3 km/h (2 Bft)
21.12.2018 12:26 4,1 °C 72 % 1014,8 hPa 0,0 mm 1,4 km/h (1 Bft) W-NW 288 ° 0 min 0,000 mm 0,0 UV-I 54 W/m² -0,5 °C 4,1 °C 3,2 km/h (1 Bft)
21.12.2018 12:27 4,1 °C 72 % 1014,8 hPa 0,0 mm 1,3 km/h (1 Bft) NW 313 ° 0 min 0,000 mm 0,0 UV-I 63 W/m² -0,5 °C 4,1 °C 3,2 km/h (1 Bft)
21.12.2018 12:28 4,0 °C 72 % 1014,8 hPa 0,0 mm 3,9 km/h (1 Bft) N-NW 338 ° 0 min 0,000 mm 0,5 UV-I 70 W/m² -0,6 °C 4,0 °C 4,8 km/h (1 Bft)
21.12.2018 12:29 4,0 °C 74 % 1014,8 hPa 0,0 mm 3,5 km/h (1 Bft) W-NW 286 ° 0 min 0,000 mm 0,5 UV-I 74 W/m² -0,2 °C 4,0 °C 6,4 km/h (2 Bft)
21.12.2018 12:30 4,0 °C 74 % 1015,0 hPa 0,0 mm 3,1 km/h (1 Bft) W-NW 282 ° 0 min 0,000 mm 0,5 UV-I 69 W/m² -0,2 °C 4,0 °C 6,4 km/h (2 Bft)
21.12.2018 12:31 4,0 °C 74 % 1014,9 hPa 0,0 mm 1,7 km/h (1 Bft) SO 145 ° 0 min 0,000 mm 0,0 UV-I 62 W/m² -0,2 °C 4,0 °C 4,8 km/h (1 Bft)
21.12.2018 12:32 3,9 °C 74 % 1014,6 hPa 0,0 mm 5,1 km/h (1 Bft) SO 139 ° 0 min 0,000 mm 0,0 UV-I 67 W/m² -0,3 °C 2,8 °C 8,0 km/h (2 Bft)
21.12.2018 12:33 3,9 °C 74 % 1014,7 hPa 0,0 mm 4,4 km/h (1 Bft) S 171 ° 0 min 0,000 mm 0,5 UV-I 77 W/m² -0,3 °C 3,9 °C 6,4 km/h (2 Bft)
21.12.2018 12:34 3,9 °C 74 % 1014,6 hPa 0,0 mm 7,4 km/h (2 Bft) S 171 ° 0 min 0,000 mm 0,5 UV-I 83 W/m² -0,3 °C 2,0 °C 8,0 km/h (2 Bft)
21.12.2018 12:35 3,9 °C 73 % 1014,5 hPa 0,0 mm 5,0 km/h (1 Bft) S-SO 150 ° 0 min 0,000 mm 0,6 UV-I 84 W/m² -0,5 °C 2,8 °C 6,4 km/h (2 Bft)
21.12.2018 12:36 3,9 °C 74 % 1014,7 hPa 0,0 mm 1,0 km/h (0 Bft) S-SO 150 ° 0 min 0,000 mm 0,6 UV-I 88 W/m² -0,3 °C 3,9 °C 1,6 km/h (1 Bft)
21.12.2018 12:37 3,9 °C 73 % 1014,5 hPa 0,0 mm 4,5 km/h (1 Bft) N-NO 32 ° 0 min 0,000 mm 0,6 UV-I 97 W/m² -0,5 °C 3,9 °C 6,4 km/h (2 Bft)
21.12.2018 12:38 3,9 °C 74 % 1014,6 hPa 0,0 mm 5,7 km/h (1 Bft) NW 308 ° 0 min 0,000 mm 0,7 UV-I 104 W/m² -0,3 °C 2,6 °C 8,0 km/h (2 Bft)
21.12.2018 12:39 3,9 °C 75 % 1014,6 hPa 0,0 mm 0,6 km/h (0 Bft) NW 307 ° 0 min 0,000 mm 0,7 UV-I 105 W/m² -0,1 °C 3,9 °C 1,6 km/h (1 Bft)
21.12.2018 12:40 3,9 °C 75 % 1014,6 hPa 0,0 mm 0,0 km/h (0 Bft) NW 307 ° 0 min 0,000 mm 0,7 UV-I 111 W/m² -0,1 °C 3,9 °C 0,0 km/h (0 Bft)
21.12.2018 12:41 3,9 °C 75 % 1014,5 hPa 0,0 mm 3,5 km/h (1 Bft) SO 142 ° 0 min 0,000 mm 0,7 UV-I 116 W/m² -0,1 °C 3,9 °C 4,8 km/h (1 Bft)
21.12.2018 12:42 3,9 °C 73 % 1014,5 hPa 0,0 mm 2,7 km/h (1 Bft) SO 142 ° 0 min 0,000 mm 0,7 UV-I 121 W/m² -0,5 °C 3,9 °C 3,2 km/h (1 Bft)
21.12.2018 12:43 3,8 °C 75 % 1014,4 hPa 0,0 mm 0,3 km/h (0 Bft) SO 142 ° 0 min 0,000 mm 0,8 UV-I 125 W/m² -0,2 °C 3,8 °C 1,6 km/h (1 Bft)
21.12.2018 12:44 3,8 °C 76 % 1014,5 hPa 0,0 mm 0,0 km/h (0 Bft) SO 142 ° 0 min 0,000 mm 0,8 UV-I 125 W/m² -0,0 °C 3,8 °C 0,0 km/h (0 Bft)
21.12.2018 12:45 3,7 °C 77 % 1014,4 hPa 0,0 mm 0,0 km/h (0 Bft) SO 142 ° 0 min 0,000 mm 0,7 UV-I 120 W/m² 0,1 °C 3,7 °C 0,0 km/h (0 Bft)
21.12.2018 12:46 3,6 °C 77 % 1014,4 hPa 0,0 mm 0,0 km/h (0 Bft) SO 142 ° 0 min 0,000 mm 0,7 UV-I 116 W/m² -0,0 °C 3,6 °C 0,0 km/h (0 Bft)
21.12.2018 12:47 3,6 °C 76 % 1014,5 hPa 0,0 mm 0,0 km/h (0 Bft) SO 142 ° 0 min 0,000 mm 0,7 UV-I 116 W/m² -0,2 °C 3,6 °C 0,0 km/h (0 Bft)
21.12.2018 12:48 3,6 °C 75 % 1014,5 hPa 0,0 mm 0,2 km/h (0 Bft) SO 142 ° 0 min 0,000 mm 0,7 UV-I 116 W/m² -0,4 °C 3,6 °C 3,2 km/h (1 Bft)
21.12.2018 12:49 3,8 °C 74 % 1014,5 hPa 0,0 mm 1,9 km/h (1 Bft) SO 142 ° 0 min 0,000 mm 0,7 UV-I 114 W/m² -0,4 °C 3,8 °C 3,2 km/h (1 Bft)
21.12.2018 12:50 3,9 °C 74 % 1014,5 hPa 0,0 mm 0,5 km/h (0 Bft) SO 142 ° 0 min 0,000 mm 0,7 UV-I 116 W/m² -0,3 °C 3,9 °C 3,2 km/h (1 Bft)
21.12.2018 12:51 3,9 °C 74 % 1014,3 hPa 0,0 mm 2,1 km/h (1 Bft) O 100 ° 0 min 0,000 mm 0,7 UV-I 114 W/m² -0,3 °C 3,9 °C 3,2 km/h (1 Bft)
21.12.2018 12:52 3,9 °C 77 % 1014,2 hPa 0,0 mm 0,7 km/h (0 Bft) O 100 ° 0 min 0,000 mm 0,7 UV-I 113 W/m² 0,2 °C 3,9 °C 3,2 km/h (1 Bft)
21.12.2018 12:53 3,8 °C 76 % 1014,4 hPa 0,0 mm 0,3 km/h (0 Bft) O-SO 102 ° 0 min 0,000 mm 0,7 UV-I 107 W/m² -0,0 °C 3,8 °C 1,6 km/h (1 Bft)
21.12.2018 12:54 3,9 °C 74 % 1014,3 hPa 0,0 mm 0,4 km/h (0 Bft) O-SO 102 ° 0 min 0,000 mm 0,6 UV-I 102 W/m² -0,3 °C 3,9 °C 1,6 km/h (1 Bft)
21.12.2018 12:55 3,9 °C 73 % 1014,4 hPa 0,0 mm 0,0 km/h (0 Bft) O-SO 102 ° 0 min 0,000 mm 0,6 UV-I 98 W/m² -0,5 °C 3,9 °C 0,0 km/h (0 Bft)
21.12.2018 12:56 4,0 °C 73 % 1014,3 hPa 0,0 mm 0,1 km/h (0 Bft) O-SO 102 ° 0 min 0,000 mm 0,6 UV-I 90 W/m² -0,4 °C 4,0 °C 1,6 km/h (1 Bft)
21.12.2018 12:57 4,0 °C 72 % 1014,4 hPa 0,0 mm 0,3 km/h (0 Bft) O-SO 102 ° 0 min 0,000 mm 0,6 UV-I 84 W/m² -0,6 °C 4,0 °C 1,6 km/h (1 Bft)
21.12.2018 12:58 4,0 °C 74 % 1014,4 hPa 0,0 mm 0,4 km/h (0 Bft) O-SO 102 ° 0 min 0,000 mm 0,5 UV-I 83 W/m² -0,2 °C 4,0 °C 3,2 km/h (1 Bft)
21.12.2018 12:59 3,9 °C 74 % 1014,4 hPa 0,0 mm 0,7 km/h (0 Bft) O-SO 102 ° 0 min 0,000 mm 0,5 UV-I 81 W/m² -0,3 °C 3,9 °C 3,2 km/h (1 Bft)
21.12.2018 13:00 3,9 °C 74 % 1014,2 hPa 0,0 mm 0,0 km/h (0 Bft) O-SO 102 ° 0 min 0,000 mm 0,5 UV-I 79 W/m² -0,3 °C 3,9 °C 0,0 km/h (0 Bft)
21.12.2018 13:01 3,9 °C 74 % 1014,3 hPa 0,0 mm 0,3 km/h (0 Bft) O-SO 102 ° 0 min 0,026 mm 0,5 UV-I 79 W/m² -0,3 °C 3,9 °C 1,6 km/h (1 Bft)
21.12.2018 13:02 3,8 °C 74 % 1014,2 hPa 0,0 mm 0,1 km/h (0 Bft) O-SO 102 ° 0 min 0,000 mm 0,5 UV-I 83 W/m² -0,4 °C 3,8 °C 1,6 km/h (1 Bft)
21.12.2018 13:03 3,8 °C 74 % 1014,3 hPa 0,0 mm 0,7 km/h (0 Bft) O-SO 102 ° 0 min 0,000 mm 0,5 UV-I 81 W/m² -0,4 °C 3,8 °C 1,6 km/h (1 Bft)
21.12.2018 13:04 3,8 °C 73 % 1014,1 hPa 0,0 mm 2,1 km/h (1 Bft) O-SO 102 ° 0 min 0,000 mm 0,5 UV-I 74 W/m² -0,6 °C 3,8 °C 3,2 km/h (1 Bft)
21.12.2018 13:05 3,9 °C 72 % 1014,2 hPa 0,0 mm 1,4 km/h (1 Bft) O-SO 102 ° 0 min 0,000 mm 0,0 UV-I 67 W/m² -0,7 °C 3,9 °C 3,2 km/h (1 Bft)
21.12.2018 13:06 4,1 °C 72 % 1014,1 hPa 0,0 mm 1,7 km/h (1 Bft) SO 135 ° 0 min 0,000 mm 0,0 UV-I 67 W/m² -0,5 °C 4,1 °C 4,8 km/h (1 Bft)
21.12.2018 13:07 4,3 °C 72 % 1014,3 hPa 0,0 mm 0,4 km/h (0 Bft) SO 135 ° 0 min 0,000 mm 0,0 UV-I 70 W/m² -0,3 °C 4,3 °C 1,6 km/h (1 Bft)
21.12.2018 13:08 4,3 °C 73 % 1014,1 hPa 0,0 mm 1,0 km/h (0 Bft) W 271 ° 0 min 0,000 mm 0,5 UV-I 72 W/m² -0,1 °C 4,3 °C 4,8 km/h (1 Bft)
21.12.2018 13:09 4,4 °C 72 % 1014,4 hPa 0,0 mm 3,6 km/h (1 Bft) W 264 ° 0 min 0,000 mm 0,5 UV-I 74 W/m² -0,2 °C 4,4 °C 4,8 km/h (1 Bft)
21.12.2018 13:10 4,4 °C 73 % 1014,1 hPa 0,0 mm 3,4 km/h (1 Bft) W 275 ° 0 min 0,000 mm 0,5 UV-I 72 W/m² -0,0 °C 4,4 °C 4,8 km/h (1 Bft)
21.12.2018 13:11 4,3 °C 73 % 1014,2 hPa 0,0 mm 1,5 km/h (1 Bft) W 275 ° 0 min 0,000 mm 0,0 UV-I 67 W/m² -0,1 °C 4,3 °C 3,2 km/h (1 Bft)
21.12.2018 13:12 4,3 °C 74 % 1014,3 hPa 0,0 mm 1,3 km/h (1 Bft) W 265 ° 0 min 0,000 mm 0,0 UV-I 65 W/m² 0,1 °C 4,3 °C 3,2 km/h (1 Bft)
21.12.2018 13:13 4,3 °C 75 % 1014,0 hPa 0,2 mm 1,2 km/h (1 Bft) W-SW 257 ° 0 min 0,000 mm 0,5 UV-I 65 W/m² 0,3 °C 4,3 °C 3,2 km/h (1 Bft)
21.12.2018 13:14 4,3 °C 76 % 1014,0 hPa 0,0 mm 4,3 km/h (1 Bft) W-SW 246 ° 0 min 0,000 mm 0,5 UV-I 72 W/m² 0,5 °C 4,3 °C 9,7 km/h (2 Bft)
21.12.2018 13:15 4,3 °C 77 % 1013,9 hPa 0,0 mm 9,8 km/h (2 Bft) SW 223 ° 0 min 0,000 mm 0,5 UV-I 67 W/m² 0,6 °C 1,9 °C 17,7 km/h (3 Bft)
21.12.2018 13:16 4,6 °C 79 % 1014,0 hPa 0,0 mm 6,1 km/h (2 Bft) W 267 ° 0 min 0,000 mm 0,5 UV-I 62 W/m² 1,3 °C 3,2 °C 12,9 km/h (3 Bft)
21.12.2018 13:17 4,9 °C 80 % 1013,8 hPa 0,0 mm 6,2 km/h (2 Bft) W-SW 240 ° 0 min 0,000 mm 0,5 UV-I 60 W/m² 1,7 °C 3,5 °C 11,3 km/h (2 Bft)
21.12.2018 13:18 5,1 °C 80 % 1013,8 hPa 0,0 mm 5,0 km/h (1 Bft) W 263 ° 0 min 0,000 mm 0,5 UV-I 63 W/m² 1,9 °C 4,2 °C 6,4 km/h (2 Bft)
21.12.2018 13:19 5,3 °C 79 % 1013,8 hPa 0,0 mm 5,2 km/h (1 Bft) SW 225 ° 0 min 0,000 mm 0,6 UV-I 67 W/m² 2,0 °C 4,3 °C 11,3 km/h (2 Bft)
21.12.2018 13:20 5,4 °C 79 % 1013,7 hPa 0,0 mm 5,6 km/h (1 Bft) W 277 ° 0 min 0,000 mm 0,6 UV-I 67 W/m² 2,1 °C 4,3 °C 12,9 km/h (3 Bft)
21.12.2018 13:21 5,6 °C 79 % 1013,9 hPa 0,0 mm 8,9 km/h (2 Bft) W 271 ° 0 min 0,000 mm 0,6 UV-I 69 W/m² 2,3 °C 3,6 °C 14,5 km/h (3 Bft)
21.12.2018 13:22 5,7 °C 78 % 1013,7 hPa 0,0 mm 10,7 km/h (2 Bft) W 276 ° 0 min 0,000 mm 0,6 UV-I 76 W/m² 2,2 °C 3,4 °C 16,1 km/h (3 Bft)
21.12.2018 13:23 5,8 °C 78 % 1013,7 hPa 0,0 mm 6,6 km/h (2 Bft) W 260 ° 0 min 0,000 mm 0,6 UV-I 77 W/m² 2,3 °C 4,5 °C 9,7 km/h (2 Bft)
21.12.2018 13:24 5,9 °C 77 % 1013,7 hPa 0,0 mm 7,8 km/h (2 Bft) W-SW 257 ° 0 min 0,000 mm 0,6 UV-I 76 W/m² 2,2 °C 4,2 °C 11,3 km/h (2 Bft)
21.12.2018 13:25 6,1 °C 77 % 1013,6 hPa 0,0 mm 9,2 km/h (2 Bft) W-NW 284 ° 0 min 0,000 mm 0,5 UV-I 72 W/m² 2,4 °C 4,1 °C 14,5 km/h (3 Bft)
21.12.2018 13:26 6,1 °C 77 % 1013,7 hPa 0,0 mm 9,8 km/h (2 Bft) SW 227 ° 0 min 0,000 mm 0,5 UV-I 69 W/m² 2,4 °C 4,0 °C 14,5 km/h (3 Bft)
21.12.2018 13:27 6,3 °C 77 % 1013,6 hPa 0,0 mm 12,2 km/h (2 Bft) W 260 ° 0 min 0,000 mm 0,5 UV-I 63 W/m² 2,6 °C 3,8 °C 17,7 km/h (3 Bft)
21.12.2018 13:28 6,3 °C 76 % 1013,7 hPa 0,0 mm 11,7 km/h (2 Bft) W 277 ° 0 min 0,000 mm 0,0 UV-I 56 W/m² 2,4 °C 3,9 °C 16,1 km/h (3 Bft)
21.12.2018 13:29 6,3 °C 76 % 1013,8 hPa 0,0 mm 13,9 km/h (3 Bft) W-SW 251 ° 0 min 0,000 mm 0,0 UV-I 53 W/m² 2,4 °C 3,5 °C 17,7 km/h (3 Bft)
21.12.2018 13:30 6,4 °C 76 % 1013,9 hPa 0,0 mm 11,1 km/h (2 Bft) W-SW 254 ° 0 min 0,000 mm 0,0 UV-I 51 W/m² 2,5 °C 4,1 °C 17,7 km/h (3 Bft)
21.12.2018 13:31 6,4 °C 76 % 1013,8 hPa 0,0 mm 9,8 km/h (2 Bft) W 272 ° 0 min 0,000 mm 0,0 UV-I 51 W/m² 2,5 °C 4,4 °C 19,3 km/h (3 Bft)
21.12.2018 13:32 6,4 °C 76 % 1013,7 hPa 0,0 mm 10,1 km/h (2 Bft) W-SW 239 ° 0 min 0,000 mm 0,5 UV-I 56 W/m² 2,5 °C 4,3 °C 17,7 km/h (3 Bft)
21.12.2018 13:33 6,5 °C 76 % 1013,8 hPa 0,0 mm 11,1 km/h (2 Bft) W-SW 257 ° 0 min 0,000 mm 0,5 UV-I 62 W/m² 2,6 °C 4,2 °C 17,7 km/h (3 Bft)
21.12.2018 13:34 6,5 °C 76 % 1013,6 hPa 0,0 mm 9,3 km/h (2 Bft) S-SW 213 ° 0 min 0,000 mm 0,5 UV-I 67 W/m² 2,6 °C 4,6 °C 12,9 km/h (3 Bft)
21.12.2018 13:35 6,6 °C 76 % 1013,7 hPa 0,0 mm 10,3 km/h (2 Bft) W-SW 249 ° 0 min 0,000 mm 0,5 UV-I 74 W/m² 2,7 °C 4,5 °C 12,9 km/h (3 Bft)
21.12.2018 13:36 6,7 °C 76 % 1013,6 hPa 0,0 mm 10,1 km/h (2 Bft) W 272 ° 0 min 0,000 mm 0,6 UV-I 79 W/m² 2,8 °C 4,7 °C 16,1 km/h (3 Bft)
21.12.2018 13:37 6,7 °C 76 % 1013,6 hPa 0,0 mm 10,3 km/h (2 Bft) W 281 ° 0 min 0,000 mm 0,6 UV-I 81 W/m² 2,8 °C 4,6 °C 14,5 km/h (3 Bft)
21.12.2018 13:38 6,8 °C 76 % 1013,5 hPa 0,0 mm 10,1 km/h (2 Bft) W 269 ° 0 min 0,000 mm 0,6 UV-I 84 W/m² 2,9 °C 4,8 °C 14,5 km/h (3 Bft)
21.12.2018 13:39 6,8 °C 76 % 1013,6 hPa 0,0 mm 9,1 km/h (2 Bft) W-SW 257 ° 0 min 0,000 mm 0,7 UV-I 88 W/m² 2,9 °C 5,0 °C 14,5 km/h (3 Bft)
21.12.2018 13:40 6,9 °C 76 % 1013,6 hPa 0,0 mm 8,9 km/h (2 Bft) W-SW 253 ° 0 min 0,000 mm 0,7 UV-I 93 W/m² 3,0 °C 5,2 °C 14,5 km/h (3 Bft)
21.12.2018 13:41 6,9 °C 76 % 1013,5 hPa 0,0 mm 3,8 km/h (1 Bft) W-SW 257 ° 0 min 0,000 mm 0,7 UV-I 98 W/m² 3,0 °C 6,9 °C 6,4 km/h (2 Bft)
21.12.2018 13:42 6,9 °C 76 % 1013,4 hPa 0,0 mm 9,0 km/h (2 Bft) W-SW 240 ° 0 min 0,000 mm 0,8 UV-I 102 W/m² 3,0 °C 5,1 °C 16,1 km/h (3 Bft)
21.12.2018 13:43 6,9 °C 76 % 1013,4 hPa 0,0 mm 4,9 km/h (1 Bft) SW 234 ° 0 min 0,000 mm 0,8 UV-I 104 W/m² 3,0 °C 6,3 °C 14,5 km/h (3 Bft)
21.12.2018 13:44 7,1 °C 75 % 1013,4 hPa 0,0 mm 9,9 km/h (2 Bft) W 267 ° 0 min 0,000 mm 0,8 UV-I 104 W/m² 3,0 °C 5,2 °C 16,1 km/h (3 Bft)
21.12.2018 13:45 7,2 °C 74 % 1013,4 hPa 0,0 mm 9,7 km/h (2 Bft) W 275 ° 0 min 0,000 mm 0,8 UV-I 104 W/m² 2,9 °C 5,3 °C 14,5 km/h (3 Bft)
21.12.2018 13:46 7,3 °C 74 % 1013,4 hPa 0,0 mm 12,2 km/h (2 Bft) W 267 ° 0 min 0,000 mm 0,7 UV-I 100 W/m² 3,0 °C 5,0 °C 16,1 km/h (3 Bft)
21.12.2018 13:47 7,3 °C 74 % 1013,5 hPa 0,0 mm 7,8 km/h (2 Bft) W-SW 253 ° 0 min 0,000 mm 0,7 UV-I 91 W/m² 3,0 °C 5,9 °C 12,9 km/h (3 Bft)
21.12.2018 13:48 7,2 °C 74 % 1013,4 hPa 0,0 mm 7,7 km/h (2 Bft) W 264 ° 0 min 0,000 mm 0,7 UV-I 86 W/m² 2,9 °C 5,8 °C 12,9 km/h (3 Bft)
21.12.2018 13:49 7,3 °C 74 % 1013,4 hPa 0,0 mm 13,3 km/h (3 Bft) W-SW 255 ° 0 min 0,000 mm 0,6 UV-I 86 W/m² 3,0 °C 4,8 °C 19,3 km/h (3 Bft)
21.12.2018 13:50 7,3 °C 74 % 1013,6 hPa 0,0 mm 11,3 km/h (2 Bft) W 268 ° 0 min 0,000 mm 0,6 UV-I 81 W/m² 3,0 °C 5,2 °C 12,9 km/h (3 Bft)
21.12.2018 13:51 7,3 °C 74 % 1013,5 hPa 0,0 mm 8,8 km/h (2 Bft) W 268 ° 0 min 0,000 mm 0,6 UV-I 77 W/m² 3,0 °C 5,7 °C 17,7 km/h (3 Bft)
21.12.2018 13:52 7,3 °C 74 % 1013,4 hPa 0,0 mm 6,1 km/h (2 Bft) SW 225 ° 0 min 0,000 mm 0,5 UV-I 74 W/m² 3,0 °C 6,3 °C 14,5 km/h (3 Bft)
21.12.2018 13:53 7,3 °C 74 % 1013,4 hPa 0,0 mm 9,7 km/h (2 Bft) W-SW 252 ° 0 min 0,000 mm 0,5 UV-I 53 W/m² 3,0 °C 5,5 °C 24,1 km/h (4 Bft)
21.12.2018 13:54 7,3 °C 74 % 1013,4 hPa 0,0 mm 8,9 km/h (2 Bft) W-SW 254 ° 0 min 0,000 mm 0,0 UV-I 42 W/m² 3,0 °C 5,6 °C 19,3 km/h (3 Bft)
21.12.2018 13:55 7,3 °C 74 % 1013,4 hPa 0,0 mm 8,2 km/h (2 Bft) W 267 ° 0 min 0,000 mm 0,0 UV-I 37 W/m² 3,0 °C 5,8 °C 16,1 km/h (3 Bft)
21.12.2018 13:56 7,4 °C 74 % 1013,4 hPa 0,0 mm 11,1 km/h (2 Bft) W 273 ° 0 min 0,000 mm 0,0 UV-I 37 W/m² 3,1 °C 5,3 °C 16,1 km/h (3 Bft)
21.12.2018 13:57 7,4 °C 74 % 1013,3 hPa 0,0 mm 12,0 km/h (2 Bft) W 263 ° 0 min 0,000 mm 0,0 UV-I 40 W/m² 3,1 °C 5,2 °C 16,1 km/h (3 Bft)
21.12.2018 13:58 7,4 °C 74 % 1013,4 hPa 0,0 mm 12,6 km/h (3 Bft) W-SW 254 ° 0 min 0,000 mm 0,0 UV-I 46 W/m² 3,1 °C 5,1 °C 17,7 km/h (3 Bft)
21.12.2018 13:59 7,3 °C 74 % 1013,4 hPa 0,0 mm 12,4 km/h (3 Bft) W-SW 255 ° 0 min 0,000 mm 0,0 UV-I 47 W/m² 3,0 °C 5,0 °C 17,7 km/h (3 Bft)
21.12.2018 14:00 7,3 °C 74 % 1013,5 hPa 0,0 mm 10,4 km/h (2 Bft) W-SW 255 ° 0 min 0,000 mm 0,0 UV-I 44 W/m² 3,0 °C 5,3 °C 14,5 km/h (3 Bft)
21.12.2018 14:01 7,4 °C 74 % 1013,3 hPa 0,0 mm 11,3 km/h (2 Bft) W 270 ° 0 min 0,050 mm 0,0 UV-I 44 W/m² 3,1 °C 5,3 °C 16,1 km/h (3 Bft)
21.12.2018 14:02 7,4 °C 74 % 1013,5 hPa 0,0 mm 22,8 km/h (4 Bft) W 272 ° 0 min 0,000 mm 0,0 UV-I 44 W/m² 3,1 °C 3,8 °C 25,7 km/h (4 Bft)
21.12.2018 14:03 7,4 °C 73 % 1013,5 hPa 0,0 mm 19,2 km/h (3 Bft) W-NW 282 ° 0 min 0,000 mm 0,0 UV-I 44 W/m² 2,9 °C 4,2 °C 27,4 km/h (4 Bft)
21.12.2018 14:04 7,5 °C 73 % 1013,4 hPa 0,0 mm 21,0 km/h (4 Bft) W 259 ° 0 min 0,000 mm 0,0 UV-I 39 W/m² 3,0 °C 4,1 °C 30,6 km/h (5 Bft)
21.12.2018 14:05 7,5 °C 74 % 1013,4 hPa 0,0 mm 4,2 km/h (1 Bft) W-SW 239 ° 0 min 0,000 mm 0,0 UV-I 32 W/m² 3,2 °C 7,5 °C 6,4 km/h (2 Bft)
21.12.2018 14:06 7,6 °C 74 % 1013,5 hPa 0,0 mm 9,0 km/h (2 Bft) W-SW 256 ° 0 min 0,000 mm 0,0 UV-I 30 W/m² 3,3 °C 6,0 °C 17,7 km/h (3 Bft)
21.12.2018 14:07 7,6 °C 74 % 1013,5 hPa 0,0 mm 11,3 km/h (2 Bft) W 259 ° 0 min 0,000 mm 0,0 UV-I 30 W/m² 3,3 °C 5,5 °C 16,1 km/h (3 Bft)
21.12.2018 14:08 7,6 °C 74 % 1013,5 hPa 0,0 mm 12,9 km/h (3 Bft) W 263 ° 0 min 0,000 mm 0,0 UV-I 28 W/m² 3,3 °C 5,3 °C 19,3 km/h (3 Bft)
21.12.2018 14:09 7,6 °C 75 % 1013,5 hPa 0,0 mm 13,1 km/h (3 Bft) W 265 ° 0 min 0,000 mm 0,0 UV-I 30 W/m² 3,5 °C 5,2 °C 17,7 km/h (3 Bft)
21.12.2018 14:10 7,6 °C 74 % 1013,3 hPa 0,0 mm 14,6 km/h (3 Bft) W 273 ° 0 min 0,000 mm 0,0 UV-I 37 W/m² 3,3 °C 5,0 °C 19,3 km/h (3 Bft)
21.12.2018 14:11 7,6 °C 74 % 1013,5 hPa 0,0 mm 12,5 km/h (3 Bft) W 263 ° 0 min 0,000 mm 0,0 UV-I 51 W/m² 3,3 °C 5,3 °C 17,7 km/h (3 Bft)
21.12.2018 14:12 7,5 °C 74 % 1013,4 hPa 0,0 mm 10,3 km/h (2 Bft) W 263 ° 0 min 0,000 mm 0,0 UV-I 53 W/m² 3,2 °C 5,6 °C 16,1 km/h (3 Bft)
21.12.2018 14:13 7,5 °C 75 % 1013,4 hPa 0,0 mm 10,5 km/h (2 Bft) W 267 ° 0 min 0,000 mm 0,0 UV-I 51 W/m² 3,4 °C 5,5 °C 16,1 km/h (3 Bft)
21.12.2018 14:14 7,4 °C 75 % 1013,6 hPa 0,0 mm 8,4 km/h (2 Bft) W 273 ° 0 min 0,000 mm 0,0 UV-I 53 W/m² 3,3 °C 5,9 °C 17,7 km/h (3 Bft)
21.12.2018 14:15 7,4 °C 75 % 1013,2 hPa 0,0 mm 7,9 km/h (2 Bft) W 276 ° 0 min 0,000 mm 0,0 UV-I 56 W/m² 3,3 °C 6,0 °C 16,1 km/h (3 Bft)
21.12.2018 14:16 7,4 °C 75 % 1013,5 hPa 0,0 mm 10,1 km/h (2 Bft) W-SW 242 ° 0 min 0,000 mm 0,0 UV-I 56 W/m² 3,3 °C 5,5 °C 16,1 km/h (3 Bft)
21.12.2018 14:17 7,4 °C 75 % 1013,4 hPa 0,0 mm 8,4 km/h (2 Bft) W 264 ° 0 min 0,000 mm 0,0 UV-I 51 W/m² 3,3 °C 5,9 °C 17,7 km/h (3 Bft)
21.12.2018 14:18 7,5 °C 74 % 1013,5 hPa 0,0 mm 14,5 km/h (3 Bft) W 261 ° 0 min 0,000 mm 0,0 UV-I 49 W/m² 3,2 °C 4,9 °C 22,5 km/h (4 Bft)
21.12.2018 14:19 7,6 °C 74 % 1013,4 hPa 0,0 mm 13,3 km/h (3 Bft) W-NW 284 ° 0 min 0,000 mm 0,0 UV-I 51 W/m² 3,3 °C 5,2 °C 17,7 km/h (3 Bft)
21.12.2018 14:20 7,6 °C 74 % 1013,5 hPa 0,0 mm 9,7 km/h (2 Bft) W-SW 250 ° 0 min 0,000 mm 0,0 UV-I 53 W/m² 3,3 °C 5,8 °C 16,1 km/h (3 Bft)
21.12.2018 14:21 7,6 °C 74 % 1013,4 hPa 0,0 mm 5,4 km/h (1 Bft) W-SW 246 ° 0 min 0,000 mm 0,0 UV-I 58 W/m² 3,3 °C 6,9 °C 8,0 km/h (2 Bft)
21.12.2018 14:22 7,6 °C 75 % 1013,4 hPa 0,0 mm 10,9 km/h (2 Bft) W 277 ° 0 min 0,000 mm 0,0 UV-I 60 W/m² 3,5 °C 5,6 °C 16,1 km/h (3 Bft)
21.12.2018 14:23 7,6 °C 75 % 1013,4 hPa 0,0 mm 14,0 km/h (3 Bft) W-NW 290 ° 0 min 0,000 mm 0,0 UV-I 58 W/m² 3,5 °C 5,1 °C 19,3 km/h (3 Bft)
21.12.2018 14:24 7,6 °C 75 % 1013,4 hPa 0,0 mm 14,6 km/h (3 Bft) W-SW 258 ° 0 min 0,000 mm 0,0 UV-I 56 W/m² 3,5 °C 5,0 °C 25,7 km/h (4 Bft)
21.12.2018 14:25 7,6 °C 75 % 1013,4 hPa 0,2 mm 15,9 km/h (3 Bft) W-SW 252 ° 0 min 0,000 mm 0,0 UV-I 56 W/m² 3,5 °C 4,8 °C 27,4 km/h (4 Bft)
21.12.2018 14:26 7,6 °C 75 % 1013,3 hPa 0,0 mm 6,4 km/h (2 Bft) W-SW 246 ° 0 min 0,000 mm 0,0 UV-I 47 W/m² 3,5 °C 6,6 °C 9,7 km/h (2 Bft)
21.12.2018 14:27 7,6 °C 75 % 1013,3 hPa 0,0 mm 15,3 km/h (3 Bft) W 261 ° 0 min 0,000 mm 0,0 UV-I 44 W/m² 3,5 °C 4,9 °C 20,9 km/h (4 Bft)
21.12.2018 14:28 7,6 °C 75 % 1013,3 hPa 0,0 mm 14,2 km/h (3 Bft) W-SW 257 ° 0 min 0,000 mm 0,0 UV-I 40 W/m² 3,5 °C 5,1 °C 19,3 km/h (3 Bft)
21.12.2018 14:29 7,5 °C 75 % 1013,3 hPa 0,0 mm 15,4 km/h (3 Bft) W 269 ° 0 min 0,000 mm 0,0 UV-I 35 W/m² 3,4 °C 4,8 °C 19,3 km/h (3 Bft)
21.12.2018 14:30 7,5 °C 75 % 1013,3 hPa 0,0 mm 14,9 km/h (3 Bft) W 265 ° 0 min 0,000 mm 0,0 UV-I 26 W/m² 3,4 °C 4,8 °C 20,9 km/h (4 Bft)
21.12.2018 14:31 7,5 °C 76 % 1013,3 hPa 0,0 mm 16,9 km/h (3 Bft) W 264 ° 0 min 0,000 mm 0,0 UV-I 23 W/m² 3,5 °C 4,6 °C 27,4 km/h (4 Bft)
21.12.2018 14:32 7,5 °C 77 % 1013,3 hPa 0,0 mm 13,9 km/h (3 Bft) W 261 ° 0 min 0,000 mm 0,0 UV-I 19 W/m² 3,7 °C 5,0 °C 22,5 km/h (4 Bft)
21.12.2018 14:33 7,6 °C 77 % 1013,3 hPa 0,0 mm 14,4 km/h (3 Bft) W-SW 253 ° 0 min 0,000 mm 0,0 UV-I 16 W/m² 3,8 °C 5,0 °C 22,5 km/h (4 Bft)
21.12.2018 14:34 7,6 °C 77 % 1013,3 hPa 0,0 mm 10,3 km/h (2 Bft) W 265 ° 0 min 0,000 mm 0,0 UV-I 14 W/m² 3,8 °C 5,7 °C 16,1 km/h (3 Bft)
21.12.2018 14:35 7,6 °C 77 % 1013,2 hPa 0,0 mm 10,4 km/h (2 Bft) W-SW 247 ° 0 min 0,000 mm 0,0 UV-I 14 W/m² 3,8 °C 5,7 °C 17,7 km/h (3 Bft)
21.12.2018 14:36 7,6 °C 77 % 1013,3 hPa 0,0 mm 9,9 km/h (2 Bft) W 265 ° 0 min 0,000 mm 0,0 UV-I 14 W/m² 3,8 °C 5,8 °C 16,1 km/h (3 Bft)
21.12.2018 14:37 7,6 °C 77 % 1013,2 hPa 0,0 mm 15,3 km/h (3 Bft) SW 231 ° 0 min 0,000 mm 0,0 UV-I 12 W/m² 3,8 °C 4,9 °C 20,9 km/h (4 Bft)
21.12.2018 14:38 7,6 °C 78 % 1013,5 hPa 0,0 mm 9,7 km/h (2 Bft) SW 219 ° 0 min 0,000 mm 0,0 UV-I 12 W/m² 4,0 °C 5,8 °C 16,1 km/h (3 Bft)
21.12.2018 14:39 7,6 °C 78 % 1013,3 hPa 0,2 mm 16,3 km/h (3 Bft) W 273 ° 0 min 0,000 mm 0,0 UV-I 12 W/m² 4,0 °C 4,8 °C 19,3 km/h (3 Bft)
21.12.2018 14:40 7,6 °C 78 % 1013,4 hPa 0,0 mm 11,7 km/h (2 Bft) W-SW 250 ° 0 min 0,000 mm 0,0 UV-I 12 W/m² 4,0 °C 5,5 °C 14,5 km/h (3 Bft)
21.12.2018 14:41 7,6 °C 79 % 1013,4 hPa 0,0 mm 8,0 km/h (2 Bft) W 281 ° 0 min 0,000 mm 0,0 UV-I 12 W/m² 4,2 °C 6,2 °C 14,5 km/h (3 Bft)
21.12.2018 14:42 7,6 °C 79 % 1013,4 hPa 0,0 mm 10,1 km/h (2 Bft) SW 236 ° 0 min 0,000 mm 0,0 UV-I 14 W/m² 4,2 °C 5,7 °C 14,5 km/h (3 Bft)
21.12.2018 14:43 7,6 °C 79 % 1013,4 hPa 0,0 mm 10,6 km/h (2 Bft) W-SW 244 ° 0 min 0,000 mm 0,0 UV-I 14 W/m² 4,2 °C 5,7 °C 19,3 km/h (3 Bft)
21.12.2018 14:44 7,5 °C 79 % 1013,4 hPa 0,0 mm 13,9 km/h (3 Bft) W 264 ° 0 min 0,000 mm 0,0 UV-I 18 W/m² 4,1 °C 5,0 °C 16,1 km/h (3 Bft)
21.12.2018 14:45 7,5 °C 80 % 1013,4 hPa 0,0 mm 6,4 km/h (2 Bft) W 266 ° 0 min 0,000 mm 0,0 UV-I 19 W/m² 4,3 °C 6,5 °C 14,5 km/h (3 Bft)
21.12.2018 14:46 7,5 °C 80 % 1013,4 hPa 0,0 mm 5,3 km/h (1 Bft) W-SW 246 ° 0 min 0,000 mm 0,0 UV-I 23 W/m² 4,3 °C 6,8 °C 8,0 km/h (2 Bft)
21.12.2018 14:47 7,4 °C 80 % 1013,4 hPa 0,0 mm 8,6 km/h (2 Bft) W-SW 248 ° 0 min 0,000 mm 0,0 UV-I 26 W/m² 4,2 °C 5,8 °C 11,3 km/h (2 Bft)
21.12.2018 14:48 7,4 °C 80 % 1013,5 hPa 0,0 mm 11,3 km/h (2 Bft) W-SW 256 ° 0 min 0,000 mm 0,0 UV-I 30 W/m² 4,2 °C 5,3 °C 16,1 km/h (3 Bft)
21.12.2018 14:49 7,4 °C 80 % 1013,4 hPa 0,0 mm 7,3 km/h (2 Bft) SW 234 ° 0 min 0,000 mm 0,0 UV-I 33 W/m² 4,2 °C 6,1 °C 12,9 km/h (3 Bft)
21.12.2018 14:50 7,3 °C 81 % 1013,5 hPa 0,0 mm 10,3 km/h (2 Bft) W 271 ° 0 min 0,000 mm 0,0 UV-I 35 W/m² 4,3 °C 5,3 °C 17,7 km/h (3 Bft)
21.12.2018 14:51 7,3 °C 81 % 1013,5 hPa 0,0 mm 7,8 km/h (2 Bft) W-SW 253 ° 0 min 0,000 mm 0,0 UV-I 37 W/m² 4,3 °C 5,9 °C 12,9 km/h (3 Bft)
21.12.2018 14:52 7,3 °C 81 % 1013,5 hPa 0,0 mm 9,7 km/h (2 Bft) W 275 ° 0 min 0,000 mm 0,0 UV-I 40 W/m² 4,3 °C 5,5 °C 16,1 km/h (3 Bft)
21.12.2018 14:53 7,3 °C 81 % 1013,5 hPa 0,0 mm 10,8 km/h (2 Bft) W 270 ° 0 min 0,000 mm 0,0 UV-I 37 W/m² 4,3 °C 5,3 °C 17,7 km/h (3 Bft)
21.12.2018 14:54 7,2 °C 81 % 1013,6 hPa 0,0 mm 11,1 km/h (2 Bft) SW 230 ° 0 min 0,000 mm 0,0 UV-I 33 W/m² 4,2 °C 5,1 °C 16,1 km/h (3 Bft)
21.12.2018 14:55 7,2 °C 81 % 1013,5 hPa 0,0 mm 8,4 km/h (2 Bft) W 265 ° 0 min 0,000 mm 0,0 UV-I 32 W/m² 4,2 °C 5,6 °C 14,5 km/h (3 Bft)
21.12.2018 14:56 7,2 °C 81 % 1013,6 hPa 0,2 mm 7,4 km/h (2 Bft) W 276 ° 0 min 0,000 mm 0,0 UV-I 30 W/m² 4,2 °C 5,9 °C 11,3 km/h (2 Bft)
21.12.2018 14:57 7,1 °C 81 % 1013,5 hPa 0,0 mm 13,1 km/h (3 Bft) W-SW 254 ° 0 min 0,000 mm 0,0 UV-I 26 W/m² 4,1 °C 4,6 °C 17,7 km/h (3 Bft)
21.12.2018 14:58 7,1 °C 82 % 1013,6 hPa 0,0 mm 9,7 km/h (2 Bft) W-SW 248 ° 0 min 0,000 mm 0,0 UV-I 26 W/m² 4,2 °C 5,2 °C 16,1 km/h (3 Bft)
21.12.2018 14:59 7,1 °C 82 % 1013,6 hPa 0,0 mm 8,4 km/h (2 Bft) SW 225 ° 0 min 0,000 mm 0,0 UV-I 26 W/m² 4,2 °C 5,5 °C 12,9 km/h (3 Bft)
21.12.2018 15:00 7,1 °C 82 % 1013,4 hPa 0,0 mm 12,8 km/h (3 Bft) W 269 ° 0 min 0,000 mm 0,0 UV-I 28 W/m² 4,2 °C 4,7 °C 19,3 km/h (3 Bft)
21.12.2018 15:01 7,1 °C 82 % 1013,5 hPa 0,0 mm 8,9 km/h (2 Bft) S-SW 200 ° 0 min 0,051 mm 0,0 UV-I 28 W/m² 4,2 °C 5,4 °C 12,9 km/h (3 Bft)
21.12.2018 15:02 7,0 °C 82 % 1013,6 hPa 0,0 mm 12,9 km/h (3 Bft) W 276 ° 0 min 0,000 mm 0,0 UV-I 28 W/m² 4,1 °C 4,5 °C 19,3 km/h (3 Bft)
21.12.2018 15:03 7,0 °C 82 % 1013,6 hPa 0,0 mm 13,6 km/h (3 Bft) W 272 ° 0 min 0,000 mm 0,0 UV-I 26 W/m² 4,1 °C 4,4 °C 17,7 km/h (3 Bft)
21.12.2018 15:04 6,9 °C 82 % 1013,5 hPa 0,0 mm 14,0 km/h (3 Bft) W-SW 250 ° 0 min 0,000 mm 0,0 UV-I 19 W/m² 4,0 °C 4,2 °C 22,5 km/h (4 Bft)
21.12.2018 15:05 6,9 °C 83 % 1013,6 hPa 0,0 mm 14,1 km/h (3 Bft) W 264 ° 0 min 0,000 mm 0,0 UV-I 18 W/m² 4,2 °C 4,2 °C 20,9 km/h (4 Bft)
21.12.2018 15:06 6,9 °C 83 % 1013,5 hPa 0,2 mm 10,3 km/h (2 Bft) W-SW 257 ° 0 min 0,000 mm 0,0 UV-I 18 W/m² 4,2 °C 4,9 °C 14,5 km/h (3 Bft)
21.12.2018 15:07 6,9 °C 83 % 1013,6 hPa 0,0 mm 13,5 km/h (3 Bft) W-SW 248 ° 0 min 0,000 mm 0,0 UV-I 19 W/m² 4,2 °C 4,3 °C 19,3 km/h (3 Bft)
21.12.2018 15:08 6,9 °C 83 % 1013,6 hPa 0,0 mm 9,6 km/h (2 Bft) W 263 ° 0 min 0,000 mm 0,0 UV-I 18 W/m² 4,2 °C 5,0 °C 16,1 km/h (3 Bft)
21.12.2018 15:09 6,9 °C 83 % 1013,6 hPa 0,0 mm 9,1 km/h (2 Bft) W-SW 239 ° 0 min 0,000 mm 0,0 UV-I 19 W/m² 4,2 °C 5,1 °C 16,1 km/h (3 Bft)
21.12.2018 15:10 6,9 °C 83 % 1013,6 hPa 0,0 mm 11,0 km/h (2 Bft) W-NW 289 ° 0 min 0,000 mm 0,0 UV-I 19 W/m² 4,2 °C 4,7 °C 16,1 km/h (3 Bft)
21.12.2018 15:11 6,8 °C 83 % 1013,6 hPa 0,0 mm 10,6 km/h (2 Bft) W 261 ° 0 min 0,000 mm 0,0 UV-I 19 W/m² 4,1 °C 4,7 °C 17,7 km/h (3 Bft)
21.12.2018 15:12 6,8 °C 84 % 1013,6 hPa 0,0 mm 10,7 km/h (2 Bft) W 278 ° 0 min 0,000 mm 0,0 UV-I 19 W/m² 4,3 °C 4,7 °C 16,1 km/h (3 Bft)
21.12.2018 15:13 6,8 °C 84 % 1013,6 hPa 0,0 mm 9,2 km/h (2 Bft) W-SW 255 ° 0 min 0,000 mm 0,0 UV-I 18 W/m² 4,3 °C 5,0 °C 14,5 km/h (3 Bft)
21.12.2018 15:14 6,8 °C 84 % 1013,6 hPa 0,0 mm 4,7 km/h (1 Bft) W-SW 250 ° 0 min 0,000 mm 0,0 UV-I 16 W/m² 4,3 °C 6,2 °C 11,3 km/h (2 Bft)
21.12.2018 15:15 6,8 °C 84 % 1013,6 hPa 0,0 mm 9,1 km/h (2 Bft) W-SW 247 ° 0 min 0,000 mm 0,0 UV-I 12 W/m² 4,3 °C 5,0 °C 12,9 km/h (3 Bft)
21.12.2018 15:16 6,7 °C 84 % 1013,7 hPa 0,0 mm 7,6 km/h (2 Bft) W 269 ° 0 min 0,000 mm 0,0 UV-I 12 W/m² 4,2 °C 5,2 °C 11,3 km/h (2 Bft)
21.12.2018 15:17 6,7 °C 84 % 1013,7 hPa 0,0 mm 10,9 km/h (2 Bft) W-SW 253 ° 0 min 0,000 mm 0,0 UV-I 11 W/m² 4,2 °C 4,5 °C 17,7 km/h (3 Bft)
21.12.2018 15:18 6,7 °C 84 % 1013,7 hPa 0,0 mm 11,3 km/h (2 Bft) W 259 ° 0 min 0,000 mm 0,0 UV-I 11 W/m² 4,2 °C 4,4 °C 14,5 km/h (3 Bft)
21.12.2018 15:19 6,7 °C 85 % 1013,6 hPa 0,0 mm 8,6 km/h (2 Bft) W 265 ° 0 min 0,000 mm 0,0 UV-I 11 W/m² 4,4 °C 5,0 °C 12,9 km/h (3 Bft)
21.12.2018 15:20 6,6 °C 85 % 1013,7 hPa 0,0 mm 7,8 km/h (2 Bft) W-SW 250 ° 0 min 0,000 mm 0,0 UV-I 9 W/m² 4,3 °C 5,1 °C 12,9 km/h (3 Bft)
21.12.2018 15:21 6,6 °C 85 % 1013,6 hPa 0,0 mm 4,6 km/h (1 Bft) W 263 ° 0 min 0,000 mm 0,0 UV-I 9 W/m² 4,3 °C 6,0 °C 9,7 km/h (2 Bft)
21.12.2018 15:22 6,6 °C 85 % 1013,6 hPa 0,2 mm 10,0 km/h (2 Bft) W 273 ° 0 min 0,000 mm 0,0 UV-I 9 W/m² 4,3 °C 4,6 °C 16,1 km/h (3 Bft)
21.12.2018 15:23 6,6 °C 85 % 1013,7 hPa 0,0 mm 12,0 km/h (2 Bft) W 262 ° 0 min 0,000 mm 0,0 UV-I 9 W/m² 4,3 °C 4,2 °C 16,1 km/h (3 Bft)
21.12.2018 15:24 6,5 °C 85 % 1013,7 hPa 0,0 mm 12,8 km/h (3 Bft) W-SW 252 ° 0 min 0,000 mm 0,0 UV-I 11 W/m² 4,2 °C 3,9 °C 16,1 km/h (3 Bft)
21.12.2018 15:25 6,5 °C 85 % 1013,7 hPa 0,0 mm 5,2 km/h (1 Bft) SW 236 ° 0 min 0,000 mm 0,0 UV-I 11 W/m² 4,2 °C 5,7 °C 11,3 km/h (2 Bft)
21.12.2018 15:26 6,5 °C 86 % 1013,6 hPa 0,0 mm 8,4 km/h (2 Bft) W 273 ° 0 min 0,000 mm 0,0 UV-I 9 W/m² 4,3 °C 4,8 °C 12,9 km/h (3 Bft)
21.12.2018 15:27 6,5 °C 86 % 1013,7 hPa 0,0 mm 11,5 km/h (2 Bft) W 261 ° 0 min 0,000 mm 0,0 UV-I 9 W/m² 4,3 °C 4,2 °C 14,5 km/h (3 Bft)
21.12.2018 15:28 6,4 °C 86 % 1013,7 hPa 0,0 mm 11,5 km/h (2 Bft) W 269 ° 0 min 0,000 mm 0,0 UV-I 7 W/m² 4,2 °C 4,0 °C 16,1 km/h (3 Bft)
21.12.2018 15:29 6,4 °C 86 % 1013,9 hPa 0,0 mm 13,6 km/h (3 Bft) W 263 ° 0 min 0,000 mm 0,0 UV-I 7 W/m² 4,2 °C 3,7 °C 19,3 km/h (3 Bft)
21.12.2018 15:30 6,4 °C 85 % 1013,8 hPa 0,0 mm 8,9 km/h (2 Bft) S-SW 209 ° 0 min 0,000 mm 0,0 UV-I 7 W/m² 4,1 °C 4,6 °C 14,5 km/h (3 Bft)
21.12.2018 15:31 6,4 °C 86 % 1013,7 hPa 0,0 mm 4,1 km/h (1 Bft) W-SW 257 ° 0 min 0,000 mm 0,0 UV-I 7 W/m² 4,2 °C 6,4 °C 6,4 km/h (2 Bft)
21.12.2018 15:32 6,4 °C 86 % 1013,8 hPa 0,0 mm 9,3 km/h (2 Bft) W-SW 246 ° 0 min 0,000 mm 0,0 UV-I 7 W/m² 4,2 °C 4,5 °C 14,5 km/h (3 Bft)
21.12.2018 15:33 6,3 °C 86 % 1013,9 hPa 0,0 mm 9,9 km/h (2 Bft) W 281 ° 0 min 0,000 mm 0,0 UV-I 5 W/m² 4,1 °C 4,2 °C 20,9 km/h (4 Bft)
21.12.2018 15:34 6,4 °C 86 % 1013,7 hPa 0,2 mm 11,4 km/h (2 Bft) W-NW 284 ° 0 min 0,000 mm 0,0 UV-I 5 W/m² 4,2 °C 4,1 °C 19,3 km/h (3 Bft)
21.12.2018 15:35 6,3 °C 87 % 1014,1 hPa 0,0 mm 13,6 km/h (3 Bft) W-SW 247 ° 0 min 0,000 mm 0,0 UV-I 0 W/m² 4,3 °C 3,6 °C 17,7 km/h (3 Bft)
21.12.2018 15:36 6,3 °C 87 % 1014,0 hPa 0,2 mm 13,4 km/h (3 Bft) W 261 ° 0 min 0,000 mm 0,0 UV-I 0 W/m² 4,3 °C 3,6 °C 19,3 km/h (3 Bft)
21.12.2018 15:37 6,3 °C 87 % 1014,0 hPa 0,0 mm 12,1 km/h (2 Bft) W 273 ° 0 min 0,000 mm 0,0 UV-I 0 W/m² 4,3 °C 3,8 °C 16,1 km/h (3 Bft)
21.12.2018 15:38 6,3 °C 87 % 1013,9 hPa 0,2 mm 8,4 km/h (2 Bft) S-SW 212 ° 0 min 0,000 mm 0,0 UV-I 0 W/m² 4,3 °C 4,6 °C 14,5 km/h (3 Bft)
21.12.2018 15:39 6,3 °C 87 % 1013,9 hPa 0,0 mm 6,6 km/h (2 Bft) W-SW 243 ° 0 min 0,000 mm 0,0 UV-I 0 W/m² 4,3 °C 5,0 °C 11,3 km/h (2 Bft)
21.12.2018 15:40 6,3 °C 87 % 1014,0 hPa 0,0 mm 4,2 km/h (1 Bft) S-SW 207 ° 0 min 0,000 mm 0,0 UV-I 0 W/m² 4,3 °C 6,3 °C 6,4 km/h (2 Bft)
21.12.2018 15:41 6,3 °C 87 % 1013,8 hPa 0,2 mm 5,3 km/h (1 Bft) W-SW 248 ° 0 min 0,000 mm 0,0 UV-I 0 W/m² 4,3 °C 5,5 °C 8,0 km/h (2 Bft)
21.12.2018 15:42 6,3 °C 88 % 1013,9 hPa 0,0 mm 4,4 km/h (1 Bft) W 279 ° 0 min 0,000 mm 0,0 UV-I 0 W/m² 4,5 °C 6,3 °C 6,4 km/h (2 Bft)
21.12.2018 15:43 6,3 °C 88 % 1013,9 hPa 0,0 mm 13,7 km/h (3 Bft) W-SW 249 ° 0 min 0,000 mm 0,0 UV-I 0 W/m² 4,5 °C 3,5 °C 16,1 km/h (3 Bft)
21.12.2018 15:44 6,3 °C 88 % 1013,9 hPa 0,0 mm 6,2 km/h (2 Bft) W-SW 251 ° 0 min 0,000 mm 0,0 UV-I 0 W/m² 4,5 °C 5,2 °C 8,0 km/h (2 Bft)
21.12.2018 15:45 6,3 °C 88 % 1013,9 hPa 0,2 mm 10,3 km/h (2 Bft) W-SW 247 ° 0 min 0,000 mm 0,0 UV-I 5 W/m² 4,5 °C 4,2 °C 12,9 km/h (3 Bft)
21.12.2018 15:46 6,3 °C 88 % 1013,9 hPa 0,0 mm 7,9 km/h (2 Bft) W-SW 240 ° 0 min 0,000 mm 0,0 UV-I 5 W/m² 4,5 °C 4,7 °C 12,9 km/h (3 Bft)
21.12.2018 15:47 6,3 °C 88 % 1013,8 hPa 0,0 mm 20,2 km/h (4 Bft) W-SW 254 ° 0 min 0,000 mm 0,0 UV-I 5 W/m² 4,5 °C 2,7 °C 27,4 km/h (4 Bft)
21.12.2018 15:48 6,3 °C 88 % 1013,9 hPa 0,0 mm 16,6 km/h (3 Bft) W-SW 252 ° 0 min 0,000 mm 0,0 UV-I 5 W/m² 4,5 °C 3,1 °C 20,9 km/h (4 Bft)
21.12.2018 15:49 6,2 °C 88 % 1013,9 hPa 0,0 mm 14,1 km/h (3 Bft) W 259 ° 0 min 0,000 mm 0,0 UV-I 5 W/m² 4,4 °C 3,4 °C 17,7 km/h (3 Bft)
21.12.2018 15:50 6,3 °C 88 % 1013,9 hPa 0,0 mm 10,9 km/h (2 Bft) W 262 ° 0 min 0,000 mm 0,0 UV-I 5 W/m² 4,5 °C 4,0 °C 12,9 km/h (3 Bft)
21.12.2018 15:51 6,2 °C 88 % 1014,1 hPa 0,0 mm 10,8 km/h (2 Bft) W 270 ° 0 min 0,000 mm 0,0 UV-I 5 W/m² 4,4 °C 3,9 °C 17,7 km/h (3 Bft)
21.12.2018 15:52 6,2 °C 88 % 1014,1 hPa 0,0 mm 8,8 km/h (2 Bft) W-NW 285 ° 0 min 0,000 mm 0,0 UV-I 5 W/m² 4,4 °C 4,4 °C 14,5 km/h (3 Bft)
21.12.2018 15:53 6,2 °C 88 % 1014,0 hPa 0,0 mm 12,1 km/h (2 Bft) W-SW 257 ° 0 min 0,000 mm 0,0 UV-I 0 W/m² 4,4 °C 3,7 °C 16,1 km/h (3 Bft)
21.12.2018 15:54 6,2 °C 88 % 1014,0 hPa 0,2 mm 8,0 km/h (2 Bft) SW 229 ° 0 min 0,000 mm 0,0 UV-I 0 W/m² 4,4 °C 4,5 °C 12,9 km/h (3 Bft)
21.12.2018 15:55 6,2 °C 88 % 1014,1 hPa 0,0 mm 7,9 km/h (2 Bft) W-SW 248 ° 0 min 0,000 mm 0,0 UV-I 0 W/m² 4,4 °C 4,6 °C 11,3 km/h (2 Bft)
21.12.2018 15:56 6,2 °C 89 % 1014,0 hPa 0,0 mm 10,1 km/h (2 Bft) W-SW 251 ° 0 min 0,000 mm 0,0 UV-I 0 W/m² 4,5 °C 4,1 °C 20,9 km/h (4 Bft)
21.12.2018 15:57 6,2 °C 89 % 1014,0 hPa 0,0 mm 7,1 km/h (2 Bft) W-SW 238 ° 0 min 0,000 mm 0,0 UV-I 0 W/m² 4,5 °C 4,8 °C 14,5 km/h (3 Bft)
21.12.2018 15:58 6,2 °C 89 % 1014,0 hPa 0,0 mm 12,2 km/h (2 Bft) W-NW 286 ° 0 min 0,000 mm 0,0 UV-I 0 W/m² 4,5 °C 3,7 °C 17,7 km/h (3 Bft)
21.12.2018 15:59 6,2 °C 89 % 1014,0 hPa 0,0 mm 6,8 km/h (2 Bft) W-SW 254 ° 0 min 0,000 mm 0,0 UV-I 0 W/m² 4,5 °C 4,9 °C 14,5 km/h (3 Bft)
21.12.2018 16:00 6,2 °C 89 % 1014,0 hPa 0,2 mm 9,9 km/h (2 Bft) W 263 ° 0 min 0,000 mm 0,0 UV-I 0 W/m² 4,5 °C 4,1 °C 14,5 km/h (3 Bft)
21.12.2018 16:01 6,3 °C 89 % 1014,0 hPa 0,0 mm 13,5 km/h (3 Bft) SW 234 ° 0 min 0,026 mm 0,0 UV-I 0 W/m² 4,6 °C 3,6 °C 19,3 km/h (3 Bft)
21.12.2018 16:02 6,2 °C 89 % 1014,0 hPa 0,0 mm 12,6 km/h (3 Bft) W-SW 255 ° 0 min 0,000 mm 0,0 UV-I 0 W/m² 4,5 °C 3,6 °C 19,3 km/h (3 Bft)
21.12.2018 16:03 6,3 °C 89 % 1014,1 hPa 0,0 mm 12,0 km/h (2 Bft) W-SW 238 ° 0 min 0,000 mm 0,0 UV-I 0 W/m² 4,6 °C 3,8 °C 20,9 km/h (4 Bft)
21.12.2018 16:04 6,2 °C 89 % 1013,9 hPa 0,0 mm 13,3 km/h (3 Bft) W-NW 282 ° 0 min 0,000 mm 0,0 UV-I 0 W/m² 4,5 °C 3,5 °C 17,7 km/h (3 Bft)
21.12.2018 16:05 6,2 °C 89 % 1014,0 hPa 0,2 mm 13,5 km/h (3 Bft) W 269 ° 0 min 0,000 mm 0,0 UV-I 0 W/m² 4,5 °C 3,5 °C 17,7 km/h (3 Bft)
21.12.2018 16:06 6,2 °C 89 % 1014,0 hPa 0,0 mm 13,1 km/h (3 Bft) W 269 ° 0 min 0,000 mm 0,0 UV-I 0 W/m² 4,5 °C 3,5 °C 20,9 km/h (4 Bft)
21.12.2018 16:07 6,2 °C 89 % 1014,0 hPa 0,0 mm 17,0 km/h (3 Bft) W-SW 258 ° 0 min 0,000 mm 0,0 UV-I 0 W/m² 4,5 °C 3,0 °C 25,7 km/h (4 Bft)
21.12.2018 16:08 6,2 °C 89 % 1013,9 hPa 0,0 mm 13,6 km/h (3 Bft) W 279 ° 0 min 0,000 mm 0,0 UV-I 0 W/m² 4,5 °C 3,4 °C 24,1 km/h (4 Bft)
21.12.2018 16:09 6,3 °C 89 % 1014,0 hPa 0,0 mm 9,4 km/h (2 Bft) W-SW 238 ° 0 min 0,000 mm 0,0 UV-I 0 W/m² 4,6 °C 4,3 °C 14,5 km/h (3 Bft)
21.12.2018 16:10 6,3 °C 89 % 1013,9 hPa 0,0 mm 16,5 km/h (3 Bft) W-SW 257 ° 0 min 0,000 mm 0,0 UV-I 0 W/m² 4,6 °C 3,1 °C 24,1 km/h (4 Bft)
21.12.2018 16:11 6,2 °C 89 % 1014,1 hPa 0,2 mm 11,4 km/h (2 Bft) W 265 ° 0 min 0,000 mm 0,0 UV-I 0 W/m² 4,5 °C 3,8 °C 19,3 km/h (3 Bft)
21.12.2018 16:12 6,3 °C 89 % 1014,0 hPa 0,0 mm 8,2 km/h (2 Bft) W 269 ° 0 min 0,000 mm 0,0 UV-I 0 W/m² 4,6 °C 4,6 °C 12,9 km/h (3 Bft)
21.12.2018 16:13 6,3 °C 90 % 1014,0 hPa 0,0 mm 10,6 km/h (2 Bft) W-SW 240 ° 0 min 0,000 mm 0,0 UV-I 0 W/m² 4,8 °C 4,1 °C 16,1 km/h (3 Bft)
21.12.2018 16:14 6,3 °C 90 % 1014,0 hPa 0,0 mm 8,4 km/h (2 Bft) W-SW 237 ° 0 min 0,000 mm 0,0 UV-I 0 W/m² 4,8 °C 4,6 °C 12,9 km/h (3 Bft)
21.12.2018 16:15 6,3 °C 90 % 1014,0 hPa 0,0 mm 10,1 km/h (2 Bft) SW 227 ° 0 min 0,000 mm 0,0 UV-I 0 W/m² 4,8 °C 4,2 °C 19,3 km/h (3 Bft)
21.12.2018 16:16 6,3 °C 90 % 1014,0 hPa 0,2 mm 11,7 km/h (2 Bft) W 269 ° 0 min 0,000 mm 0,0 UV-I 0 W/m² 4,8 °C 3,9 °C 19,3 km/h (3 Bft)
21.12.2018 16:17 6,3 °C 90 % 1014,0 hPa 0,0 mm 13,0 km/h (3 Bft) W 269 ° 0 min 0,000 mm 0,0 UV-I 0 W/m² 4,8 °C 3,7 °C 16,1 km/h (3 Bft)
21.12.2018 16:18 6,3 °C 90 % 1013,9 hPa 0,0 mm 11,1 km/h (2 Bft) W-SW 249 ° 0 min 0,000 mm 0,0 UV-I 0 W/m² 4,8 °C 4,0 °C 14,5 km/h (3 Bft)
21.12.2018 16:19 6,3 °C 90 % 1014,1 hPa 0,0 mm 8,9 km/h (2 Bft) W-SW 257 ° 0 min 0,000 mm 0,0 UV-I 0 W/m² 4,8 °C 4,4 °C 14,5 km/h (3 Bft)
21.12.2018 16:20 6,3 °C 90 % 1013,9 hPa 0,0 mm 17,2 km/h (3 Bft) W 270 ° 0 min 0,000 mm 0,0 UV-I 0 W/m² 4,8 °C 3,0 °C 24,1 km/h (4 Bft)
21.12.2018 16:21 6,3 °C 90 % 1013,9 hPa 0,0 mm 16,3 km/h (3 Bft) W 273 ° 0 min 0,000 mm 0,0 UV-I 0 W/m² 4,8 °C 3,2 °C 22,5 km/h (4 Bft)
21.12.2018 16:22 6,3 °C 90 % 1013,9 hPa 0,0 mm 16,9 km/h (3 Bft) W 267 ° 0 min 0,000 mm 0,0 UV-I 0 W/m² 4,8 °C 3,1 °C 22,5 km/h (4 Bft)
21.12.2018 16:23 6,3 °C 90 % 1013,9 hPa 0,0 mm 12,6 km/h (3 Bft) W-SW 247 ° 0 min 0,000 mm 0,0 UV-I 0 W/m² 4,8 °C 3,7 °C 16,1 km/h (3 Bft)
21.12.2018 16:24 6,3 °C 90 % 1013,9 hPa 0,0 mm 11,8 km/h (2 Bft) W-SW 255 ° 0 min 0,000 mm 0,0 UV-I 0 W/m² 4,8 °C 3,9 °C 17,7 km/h (3 Bft)
21.12.2018 16:25 6,3 °C 90 % 1014,0 hPa 0,0 mm 8,6 km/h (2 Bft) W 271 ° 0 min 0,000 mm 0,0 UV-I 0 W/m² 4,8 °C 4,5 °C 16,1 km/h (3 Bft)
21.12.2018 16:26 6,3 °C 90 % 1013,9 hPa 0,2 mm 7,0 km/h (2 Bft) S 176 ° 0 min 0,000 mm 0,0 UV-I 0 W/m² 4,8 °C 4,9 °C 14,5 km/h (3 Bft)
21.12.2018 16:27 6,3 °C 90 % 1013,9 hPa 0,0 mm 9,1 km/h (2 Bft) W-NW 283 ° 0 min 0,000 mm 0,0 UV-I 0 W/m² 4,8 °C 4,4 °C 12,9 km/h (3 Bft)
21.12.2018 16:28 6,3 °C 90 % 1014,0 hPa 0,0 mm 10,7 km/h (2 Bft) W 268 ° 0 min 0,000 mm 0,0 UV-I 0 W/m² 4,8 °C 4,1 °C 11,3 km/h (2 Bft)
21.12.2018 16:29 6,3 °C 90 % 1013,8 hPa 0,0 mm 8,4 km/h (2 Bft) W 263 ° 0 min 0,000 mm 0,0 UV-I 0 W/m² 4,8 °C 4,6 °C 11,3 km/h (2 Bft)
21.12.2018 16:30 6,3 °C 90 % 1013,9 hPa 0,0 mm 8,8 km/h (2 Bft) W-SW 251 ° 0 min 0,000 mm 0,0 UV-I 0 W/m² 4,8 °C 4,5 °C 12,9 km/h (3 Bft)
21.12.2018 16:31 6,3 °C 90 % 1013,9 hPa 0,0 mm 11,0 km/h (2 Bft) W 265 ° 0 min 0,000 mm 0,0 UV-I 0 W/m² 4,8 °C 4,0 °C 19,3 km/h (3 Bft)
21.12.2018 16:32 6,3 °C 90 % 1014,0 hPa 0,0 mm 12,2 km/h (2 Bft) N-NW 328 ° 0 min 0,000 mm 0,0 UV-I 0 W/m² 4,8 °C 3,8 °C 20,9 km/h (4 Bft)
21.12.2018 16:33 6,3 °C 90 % 1013,7 hPa 0,0 mm 8,9 km/h (2 Bft) W-SW 244 ° 0 min 0,000 mm 0,0 UV-I 0 W/m² 4,8 °C 4,4 °C 12,9 km/h (3 Bft)
21.12.2018 16:34 6,3 °C 90 % 1013,9 hPa 0,0 mm 9,5 km/h (2 Bft) SW 236 ° 0 min 0,000 mm 0,0 UV-I 0 W/m² 4,8 °C 4,3 °C 12,9 km/h (3 Bft)
21.12.2018 16:35 6,3 °C 90 % 1014,0 hPa 0,0 mm 11,7 km/h (2 Bft) W-SW 252 ° 0 min 0,000 mm 0,0 UV-I 0 W/m² 4,8 °C 3,9 °C 16,1 km/h (3 Bft)
21.12.2018 16:36 6,3 °C 90 % 1014,0 hPa 0,2 mm 11,6 km/h (2 Bft) W 260 ° 0 min 0,000 mm 0,0 UV-I 0 W/m² 4,8 °C 3,9 °C 16,1 km/h (3 Bft)
21.12.2018 16:37 6,3 °C 90 % 1014,0 hPa 0,0 mm 12,3 km/h (3 Bft) W 259 ° 0 min 0,000 mm 0,0 UV-I 0 W/m² 4,8 °C 3,8 °C 14,5 km/h (3 Bft)
21.12.2018 16:38 6,3 °C 90 % 1013,9 hPa 0,0 mm 7,6 km/h (2 Bft) W 261 ° 0 min 0,000 mm 0,0 UV-I 0 W/m² 4,8 °C 4,8 °C 16,1 km/h (3 Bft)
21.12.2018 16:39 6,3 °C 90 % 1014,0 hPa 0,0 mm 17,0 km/h (3 Bft) W 275 ° 0 min 0,000 mm 0,0 UV-I 0 W/m² 4,8 °C 3,1 °C 22,5 km/h (4 Bft)
21.12.2018 16:40 6,3 °C 90 % 1013,9 hPa 0,0 mm 14,1 km/h (3 Bft) W 267 ° 0 min 0,000 mm 0,0 UV-I 0 W/m² 4,8 °C 3,5 °C 20,9 km/h (4 Bft)
21.12.2018 16:41 6,3 °C 90 % 1014,0 hPa 0,0 mm 8,9 km/h (2 Bft) W 271 ° 0 min 0,000 mm 0,0 UV-I 0 W/m² 4,8 °C 4,4 °C 14,5 km/h (3 Bft)
21.12.2018 16:42 6,2 °C 90 % 1014,0 hPa 0,0 mm 11,2 km/h (2 Bft) W 277 ° 0 min 0,000 mm 0,0 UV-I 0 W/m² 4,7 °C 3,9 °C 25,7 km/h (4 Bft)
21.12.2018 16:43 6,3 °C 90 % 1014,1 hPa 0,0 mm 11,0 km/h (2 Bft) W-SW 248 ° 0 min 0,000 mm 0,0 UV-I 0 W/m² 4,8 °C 4,0 °C 20,9 km/h (4 Bft)
21.12.2018 16:44 6,3 °C 90 % 1014,0 hPa 0,0 mm 7,9 km/h (2 Bft) W-SW 244 ° 0 min 0,000 mm 0,0 UV-I 0 W/m² 4,8 °C 4,7 °C 12,9 km/h (3 Bft)
21.12.2018 16:45 6,3 °C 90 % 1014,0 hPa 0,0 mm 11,3 km/h (2 Bft) W-SW 242 ° 0 min 0,000 mm 0,0 UV-I 0 W/m² 4,8 °C 4,0 °C 17,7 km/h (3 Bft)
21.12.2018 16:46 6,3 °C 90 % 1014,0 hPa 0,0 mm 11,3 km/h (2 Bft) W 267 ° 0 min 0,000 mm 0,0 UV-I 0 W/m² 4,8 °C 4,0 °C 17,7 km/h (3 Bft)
21.12.2018 16:47 6,3 °C 90 % 1014,0 hPa 0,2 mm 12,9 km/h (3 Bft) W 274 ° 0 min 0,000 mm 0,0 UV-I 0 W/m² 4,8 °C 3,7 °C 19,3 km/h (3 Bft)
21.12.2018 16:48 6,2 °C 90 % 1014,0 hPa 0,0 mm 10,1 km/h (2 Bft) W 260 ° 0 min 0,000 mm 0,0 UV-I 0 W/m² 4,7 °C 4,1 °C 14,5 km/h (3 Bft)
21.12.2018 16:49 6,2 °C 90 % 1013,9 hPa 0,0 mm 12,6 km/h (3 Bft) W 259 ° 0 min 0,000 mm 0,0 UV-I 0 W/m² 4,7 °C 3,6 °C 16,1 km/h (3 Bft)
21.12.2018 16:50 6,3 °C 90 % 1013,9 hPa 0,0 mm 9,3 km/h (2 Bft) W 273 ° 0 min 0,000 mm 0,0 UV-I 0 W/m² 4,8 °C 4,4 °C 17,7 km/h (3 Bft)
21.12.2018 16:51 6,3 °C 90 % 1014,1 hPa 0,0 mm 13,3 km/h (3 Bft) W 277 ° 0 min 0,000 mm 0,0 UV-I 0 W/m² 4,8 °C 3,6 °C 17,7 km/h (3 Bft)
21.12.2018 16:52 6,2 °C 90 % 1014,1 hPa 0,0 mm 14,0 km/h (3 Bft) W 277 ° 0 min 0,000 mm 0,0 UV-I 0 W/m² 4,7 °C 3,4 °C 17,7 km/h (3 Bft)
21.12.2018 16:53 6,2 °C 90 % 1014,1 hPa 0,0 mm 13,2 km/h (3 Bft) W 271 ° 0 min 0,000 mm 0,0 UV-I 0 W/m² 4,7 °C 3,5 °C 20,9 km/h (4 Bft)
21.12.2018 16:54 6,2 °C 90 % 1014,2 hPa 0,0 mm 11,8 km/h (2 Bft) W 259 ° 0 min 0,000 mm 0,0 UV-I 0 W/m² 4,7 °C 3,7 °C 16,1 km/h (3 Bft)
21.12.2018 16:55 6,2 °C 90 % 1014,1 hPa 0,0 mm 11,5 km/h (2 Bft) W 273 ° 0 min 0,000 mm 0,0 UV-I 0 W/m² 4,7 °C 3,8 °C 19,3 km/h (3 Bft)
21.12.2018 16:56 6,2 °C 90 % 1013,9 hPa 0,0 mm 9,5 km/h (2 Bft) W 265 ° 0 min 0,000 mm 0,0 UV-I 0 W/m² 4,7 °C 4,2 °C 14,5 km/h (3 Bft)
21.12.2018 16:57 6,2 °C 90 % 1014,0 hPa 0,0 mm 8,0 km/h (2 Bft) W-NW 283 ° 0 min 0,000 mm 0,0 UV-I 0 W/m² 4,7 °C 4,5 °C 11,3 km/h (2 Bft)
21.12.2018 16:58 6,2 °C 90 % 1014,0 hPa 0,0 mm 10,1 km/h (2 Bft) W 265 ° 0 min 0,000 mm 0,0 UV-I 0 W/m² 4,7 °C 4,1 °C 17,7 km/h (3 Bft)
21.12.2018 16:59 6,2 °C 90 % 1013,9 hPa 0,0 mm 11,2 km/h (2 Bft) W-SW 255 ° 0 min 0,000 mm 0,0 UV-I 0 W/m² 4,7 °C 3,9 °C 16,1 km/h (3 Bft)
21.12.2018 17:00 6,2 °C 90 % 1014,0 hPa 0,0 mm 11,4 km/h (2 Bft) W-SW 243 ° 0 min 0,000 mm 0,0 UV-I 0 W/m² 4,7 °C 3,8 °C 20,9 km/h (4 Bft)
21.12.2018 17:01 6,2 °C 91 % 1014,0 hPa 0,0 mm 13,1 km/h (3 Bft) W 273 ° 0 min 0,000 mm 0,0 UV-I 0 W/m² 4,8 °C 3,5 °C 19,3 km/h (3 Bft)
21.12.2018 17:02 6,3 °C 91 % 1014,0 hPa 0,0 mm 11,3 km/h (2 Bft) W-SW 254 ° 0 min 0,000 mm 0,0 UV-I 0 W/m² 4,9 °C 4,0 °C 14,5 km/h (3 Bft)
21.12.2018 17:03 6,2 °C 91 % 1014,0 hPa 0,0 mm 11,1 km/h (2 Bft) W 266 ° 0 min 0,000 mm 0,0 UV-I 0 W/m² 4,8 °C 3,9 °C 14,5 km/h (3 Bft)
21.12.2018 17:04 6,3 °C 91 % 1014,0 hPa 0,0 mm 10,3 km/h (2 Bft) W 260 ° 0 min 0,000 mm 0,0 UV-I 0 W/m² 4,9 °C 4,2 °C 14,5 km/h (3 Bft)
21.12.2018 17:05 6,2 °C 91 % 1014,0 hPa 0,0 mm 7,7 km/h (2 Bft) W-SW 250 ° 0 min 0,000 mm 0,0 UV-I 0 W/m² 4,8 °C 4,6 °C 12,9 km/h (3 Bft)
21.12.2018 17:06 6,2 °C 91 % 1013,9 hPa 0,0 mm 11,0 km/h (2 Bft) W 269 ° 0 min 0,000 mm 0,0 UV-I 0 W/m² 4,8 °C 3,9 °C 20,9 km/h (4 Bft)
21.12.2018 17:07 6,2 °C 91 % 1014,0 hPa 0,0 mm 14,9 km/h (3 Bft) W 260 ° 0 min 0,000 mm 0,0 UV-I 0 W/m² 4,8 °C 3,2 °C 22,5 km/h (4 Bft)
21.12.2018 17:08 6,2 °C 91 % 1014,0 hPa 0,0 mm 17,3 km/h (3 Bft) W 280 ° 0 min 0,000 mm 0,0 UV-I 0 W/m² 4,8 °C 2,9 °C 22,5 km/h (4 Bft)
21.12.2018 17:09 6,3 °C 91 % 1014,0 hPa 0,0 mm 11,3 km/h (2 Bft) W 277 ° 0 min 0,000 mm 0,0 UV-I 0 W/m² 4,9 °C 4,0 °C 17,7 km/h (3 Bft)
21.12.2018 17:10 6,3 °C 91 % 1014,0 hPa 0,0 mm 8,8 km/h (2 Bft) W 261 ° 0 min 0,000 mm 0,0 UV-I 0 W/m² 4,9 °C 4,5 °C 16,1 km/h (3 Bft)
21.12.2018 17:11 6,3 °C 91 % 1014,0 hPa 0,0 mm 8,2 km/h (2 Bft) W-SW 242 ° 0 min 0,000 mm 0,0 UV-I 0 W/m² 4,9 °C 4,6 °C 14,5 km/h (3 Bft)
21.12.2018 17:12 6,3 °C 91 % 1014,1 hPa 0,0 mm 6,7 km/h (2 Bft) S-SW 213 ° 0 min 0,000 mm 0,0 UV-I 0 W/m² 4,9 °C 5,0 °C 12,9 km/h (3 Bft)
21.12.2018 17:13 6,3 °C 91 % 1014,1 hPa 0,0 mm 8,8 km/h (2 Bft) W-SW 243 ° 0 min 0,000 mm 0,0 UV-I 0 W/m² 4,9 °C 4,5 °C 12,9 km/h (3 Bft)
21.12.2018 17:14 6,4 °C 91 % 1014,1 hPa 0,0 mm 10,6 km/h (2 Bft) W 260 ° 0 min 0,000 mm 0,0 UV-I 0 W/m² 5,0 °C 4,2 °C 16,1 km/h (3 Bft)
21.12.2018 17:15 6,4 °C 90 % 1014,1 hPa 0,0 mm 8,6 km/h (2 Bft) W 261 ° 0 min 0,000 mm 0,0 UV-I 0 W/m² 4,9 °C 4,6 °C 17,7 km/h (3 Bft)
21.12.2018 17:16 6,4 °C 90 % 1014,1 hPa 0,0 mm 6,2 km/h (2 Bft) W 265 ° 0 min 0,000 mm 0,0 UV-I 0 W/m² 4,9 °C 5,3 °C 9,7 km/h (2 Bft)
21.12.2018 17:17 6,4 °C 90 % 1014,1 hPa 0,0 mm 9,3 km/h (2 Bft) W 269 ° 0 min 0,000 mm 0,0 UV-I 0 W/m² 4,9 °C 4,5 °C 12,9 km/h (3 Bft)
21.12.2018 17:18 6,4 °C 90 % 1014,1 hPa 0,0 mm 8,2 km/h (2 Bft) W-NW 300 ° 0 min 0,000 mm 0,0 UV-I 0 W/m² 4,9 °C 4,7 °C 14,5 km/h (3 Bft)
21.12.2018 17:19 6,4 °C 90 % 1014,1 hPa 0,0 mm 11,1 km/h (2 Bft) W-SW 248 ° 0 min 0,000 mm 0,0 UV-I 0 W/m² 4,9 °C 4,1 °C 19,3 km/h (3 Bft)
21.12.2018 17:20 6,4 °C 90 % 1014,0 hPa 0,2 mm 10,9 km/h (2 Bft) W 277 ° 0 min 0,000 mm 0,0 UV-I 0 W/m² 4,9 °C 4,2 °C 14,5 km/h (3 Bft)
21.12.2018 17:21 6,5 °C 90 % 1014,0 hPa 0,0 mm 15,5 km/h (3 Bft) W 265 ° 0 min 0,000 mm 0,0 UV-I 0 W/m² 5,0 °C 3,5 °C 24,1 km/h (4 Bft)
21.12.2018 17:22 6,5 °C 90 % 1014,1 hPa 0,0 mm 11,6 km/h (2 Bft) W 267 ° 0 min 0,000 mm 0,0 UV-I 0 W/m² 5,0 °C 4,1 °C 16,1 km/h (3 Bft)
21.12.2018 17:23 6,5 °C 90 % 1014,0 hPa 0,0 mm 12,8 km/h (3 Bft) W 262 ° 0 min 0,000 mm 0,0 UV-I 0 W/m² 5,0 °C 3,9 °C 20,9 km/h (4 Bft)
21.12.2018 17:24 6,5 °C 90 % 1014,1 hPa 0,0 mm 8,3 km/h (2 Bft) W-SW 256 ° 0 min 0,000 mm 0,0 UV-I 0 W/m² 5,0 °C 4,8 °C 14,5 km/h (3 Bft)
21.12.2018 17:25 6,5 °C 90 % 1014,1 hPa 0,0 mm 10,1 km/h (2 Bft) W 261 ° 0 min 0,000 mm 0,0 UV-I 0 W/m² 5,0 °C 4,4 °C 16,1 km/h (3 Bft)
21.12.2018 17:26 6,6 °C 90 % 1014,1 hPa 0,0 mm 15,5 km/h (3 Bft) W 273 ° 0 min 0,000 mm 0,0 UV-I 0 W/m² 5,1 °C 3,7 °C 24,1 km/h (4 Bft)
21.12.2018 17:27 6,6 °C 90 % 1014,1 hPa 0,0 mm 17,6 km/h (3 Bft) W-NW 298 ° 0 min 0,000 mm 0,0 UV-I 0 W/m² 5,1 °C 3,4 °C 22,5 km/h (4 Bft)
21.12.2018 17:28 6,6 °C 90 % 1014,2 hPa 0,0 mm 15,3 km/h (3 Bft) W-NW 282 ° 0 min 0,000 mm 0,0 UV-I 0 W/m² 5,1 °C 3,7 °C 22,5 km/h (4 Bft)
21.12.2018 17:29 6,6 °C 90 % 1014,3 hPa 0,0 mm 11,1 km/h (2 Bft) W-SW 258 ° 0 min 0,000 mm 0,0 UV-I 0 W/m² 5,1 °C 4,4 °C 16,1 km/h (3 Bft)
21.12.2018 17:30 6,7 °C 90 % 1014,4 hPa 0,0 mm 11,5 km/h (2 Bft) W 264 ° 0 min 0,000 mm 0,0 UV-I 0 W/m² 5,2 °C 4,4 °C 19,3 km/h (3 Bft)
21.12.2018 17:31 6,7 °C 90 % 1014,2 hPa 0,0 mm 12,3 km/h (3 Bft) W-NW 291 ° 0 min 0,000 mm 0,0 UV-I 0 W/m² 5,2 °C 4,3 °C 14,5 km/h (3 Bft)
21.12.2018 17:32 6,7 °C 90 % 1014,3 hPa 0,0 mm 9,9 km/h (2 Bft) W-NW 289 ° 0 min 0,000 mm 0,0 UV-I 0 W/m² 5,2 °C 4,7 °C 16,1 km/h (3 Bft)
21.12.2018 17:33 6,7 °C 89 % 1014,4 hPa 0,0 mm 13,6 km/h (3 Bft) W-SW 257 ° 0 min 0,000 mm 0,0 UV-I 0 W/m² 5,0 °C 4,1 °C 16,1 km/h (3 Bft)
21.12.2018 17:34 6,7 °C 89 % 1014,4 hPa 0,0 mm 9,5 km/h (2 Bft) NW 323 ° 0 min 0,000 mm 0,0 UV-I 0 W/m² 5,0 °C 4,8 °C 20,9 km/h (4 Bft)
21.12.2018 17:35 6,7 °C 89 % 1014,3 hPa 0,0 mm 15,9 km/h (3 Bft) W-SW 255 ° 0 min 0,000 mm 0,0 UV-I 0 W/m² 5,0 °C 3,7 °C 25,7 km/h (4 Bft)
21.12.2018 17:36 6,8 °C 89 % 1014,5 hPa 0,0 mm 15,0 km/h (3 Bft) W 263 ° 0 min 0,000 mm 0,0 UV-I 0 W/m² 5,1 °C 4,0 °C 19,3 km/h (3 Bft)
21.12.2018 17:37 6,8 °C 89 % 1014,4 hPa 0,0 mm 13,2 km/h (3 Bft) W 263 ° 0 min 0,000 mm 0,0 UV-I 0 W/m² 5,1 °C 4,2 °C 16,1 km/h (3 Bft)
21.12.2018 17:38 6,8 °C 89 % 1014,4 hPa 0,0 mm 14,7 km/h (3 Bft) W 263 ° 0 min 0,000 mm 0,0 UV-I 0 W/m² 5,1 °C 4,0 °C 17,7 km/h (3 Bft)
21.12.2018 17:39 6,8 °C 89 % 1014,4 hPa 0,0 mm 15,0 km/h (3 Bft) W 265 ° 0 min 0,000 mm 0,0 UV-I 0 W/m² 5,1 °C 4,0 °C 20,9 km/h (4 Bft)
21.12.2018 17:40 6,8 °C 89 % 1014,4 hPa 0,0 mm 12,4 km/h (3 Bft) W 273 ° 0 min 0,000 mm 0,0 UV-I 0 W/m² 5,1 °C 4,4 °C 22,5 km/h (4 Bft)
21.12.2018 17:41 6,8 °C 89 % 1014,5 hPa 0,0 mm 16,5 km/h (3 Bft) W-SW 244 ° 0 min 0,000 mm 0,0 UV-I 0 W/m² 5,1 °C 3,8 °C 22,5 km/h (4 Bft)
21.12.2018 17:42 6,8 °C 89 % 1014,5 hPa 0,0 mm 12,9 km/h (3 Bft) W 260 ° 0 min 0,000 mm 0,0 UV-I 0 W/m² 5,1 °C 4,3 °C 17,7 km/h (3 Bft)
21.12.2018 17:43 6,8 °C 89 % 1014,5 hPa 0,0 mm 11,9 km/h (2 Bft) W 261 ° 0 min 0,000 mm 0,0 UV-I 0 W/m² 5,1 °C 4,5 °C 16,1 km/h (3 Bft)
21.12.2018 17:44 6,8 °C 89 % 1014,5 hPa 0,0 mm 13,0 km/h (3 Bft) W 271 ° 0 min 0,000 mm 0,0 UV-I 0 W/m² 5,1 °C 4,3 °C 19,3 km/h (3 Bft)
21.12.2018 17:45 6,9 °C 89 % 1014,5 hPa 0,0 mm 14,5 km/h (3 Bft) W-SW 238 ° 0 min 0,000 mm 0,0 UV-I 0 W/m² 5,2 °C 4,2 °C 19,3 km/h (3 Bft)
21.12.2018 17:46 6,9 °C 89 % 1014,4 hPa 0,0 mm 12,8 km/h (3 Bft) W 275 ° 0 min 0,000 mm 0,0 UV-I 0 W/m² 5,2 °C 4,4 °C 16,1 km/h (3 Bft)
21.12.2018 17:47 6,9 °C 88 % 1014,5 hPa 0,0 mm 12,1 km/h (2 Bft) W 259 ° 0 min 0,000 mm 0,0 UV-I 0 W/m² 5,1 °C 4,5 °C 22,5 km/h (4 Bft)
21.12.2018 17:48 6,9 °C 88 % 1014,4 hPa 0,0 mm 11,1 km/h (2 Bft) W-SW 241 ° 0 min 0,000 mm 0,0 UV-I 0 W/m² 5,1 °C 4,7 °C 20,9 km/h (4 Bft)
21.12.2018 17:49 6,9 °C 88 % 1014,4 hPa 0,0 mm 19,1 km/h (3 Bft) W 280 ° 0 min 0,000 mm 0,0 UV-I 0 W/m² 5,1 °C 3,6 °C 29,0 km/h (5 Bft)
21.12.2018 17:50 6,9 °C 88 % 1014,3 hPa 0,0 mm 12,9 km/h (3 Bft) W-SW 249 ° 0 min 0,000 mm 0,0 UV-I 0 W/m² 5,1 °C 4,4 °C 20,9 km/h (4 Bft)
21.12.2018 17:51 6,9 °C 88 % 1014,3 hPa 0,0 mm 15,6 km/h (3 Bft) W-SW 257 ° 0 min 0,000 mm 0,0 UV-I 0 W/m² 5,1 °C 4,0 °C 25,7 km/h (4 Bft)
21.12.2018 17:52 7,0 °C 88 % 1014,3 hPa 0,0 mm 20,4 km/h (4 Bft) W 275 ° 0 min 0,000 mm 0,0 UV-I 0 W/m² 5,2 °C 3,5 °C 37,0 km/h (5 Bft)
21.12.2018 17:53 7,1 °C 88 % 1014,3 hPa 0,0 mm 17,8 km/h (3 Bft) W 265 ° 0 min 0,000 mm 0,0 UV-I 0 W/m² 5,2 °C 4,0 °C 25,7 km/h (4 Bft)
21.12.2018 17:54 7,1 °C 88 % 1014,3 hPa 0,0 mm 14,0 km/h (3 Bft) W 262 ° 0 min 0,000 mm 0,0 UV-I 0 W/m² 5,2 °C 4,5 °C 22,5 km/h (4 Bft)
21.12.2018 17:55 7,1 °C 88 % 1014,3 hPa 0,0 mm 10,6 km/h (2 Bft) SW 234 ° 0 min 0,000 mm 0,0 UV-I 0 W/m² 5,2 °C 5,1 °C 17,7 km/h (3 Bft)
21.12.2018 17:56 7,2 °C 87 % 1014,3 hPa 0,0 mm 14,5 km/h (3 Bft) W 276 ° 0 min 0,000 mm 0,0 UV-I 0 W/m² 5,2 °C 4,5 °C 19,3 km/h (3 Bft)
21.12.2018 17:57 7,2 °C 87 % 1014,4 hPa 0,0 mm 12,8 km/h (3 Bft) W-SW 252 ° 0 min 0,000 mm 0,0 UV-I 0 W/m² 5,2 °C 4,8 °C 19,3 km/h (3 Bft)
21.12.2018 17:58 7,2 °C 87 % 1014,4 hPa 0,0 mm 16,2 km/h (3 Bft) W 279 ° 0 min 0,000 mm 0,0 UV-I 0 W/m² 5,2 °C 4,3 °C 24,1 km/h (4 Bft)
21.12.2018 17:59 7,2 °C 87 % 1014,4 hPa 0,0 mm 19,6 km/h (3 Bft) W 259 ° 0 min 0,000 mm 0,0 UV-I 0 W/m² 5,2 °C 3,9 °C 27,4 km/h (4 Bft)
21.12.2018 18:00 7,2 °C 87 % 1014,2 hPa 0,0 mm 16,0 km/h (3 Bft) W 263 ° 0 min 0,000 mm 0,0 UV-I 0 W/m² 5,2 °C 4,3 °C 24,1 km/h (4 Bft)
21.12.2018 18:01 7,2 °C 87 % 1014,2 hPa 0,0 mm 13,3 km/h (3 Bft) W-NW 287 ° 0 min 0,025 mm 0,0 UV-I 0 W/m² 5,2 °C 4,7 °C 19,3 km/h (3 Bft)
21.12.2018 18:02 7,3 °C 86 % 1014,3 hPa 0,0 mm 21,4 km/h (4 Bft) W-SW 258 ° 0 min 0,000 mm 0,0 UV-I 0 W/m² 5,1 °C 3,8 °C 30,6 km/h (5 Bft)
21.12.2018 18:03 7,3 °C 86 % 1014,3 hPa 0,0 mm 13,5 km/h (3 Bft) W 263 ° 0 min 0,000 mm 0,0 UV-I 0 W/m² 5,1 °C 4,8 °C 19,3 km/h (3 Bft)
21.12.2018 18:04 7,3 °C 86 % 1014,3 hPa 0,0 mm 14,1 km/h (3 Bft) W 263 ° 0 min 0,000 mm 0,0 UV-I 0 W/m² 5,1 °C 4,7 °C 17,7 km/h (3 Bft)
21.12.2018 18:05 7,3 °C 86 % 1014,4 hPa 0,0 mm 11,4 km/h (2 Bft) W-SW 258 ° 0 min 0,000 mm 0,0 UV-I 0 W/m² 5,1 °C 5,1 °C 19,3 km/h (3 Bft)
21.12.2018 18:06 7,4 °C 86 % 1014,4 hPa 0,0 mm 14,5 km/h (3 Bft) W 275 ° 0 min 0,000 mm 0,0 UV-I 0 W/m² 5,2 °C 4,8 °C 22,5 km/h (4 Bft)
21.12.2018 18:07 7,4 °C 86 % 1014,3 hPa 0,0 mm 14,3 km/h (3 Bft) W 279 ° 0 min 0,000 mm 0,0 UV-I 0 W/m² 5,2 °C 4,8 °C 20,9 km/h (4 Bft)
21.12.2018 18:08 7,5 °C 86 % 1014,3 hPa 0,0 mm 17,2 km/h (3 Bft) W 274 ° 0 min 0,000 mm 0,0 UV-I 0 W/m² 5,3 °C 4,5 °C 25,7 km/h (4 Bft)
21.12.2018 18:09 7,5 °C 85 % 1014,3 hPa 0,0 mm 12,3 km/h (3 Bft) W 260 ° 0 min 0,000 mm 0,0 UV-I 0 W/m² 5,1 °C 5,2 °C 16,1 km/h (3 Bft)
21.12.2018 18:10 7,6 °C 85 % 1014,4 hPa 0,0 mm 21,5 km/h (4 Bft) SW 223 ° 0 min 0,000 mm 0,0 UV-I 0 W/m² 5,2 °C 4,2 °C 30,6 km/h (5 Bft)
21.12.2018 18:11 7,6 °C 85 % 1014,3 hPa 0,0 mm 23,7 km/h (4 Bft) W 269 ° 0 min 0,000 mm 0,0 UV-I 0 W/m² 5,2 °C 4,0 °C 33,8 km/h (5 Bft)
21.12.2018 18:12 7,6 °C 85 % 1014,2 hPa 0,0 mm 21,9 km/h (4 Bft) W-SW 252 ° 0 min 0,000 mm 0,0 UV-I 0 W/m² 5,2 °C 4,2 °C 29,0 km/h (5 Bft)
21.12.2018 18:13 7,6 °C 85 % 1014,2 hPa 0,0 mm 16,9 km/h (3 Bft) W-SW 244 ° 0 min 0,000 mm 0,0 UV-I 0 W/m² 5,2 °C 4,7 °C 25,7 km/h (4 Bft)
21.12.2018 18:14 7,7 °C 85 % 1014,3 hPa 0,0 mm 17,8 km/h (3 Bft) W-SW 254 ° 0 min 0,000 mm 0,0 UV-I 0 W/m² 5,3 °C 4,7 °C 25,7 km/h (4 Bft)
21.12.2018 18:15 7,7 °C 84 % 1014,3 hPa 0,0 mm 22,6 km/h (4 Bft) NW 309 ° 0 min 0,000 mm 0,0 UV-I 0 W/m² 5,2 °C 4,2 °C 33,8 km/h (5 Bft)
21.12.2018 18:16 7,7 °C 84 % 1014,2 hPa 0,0 mm 18,3 km/h (3 Bft) W 267 ° 0 min 0,000 mm 0,0 UV-I 0 W/m² 5,2 °C 4,7 °C 30,6 km/h (5 Bft)
21.12.2018 18:17 7,8 °C 84 % 1014,3 hPa 0,0 mm 30,4 km/h (5 Bft) W-SW 256 ° 0 min 0,000 mm 0,0 UV-I 0 W/m² 5,3 °C 3,7 °C 45,1 km/h (6 Bft)
21.12.2018 18:18 7,8 °C 84 % 1014,4 hPa 0,0 mm 29,8 km/h (5 Bft) W 275 ° 0 min 0,000 mm 0,0 UV-I 0 W/m² 5,3 °C 3,7 °C 41,8 km/h (6 Bft)
21.12.2018 18:19 7,8 °C 83 % 1014,0 hPa 0,0 mm 23,9 km/h (4 Bft) W-SW 257 ° 0 min 0,000 mm 0,0 UV-I 0 W/m² 5,1 °C 4,2 °C 41,8 km/h (6 Bft)
21.12.2018 18:20 7,9 °C 84 % 1014,1 hPa 0,0 mm 19,5 km/h (3 Bft) W-SW 256 ° 0 min 0,000 mm 0,0 UV-I 0 W/m² 5,4 °C 4,8 °C 25,7 km/h (4 Bft)
21.12.2018 18:21 7,9 °C 84 % 1014,0 hPa 0,0 mm 19,2 km/h (3 Bft) W 269 ° 0 min 0,000 mm 0,0 UV-I 0 W/m² 5,4 °C 4,8 °C 25,7 km/h (4 Bft)
21.12.2018 18:22 8,0 °C 83 % 1013,9 hPa 0,0 mm 22,9 km/h (4 Bft) NW 309 ° 0 min 0,000 mm 0,0 UV-I 0 W/m² 5,3 °C 4,6 °C 30,6 km/h (5 Bft)
21.12.2018 18:23 8,1 °C 83 % 1014,0 hPa 0,0 mm 16,3 km/h (3 Bft) W 268 ° 0 min 0,000 mm 0,0 UV-I 0 W/m² 5,4 °C 5,4 °C 32,2 km/h (5 Bft)
21.12.2018 18:24 8,1 °C 83 % 1013,9 hPa 0,0 mm 14,0 km/h (3 Bft) W-NW 288 ° 0 min 0,000 mm 0,0 UV-I 0 W/m² 5,4 °C 5,7 °C 30,6 km/h (5 Bft)
21.12.2018 18:25 8,2 °C 83 % 1014,1 hPa 0,0 mm 20,5 km/h (4 Bft) W 266 ° 0 min 0,000 mm 0,0 UV-I 0 W/m² 5,5 °C 5,1 °C 32,2 km/h (5 Bft)
21.12.2018 18:26 8,2 °C 83 % 1014,0 hPa 0,0 mm 20,8 km/h (4 Bft) W 267 ° 0 min 0,000 mm 0,0 UV-I 0 W/m² 5,5 °C 5,0 °C 30,6 km/h (5 Bft)
21.12.2018 18:27 8,3 °C 83 % 1014,1 hPa 0,0 mm 18,5 km/h (3 Bft) W 265 ° 0 min 0,000 mm 0,0 UV-I 0 W/m² 5,6 °C 5,4 °C 32,2 km/h (5 Bft)
21.12.2018 18:28 8,3 °C 82 % 1014,1 hPa 0,0 mm 15,2 km/h (3 Bft) W 277 ° 0 min 0,000 mm 0,0 UV-I 0 W/m² 5,4 °C 5,8 °C 25,7 km/h (4 Bft)
21.12.2018 18:29 8,3 °C 82 % 1014,3 hPa 0,0 mm 19,2 km/h (3 Bft) W-SW 247 ° 0 min 0,000 mm 0,0 UV-I 0 W/m² 5,4 °C 5,3 °C 32,2 km/h (5 Bft)
21.12.2018 18:30 8,4 °C 82 % 1014,2 hPa 0,0 mm 16,4 km/h (3 Bft) W 272 ° 0 min 0,000 mm 0,0 UV-I 0 W/m² 5,5 °C 5,8 °C 24,1 km/h (4 Bft)
21.12.2018 18:31 8,4 °C 82 % 1014,3 hPa 0,0 mm 22,5 km/h (4 Bft) W 265 ° 0 min 0,000 mm 0,0 UV-I 0 W/m² 5,5 °C 5,1 °C 30,6 km/h (5 Bft)
21.12.2018 18:32 8,4 °C 82 % 1014,3 hPa 0,0 mm 16,5 km/h (3 Bft) W-SW 248 ° 0 min 0,000 mm 0,0 UV-I 0 W/m² 5,5 °C 5,8 °C 25,7 km/h (4 Bft)
21.12.2018 18:33 8,5 °C 81 % 1014,3 hPa 0,0 mm 27,1 km/h (4 Bft) W 272 ° 0 min 0,000 mm 0,0 UV-I 0 W/m² 5,4 °C 4,8 °C 40,2 km/h (6 Bft)
21.12.2018 18:34 8,6 °C 81 % 1014,3 hPa 0,0 mm 16,3 km/h (3 Bft) W-SW 242 ° 0 min 0,000 mm 0,0 UV-I 0 W/m² 5,5 °C 6,0 °C 22,5 km/h (4 Bft)
21.12.2018 18:35 8,6 °C 81 % 1014,3 hPa 0,0 mm 11,3 km/h (2 Bft) W-SW 240 ° 0 min 0,000 mm 0,0 UV-I 0 W/m² 5,5 °C 6,7 °C 17,7 km/h (3 Bft)
21.12.2018 18:36 8,6 °C 81 % 1014,3 hPa 0,0 mm 10,9 km/h (2 Bft) W 275 ° 0 min 0,000 mm 0,0 UV-I 0 W/m² 5,5 °C 6,8 °C 16,1 km/h (3 Bft)
21.12.2018 18:37 8,7 °C 81 % 1014,4 hPa 0,0 mm 17,2 km/h (3 Bft) W-SW 258 ° 0 min 0,000 mm 0,0 UV-I 0 W/m² 5,6 °C 6,0 °C 24,1 km/h (4 Bft)
21.12.2018 18:38 8,7 °C 81 % 1014,2 hPa 0,0 mm 19,4 km/h (3 Bft) NW 304 ° 0 min 0,000 mm 0,0 UV-I 0 W/m² 5,6 °C 5,8 °C 25,7 km/h (4 Bft)
21.12.2018 18:39 8,7 °C 81 % 1014,3 hPa 0,0 mm 16,2 km/h (3 Bft) SW 234 ° 0 min 0,000 mm 0,0 UV-I 0 W/m² 5,6 °C 6,2 °C 22,5 km/h (4 Bft)
21.12.2018 18:40 8,7 °C 81 % 1014,3 hPa 0,0 mm 10,1 km/h (2 Bft) W 259 ° 0 min 0,000 mm 0,0 UV-I 0 W/m² 5,6 °C 7,1 °C 16,1 km/h (3 Bft)
21.12.2018 18:41 8,7 °C 81 % 1014,3 hPa 0,0 mm 16,9 km/h (3 Bft) W-NW 284 ° 0 min 0,000 mm 0,0 UV-I 0 W/m² 5,6 °C 6,1 °C 22,5 km/h (4 Bft)
21.12.2018 18:42 8,7 °C 81 % 1014,3 hPa 0,0 mm 20,4 km/h (4 Bft) W-NW 298 ° 0 min 0,000 mm 0,0 UV-I 0 W/m² 5,6 °C 5,7 °C 29,0 km/h (5 Bft)
21.12.2018 18:43 8,7 °C 81 % 1014,3 hPa 0,0 mm 15,7 km/h (3 Bft) W-NW 285 ° 0 min 0,000 mm 0,0 UV-I 0 W/m² 5,6 °C 6,2 °C 22,5 km/h (4 Bft)
21.12.2018 18:44 8,7 °C 81 % 1014,3 hPa 0,0 mm 12,9 km/h (3 Bft) W 265 ° 0 min 0,000 mm 0,0 UV-I 0 W/m² 5,6 °C 6,6 °C 17,7 km/h (3 Bft)
21.12.2018 18:45 8,8 °C 81 % 1014,3 hPa 0,0 mm 12,9 km/h (3 Bft) W 262 ° 0 min 0,000 mm 0,0 UV-I 0 W/m² 5,7 °C 6,7 °C 19,3 km/h (3 Bft)
21.12.2018 18:46 8,8 °C 81 % 1014,3 hPa 0,0 mm 14,3 km/h (3 Bft) W-SW 255 ° 0 min 0,000 mm 0,0 UV-I 0 W/m² 5,7 °C 6,5 °C 22,5 km/h (4 Bft)
21.12.2018 18:47 8,7 °C 81 % 1014,4 hPa 0,0 mm 17,7 km/h (3 Bft) W-NW 293 ° 0 min 0,000 mm 0,0 UV-I 0 W/m² 5,6 °C 6,0 °C 20,9 km/h (4 Bft)
21.12.2018 18:48 8,8 °C 81 % 1014,4 hPa 0,0 mm 20,5 km/h (4 Bft) W 273 ° 0 min 0,000 mm 0,0 UV-I 0 W/m² 5,7 °C 5,8 °C 37,0 km/h (5 Bft)
21.12.2018 18:49 8,8 °C 81 % 1014,4 hPa 0,0 mm 20,3 km/h (4 Bft) W-SW 238 ° 0 min 0,000 mm 0,0 UV-I 0 W/m² 5,7 °C 5,8 °C 30,6 km/h (5 Bft)
21.12.2018 18:50 8,8 °C 81 % 1014,5 hPa 0,0 mm 15,9 km/h (3 Bft) W 262 ° 0 min 0,000 mm 0,0 UV-I 0 W/m² 5,7 °C 6,3 °C 25,7 km/h (4 Bft)
21.12.2018 18:51 8,8 °C 81 % 1014,4 hPa 0,0 mm 16,8 km/h (3 Bft) W 265 ° 0 min 0,000 mm 0,0 UV-I 0 W/m² 5,7 °C 6,2 °C 29,0 km/h (5 Bft)
21.12.2018 18:52 8,8 °C 81 % 1014,5 hPa 0,0 mm 22,7 km/h (4 Bft) W-NW 284 ° 0 min 0,000 mm 0,0 UV-I 0 W/m² 5,7 °C 5,6 °C 33,8 km/h (5 Bft)
21.12.2018 18:53 8,8 °C 80 % 1014,4 hPa 0,0 mm 14,6 km/h (3 Bft) W-SW 257 ° 0 min 0,000 mm 0,0 UV-I 0 W/m² 5,5 °C 6,5 °C 24,1 km/h (4 Bft)
21.12.2018 18:54 8,8 °C 81 % 1014,4 hPa 0,0 mm 16,6 km/h (3 Bft) W-NW 298 ° 0 min 0,000 mm 0,0 UV-I 0 W/m² 5,7 °C 6,2 °C 24,1 km/h (4 Bft)
21.12.2018 18:55 8,8 °C 80 % 1014,4 hPa 0,0 mm 16,4 km/h (3 Bft) W-SW 253 ° 0 min 0,000 mm 0,0 UV-I 0 W/m² 5,5 °C 6,3 °C 25,7 km/h (4 Bft)
21.12.2018 18:56 8,9 °C 81 % 1014,4 hPa 0,0 mm 18,6 km/h (3 Bft) W 262 ° 0 min 0,000 mm 0,0 UV-I 0 W/m² 5,8 °C 6,1 °C 37,0 km/h (5 Bft)
21.12.2018 18:57 8,9 °C 80 % 1014,3 hPa 0,0 mm 19,8 km/h (3 Bft) W-SW 253 ° 0 min 0,000 mm 0,0 UV-I 0 W/m² 5,6 °C 6,0 °C 29,0 km/h (5 Bft)
21.12.2018 18:58 8,9 °C 80 % 1014,3 hPa 0,0 mm 21,3 km/h (4 Bft) W 261 ° 0 min 0,000 mm 0,0 UV-I 0 W/m² 5,6 °C 5,9 °C 30,6 km/h (5 Bft)
21.12.2018 18:59 8,9 °C 80 % 1014,4 hPa 0,0 mm 18,3 km/h (3 Bft) SW 229 ° 0 min 0,000 mm 0,0 UV-I 0 W/m² 5,6 °C 6,2 °C 25,7 km/h (4 Bft)
21.12.2018 19:00 8,9 °C 80 % 1014,4 hPa 0,0 mm 16,0 km/h (3 Bft) W 260 ° 0 min 0,000 mm 0,0 UV-I 0 W/m² 5,6 °C 6,4 °C 20,9 km/h (4 Bft)
21.12.2018 19:01 8,9 °C 80 % 1014,5 hPa 0,0 mm 14,6 km/h (3 Bft) W-NW 284 ° 0 min 0,025 mm 0,0 UV-I 0 W/m² 5,6 °C 6,6 °C 17,7 km/h (3 Bft)
21.12.2018 19:02 8,9 °C 80 % 1014,4 hPa 0,0 mm 17,3 km/h (3 Bft) W 278 ° 0 min 0,000 mm 0,0 UV-I 0 W/m² 5,6 °C 6,3 °C 30,6 km/h (5 Bft)
21.12.2018 19:03 9,0 °C 80 % 1014,5 hPa 0,0 mm 21,6 km/h (4 Bft) W-NW 285 ° 0 min 0,000 mm 0,0 UV-I 0 W/m² 5,7 °C 6,0 °C 29,0 km/h (5 Bft)
21.12.2018 19:04 9,0 °C 80 % 1014,5 hPa 0,0 mm 16,3 km/h (3 Bft) W 265 ° 0 min 0,000 mm 0,0 UV-I 0 W/m² 5,7 °C 6,5 °C 30,6 km/h (5 Bft)
21.12.2018 19:05 9,0 °C 80 % 1014,5 hPa 0,0 mm 21,8 km/h (4 Bft) W 269 ° 0 min 0,000 mm 0,0 UV-I 0 W/m² 5,7 °C 5,9 °C 29,0 km/h (5 Bft)
21.12.2018 19:06 9,1 °C 80 % 1014,4 hPa 0,0 mm 27,5 km/h (4 Bft) SW 234 ° 0 min 0,000 mm 0,0 UV-I 0 W/m² 5,8 °C 5,6 °C 45,1 km/h (6 Bft)
21.12.2018 19:07 9,1 °C 80 % 1014,5 hPa 0,0 mm 21,6 km/h (4 Bft) W-NW 288 ° 0 min 0,000 mm 0,0 UV-I 0 W/m² 5,8 °C 6,1 °C 33,8 km/h (5 Bft)
21.12.2018 19:08 9,1 °C 80 % 1014,3 hPa 0,0 mm 17,5 km/h (3 Bft) W 261 ° 0 min 0,000 mm 0,0 UV-I 0 W/m² 5,8 °C 6,5 °C 27,4 km/h (4 Bft)
21.12.2018 19:09 9,1 °C 80 % 1014,4 hPa 0,0 mm 20,7 km/h (4 Bft) W-SW 254 ° 0 min 0,000 mm 0,0 UV-I 0 W/m² 5,8 °C 6,2 °C 30,6 km/h (5 Bft)
21.12.2018 19:10 9,2 °C 80 % 1014,4 hPa 0,0 mm 16,5 km/h (3 Bft) W-SW 249 ° 0 min 0,000 mm 0,0 UV-I 0 W/m² 5,9 °C 6,7 °C 24,1 km/h (4 Bft)
21.12.2018 19:11 9,2 °C 80 % 1014,3 hPa 0,0 mm 23,4 km/h (4 Bft) W 261 ° 0 min 0,000 mm 0,0 UV-I 0 W/m² 5,9 °C 6,0 °C 30,6 km/h (5 Bft)
21.12.2018 19:12 9,2 °C 79 % 1014,4 hPa 0,0 mm 21,9 km/h (4 Bft) W 269 ° 0 min 0,000 mm 0,0 UV-I 0 W/m² 5,8 °C 6,2 °C 32,2 km/h (5 Bft)
21.12.2018 19:13 9,2 °C 79 % 1014,4 hPa 0,0 mm 22,4 km/h (4 Bft) W-SW 252 ° 0 min 0,000 mm 0,0 UV-I 0 W/m² 5,8 °C 6,1 °C 30,6 km/h (5 Bft)
21.12.2018 19:14 9,3 °C 79 % 1014,4 hPa 0,0 mm 19,4 km/h (3 Bft) W 270 ° 0 min 0,000 mm 0,0 UV-I 0 W/m² 5,8 °C 6,6 °C 25,7 km/h (4 Bft)
21.12.2018 19:15 9,3 °C 79 % 1014,5 hPa 0,0 mm 11,7 km/h (2 Bft) W-SW 258 ° 0 min 0,000 mm 0,0 UV-I 0 W/m² 5,8 °C 7,5 °C 19,3 km/h (3 Bft)
21.12.2018 19:16 9,3 °C 79 % 1014,4 hPa 0,0 mm 16,0 km/h (3 Bft) W-SW 256 ° 0 min 0,000 mm 0,0 UV-I 0 W/m² 5,8 °C 6,9 °C 20,9 km/h (4 Bft)
21.12.2018 19:17 9,3 °C 79 % 1014,4 hPa 0,0 mm 15,9 km/h (3 Bft) W-SW 250 ° 0 min 0,000 mm 0,0 UV-I 0 W/m² 5,8 °C 6,9 °C 25,7 km/h (4 Bft)
21.12.2018 19:18 9,3 °C 79 % 1014,5 hPa 0,0 mm 14,4 km/h (3 Bft) W 272 ° 0 min 0,000 mm 0,0 UV-I 0 W/m² 5,8 °C 7,1 °C 19,3 km/h (3 Bft)
21.12.2018 19:19 9,3 °C 79 % 1014,5 hPa 0,0 mm 18,4 km/h (3 Bft) W-SW 253 ° 0 min 0,000 mm 0,0 UV-I 0 W/m² 5,8 °C 6,7 °C 32,2 km/h (5 Bft)
21.12.2018 19:20 9,3 °C 79 % 1014,5 hPa 0,0 mm 19,0 km/h (3 Bft) W 268 ° 0 min 0,000 mm 0,0 UV-I 0 W/m² 5,8 °C 6,6 °C 30,6 km/h (5 Bft)
21.12.2018 19:21 9,3 °C 79 % 1014,5 hPa 0,0 mm 15,0 km/h (3 Bft) W-SW 242 ° 0 min 0,000 mm 0,0 UV-I 0 W/m² 5,8 °C 7,1 °C 22,5 km/h (4 Bft)
21.12.2018 19:22 9,3 °C 79 % 1014,6 hPa 0,0 mm 17,6 km/h (3 Bft) W-SW 257 ° 0 min 0,000 mm 0,0 UV-I 0 W/m² 5,8 °C 6,7 °C 30,6 km/h (5 Bft)
21.12.2018 19:23 9,3 °C 79 % 1014,6 hPa 0,0 mm 18,7 km/h (3 Bft) W 268 ° 0 min 0,000 mm 0,0 UV-I 0 W/m² 5,8 °C 6,6 °C 27,4 km/h (4 Bft)
21.12.2018 19:24 9,3 °C 79 % 1014,6 hPa 0,0 mm 17,2 km/h (3 Bft) W 259 ° 0 min 0,000 mm 0,0 UV-I 0 W/m² 5,8 °C 6,8 °C 22,5 km/h (4 Bft)
21.12.2018 19:25 9,3 °C 79 % 1014,5 hPa 0,0 mm 20,5 km/h (4 Bft) W-SW 257 ° 0 min 0,000 mm 0,0 UV-I 0 W/m² 5,8 °C 6,4 °C 33,8 km/h (5 Bft)
21.12.2018 19:26 9,3 °C 79 % 1014,6 hPa 0,0 mm 24,5 km/h (4 Bft) W 281 ° 0 min 0,000 mm 0,0 UV-I 0 W/m² 5,8 °C 6,1 °C 33,8 km/h (5 Bft)
21.12.2018 19:27 9,3 °C 79 % 1014,6 hPa 0,0 mm 22,3 km/h (4 Bft) W-SW 244 ° 0 min 0,000 mm 0,0 UV-I 0 W/m² 5,8 °C 6,3 °C 33,8 km/h (5 Bft)
21.12.2018 19:28 9,4 °C 79 % 1014,6 hPa 0,0 mm 19,0 km/h (3 Bft) W-SW 246 ° 0 min 0,000 mm 0,0 UV-I 0 W/m² 5,9 °C 6,7 °C 24,1 km/h (4 Bft)
21.12.2018 19:29 9,4 °C 79 % 1014,6 hPa 0,0 mm 17,9 km/h (3 Bft) W 269 ° 0 min 0,000 mm 0,0 UV-I 0 W/m² 5,9 °C 6,8 °C 27,4 km/h (4 Bft)
21.12.2018 19:30 9,4 °C 79 % 1014,5 hPa 0,0 mm 24,6 km/h (4 Bft) W-SW 257 ° 0 min 0,000 mm 0,0 UV-I 0 W/m² 5,9 °C 6,2 °C 41,8 km/h (6 Bft)
21.12.2018 19:31 9,4 °C 78 % 1014,6 hPa 0,0 mm 17,8 km/h (3 Bft) W 267 ° 0 min 0,000 mm 0,0 UV-I 0 W/m² 5,8 °C 6,8 °C 24,1 km/h (4 Bft)
21.12.2018 19:32 9,4 °C 79 % 1014,5 hPa 0,0 mm 17,2 km/h (3 Bft) W 266 ° 0 min 0,000 mm 0,0 UV-I 0 W/m² 5,9 °C 6,9 °C 30,6 km/h (5 Bft)
21.12.2018 19:33 9,4 °C 78 % 1014,6 hPa 0,0 mm 25,1 km/h (4 Bft) W-SW 252 ° 0 min 0,000 mm 0,0 UV-I 0 W/m² 5,8 °C 6,2 °C 32,2 km/h (5 Bft)
21.12.2018 19:34 9,4 °C 78 % 1014,5 hPa 0,0 mm 22,0 km/h (4 Bft) W-NW 286 ° 0 min 0,000 mm 0,0 UV-I 0 W/m² 5,8 °C 6,4 °C 30,6 km/h (5 Bft)
21.12.2018 19:35 9,4 °C 78 % 1014,5 hPa 0,0 mm 24,9 km/h (4 Bft) W-SW 250 ° 0 min 0,000 mm 0,0 UV-I 0 W/m² 5,8 °C 6,2 °C 33,8 km/h (5 Bft)
21.12.2018 19:36 9,4 °C 78 % 1014,6 hPa 0,0 mm 24,9 km/h (4 Bft) W-SW 247 ° 0 min 0,000 mm 0,0 UV-I 0 W/m² 5,8 °C 6,2 °C 40,2 km/h (6 Bft)
21.12.2018 19:37 9,4 °C 78 % 1014,6 hPa 0,0 mm 20,2 km/h (4 Bft) W 269 ° 0 min 0,000 mm 0,0 UV-I 0 W/m² 5,8 °C 6,6 °C 27,4 km/h (4 Bft)
21.12.2018 19:38 9,5 °C 78 % 1014,6 hPa 0,0 mm 18,0 km/h (3 Bft) W-SW 255 ° 0 min 0,000 mm 0,0 UV-I 0 W/m² 5,9 °C 7,0 °C 27,4 km/h (4 Bft)
21.12.2018 19:39 9,4 °C 79 % 1014,5 hPa 0,0 mm 18,9 km/h (3 Bft) W 267 ° 0 min 0,000 mm 0,0 UV-I 0 W/m² 5,9 °C 6,7 °C 27,4 km/h (4 Bft)
21.12.2018 19:40 9,5 °C 78 % 1014,6 hPa 0,0 mm 20,9 km/h (4 Bft) W-NW 288 ° 0 min 0,000 mm 0,0 UV-I 0 W/m² 5,9 °C 6,7 °C 29,0 km/h (5 Bft)
21.12.2018 19:41 9,6 °C 78 % 1014,6 hPa 0,0 mm 21,8 km/h (4 Bft) W 259 ° 0 min 0,000 mm 0,0 UV-I 0 W/m² 6,0 °C 6,7 °C 38,6 km/h (5 Bft)
21.12.2018 19:42 9,6 °C 78 % 1014,6 hPa 0,0 mm 24,1 km/h (4 Bft) W-SW 252 ° 0 min 0,000 mm 0,0 UV-I 0 W/m² 6,0 °C 6,5 °C 40,2 km/h (6 Bft)
21.12.2018 19:43 9,6 °C 78 % 1014,6 hPa 0,0 mm 16,0 km/h (3 Bft) SW 236 ° 0 min 0,000 mm 0,0 UV-I 0 W/m² 6,0 °C 7,3 °C 24,1 km/h (4 Bft)
21.12.2018 19:44 9,6 °C 78 % 1014,5 hPa 0,0 mm 25,3 km/h (4 Bft) NW 325 ° 0 min 0,000 mm 0,0 UV-I 0 W/m² 6,0 °C 6,4 °C 35,4 km/h (5 Bft)
21.12.2018 19:45 9,6 °C 78 % 1014,3 hPa 0,0 mm 15,8 km/h (3 Bft) W-SW 256 ° 0 min 0,000 mm 0,0 UV-I 0 W/m² 6,0 °C 7,3 °C 25,7 km/h (4 Bft)
21.12.2018 19:46 9,6 °C 78 % 1014,5 hPa 0,0 mm 20,2 km/h (4 Bft) W 273 ° 0 min 0,000 mm 0,0 UV-I 0 W/m² 6,0 °C 6,9 °C 37,0 km/h (5 Bft)
21.12.2018 19:47 9,6 °C 78 % 1014,4 hPa 0,0 mm 22,3 km/h (4 Bft) W 275 ° 0 min 0,000 mm 0,0 UV-I 0 W/m² 6,0 °C 6,7 °C 35,4 km/h (5 Bft)
21.12.2018 19:48 9,7 °C 78 % 1014,5 hPa 0,0 mm 20,1 km/h (4 Bft) W-SW 249 ° 0 min 0,000 mm 0,0 UV-I 0 W/m² 6,1 °C 7,0 °C 32,2 km/h (5 Bft)
21.12.2018 19:49 9,7 °C 78 % 1014,4 hPa 0,0 mm 14,5 km/h (3 Bft) W 271 ° 0 min 0,000 mm 0,0 UV-I 0 W/m² 6,1 °C 7,6 °C 22,5 km/h (4 Bft)
21.12.2018 19:50 9,7 °C 78 % 1014,4 hPa 0,0 mm 21,9 km/h (4 Bft) W 261 ° 0 min 0,000 mm 0,0 UV-I 0 W/m² 6,1 °C 6,8 °C 32,2 km/h (5 Bft)
21.12.2018 19:51 9,7 °C 78 % 1014,4 hPa 0,0 mm 17,6 km/h (3 Bft) W 263 ° 0 min 0,000 mm 0,0 UV-I 0 W/m² 6,1 °C 7,2 °C 22,5 km/h (4 Bft)
21.12.2018 19:52 9,7 °C 78 % 1014,4 hPa 0,0 mm 17,4 km/h (3 Bft) SW 232 ° 0 min 0,000 mm 0,0 UV-I 0 W/m² 6,1 °C 7,3 °C 25,7 km/h (4 Bft)
21.12.2018 19:53 9,7 °C 78 % 1014,4 hPa 0,0 mm 20,0 km/h (4 Bft) W 264 ° 0 min 0,000 mm 0,0 UV-I 0 W/m² 6,1 °C 7,0 °C 37,0 km/h (5 Bft)
21.12.2018 19:54 9,7 °C 78 % 1014,5 hPa 0,0 mm 25,1 km/h (4 Bft) W 267 ° 0 min 0,000 mm 0,0 UV-I 0 W/m² 6,1 °C 6,5 °C 33,8 km/h (5 Bft)
21.12.2018 19:55 9,7 °C 78 % 1014,5 hPa 0,0 mm 15,4 km/h (3 Bft) NW 304 ° 0 min 0,000 mm 0,0 UV-I 0 W/m² 6,1 °C 7,5 °C 22,5 km/h (4 Bft)
21.12.2018 19:56 9,7 °C 78 % 1014,5 hPa 0,0 mm 17,8 km/h (3 Bft) W-NW 288 ° 0 min 0,000 mm 0,0 UV-I 0 W/m² 6,1 °C 7,2 °C 27,4 km/h (4 Bft)
21.12.2018 19:57 9,7 °C 78 % 1014,5 hPa 0,0 mm 26,8 km/h (4 Bft) W-SW 241 ° 0 min 0,000 mm 0,0 UV-I 0 W/m² 6,1 °C 6,4 °C 30,6 km/h (5 Bft)
21.12.2018 19:58 9,7 °C 78 % 1014,4 hPa 0,0 mm 20,7 km/h (4 Bft) W 261 ° 0 min 0,000 mm 0,0 UV-I 0 W/m² 6,1 °C 6,9 °C 27,4 km/h (4 Bft)
21.12.2018 19:59 9,7 °C 78 % 1014,4 hPa 0,0 mm 22,1 km/h (4 Bft) W-SW 244 ° 0 min 0,000 mm 0,0 UV-I 0 W/m² 6,1 °C 6,8 °C 33,8 km/h (5 Bft)
21.12.2018 20:00 9,7 °C 78 % 1014,5 hPa 0,0 mm 25,5 km/h (4 Bft) W 281 ° 0 min 0,000 mm 0,0 UV-I 0 W/m² 6,1 °C 6,5 °C 33,8 km/h (5 Bft)
21.12.2018 20:01 9,7 °C 78 % 1014,6 hPa 0,0 mm 19,4 km/h (3 Bft) W-SW 257 ° 0 min 0,051 mm 0,0 UV-I 0 W/m² 6,1 °C 7,1 °C 30,6 km/h (5 Bft)
21.12.2018 20:02 9,7 °C 78 % 1014,6 hPa 0,0 mm 17,9 km/h (3 Bft) S-SW 196 ° 0 min 0,000 mm 0,0 UV-I 0 W/m² 6,1 °C 7,2 °C 27,4 km/h (4 Bft)
21.12.2018 20:03 9,8 °C 78 % 1014,6 hPa 0,0 mm 17,6 km/h (3 Bft) W 279 ° 0 min 0,000 mm 0,0 UV-I 0 W/m² 6,1 °C 7,4 °C 29,0 km/h (5 Bft)
21.12.2018 20:04 9,7 °C 78 % 1014,5 hPa 0,0 mm 17,0 km/h (3 Bft) W 259 ° 0 min 0,000 mm 0,0 UV-I 0 W/m² 6,1 °C 7,3 °C 20,9 km/h (4 Bft)
21.12.2018 20:05 9,8 °C 78 % 1014,6 hPa 0,0 mm 24,5 km/h (4 Bft) W-NW 288 ° 0 min 0,000 mm 0,0 UV-I 0 W/m² 6,1 °C 6,7 °C 33,8 km/h (5 Bft)
21.12.2018 20:06 9,7 °C 78 % 1014,6 hPa 0,0 mm 26,3 km/h (4 Bft) W 263 ° 0 min 0,000 mm 0,0 UV-I 0 W/m² 6,1 °C 6,5 °C 38,6 km/h (5 Bft)
21.12.2018 20:07 9,7 °C 78 % 1014,6 hPa 0,0 mm 19,7 km/h (3 Bft) W-SW 251 ° 0 min 0,000 mm 0,0 UV-I 0 W/m² 6,1 °C 7,0 °C 33,8 km/h (5 Bft)
21.12.2018 20:08 9,8 °C 78 % 1014,6 hPa 0,0 mm 20,9 km/h (4 Bft) W-NW 296 ° 0 min 0,000 mm 0,0 UV-I 0 W/m² 6,1 °C 7,0 °C 29,0 km/h (5 Bft)
21.12.2018 20:09 9,7 °C 78 % 1014,5 hPa 0,0 mm 18,7 km/h (3 Bft) W-NW 282 ° 0 min 0,000 mm 0,0 UV-I 0 W/m² 6,1 °C 7,1 °C 25,7 km/h (4 Bft)
21.12.2018 20:10 9,7 °C 78 % 1014,6 hPa 0,0 mm 19,4 km/h (3 Bft) S-SW 205 ° 0 min 0,000 mm 0,0 UV-I 0 W/m² 6,1 °C 7,1 °C 24,1 km/h (4 Bft)
21.12.2018 20:11 9,8 °C 78 % 1014,6 hPa 0,0 mm 15,5 km/h (3 Bft) W 261 ° 0 min 0,000 mm 0,0 UV-I 0 W/m² 6,1 °C 7,6 °C 29,0 km/h (5 Bft)
21.12.2018 20:12 9,7 °C 78 % 1014,5 hPa 0,0 mm 16,3 km/h (3 Bft) W-SW 252 ° 0 min 0,000 mm 0,0 UV-I 0 W/m² 6,1 °C 7,4 °C 19,3 km/h (3 Bft)
21.12.2018 20:13 9,7 °C 78 % 1014,6 hPa 0,0 mm 16,0 km/h (3 Bft) W 261 ° 0 min 0,000 mm 0,0 UV-I 0 W/m² 6,1 °C 7,4 °C 24,1 km/h (4 Bft)
21.12.2018 20:14 9,7 °C 78 % 1014,6 hPa 0,0 mm 17,8 km/h (3 Bft) W-SW 249 ° 0 min 0,000 mm 0,0 UV-I 0 W/m² 6,1 °C 7,2 °C 22,5 km/h (4 Bft)
21.12.2018 20:15 9,7 °C 78 % 1014,6 hPa 0,0 mm 16,2 km/h (3 Bft) W 265 ° 0 min 0,000 mm 0,0 UV-I 0 W/m² 6,1 °C 7,4 °C 24,1 km/h (4 Bft)
21.12.2018 20:16 9,7 °C 78 % 1014,6 hPa 0,0 mm 14,0 km/h (3 Bft) W-SW 258 ° 0 min 0,000 mm 0,0 UV-I 0 W/m² 6,1 °C 7,7 °C 17,7 km/h (3 Bft)
21.12.2018 20:17 9,7 °C 78 % 1014,6 hPa 0,0 mm 18,3 km/h (3 Bft) W 263 ° 0 min 0,000 mm 0,0 UV-I 0 W/m² 6,1 °C 7,2 °C 24,1 km/h (4 Bft)
21.12.2018 20:18 9,7 °C 78 % 1014,7 hPa 0,0 mm 17,4 km/h (3 Bft) W 261 ° 0 min 0,000 mm 0,0 UV-I 0 W/m² 6,1 °C 7,3 °C 25,7 km/h (4 Bft)
21.12.2018 20:19 9,7 °C 78 % 1014,6 hPa 0,0 mm 14,3 km/h (3 Bft) W 259 ° 0 min 0,000 mm 0,0 UV-I 0 W/m² 6,1 °C 7,6 °C 20,9 km/h (4 Bft)
21.12.2018 20:20 9,7 °C 78 % 1014,6 hPa 0,0 mm 15,5 km/h (3 Bft) W 265 ° 0 min 0,000 mm 0,0 UV-I 0 W/m² 6,1 °C 7,5 °C 20,9 km/h (4 Bft)
21.12.2018 20:21 9,7 °C 78 % 1014,6 hPa 0,0 mm 20,6 km/h (4 Bft) W-SW 238 ° 0 min 0,000 mm 0,0 UV-I 0 W/m² 6,1 °C 6,9 °C 30,6 km/h (5 Bft)
21.12.2018 20:22 9,7 °C 78 % 1014,5 hPa 0,0 mm 18,7 km/h (3 Bft) W 270 ° 0 min 0,000 mm 0,0 UV-I 0 W/m² 6,1 °C 7,1 °C 24,1 km/h (4 Bft)
21.12.2018 20:23 9,7 °C 78 % 1014,5 hPa 0,0 mm 16,9 km/h (3 Bft) W 266 ° 0 min 0,000 mm 0,0 UV-I 0 W/m² 6,1 °C 7,3 °C 22,5 km/h (4 Bft)
21.12.2018 20:24 9,7 °C 78 % 1014,6 hPa 0,0 mm 20,2 km/h (4 Bft) W-NW 296 ° 0 min 0,000 mm 0,0 UV-I 0 W/m² 6,1 °C 7,0 °C 27,4 km/h (4 Bft)
21.12.2018 20:25 9,7 °C 78 % 1014,6 hPa 0,0 mm 16,3 km/h (3 Bft) W 261 ° 0 min 0,000 mm 0,0 UV-I 0 W/m² 6,1 °C 7,4 °C 25,7 km/h (4 Bft)
21.12.2018 20:26 9,7 °C 78 % 1014,7 hPa 0,0 mm 15,0 km/h (3 Bft) W-NW 286 ° 0 min 0,000 mm 0,0 UV-I 0 W/m² 6,1 °C 7,5 °C 24,1 km/h (4 Bft)
21.12.2018 20:27 9,7 °C 78 % 1014,7 hPa 0,0 mm 15,9 km/h (3 Bft) W 269 ° 0 min 0,000 mm 0,0 UV-I 0 W/m² 6,1 °C 7,4 °C 22,5 km/h (4 Bft)
21.12.2018 20:28 9,7 °C 79 % 1014,7 hPa 0,0 mm 21,0 km/h (4 Bft) W 271 ° 0 min 0,000 mm 0,0 UV-I 0 W/m² 6,2 °C 6,9 °C 38,6 km/h (5 Bft)
21.12.2018 20:29 9,7 °C 79 % 1014,8 hPa 0,0 mm 18,2 km/h (3 Bft) W 259 ° 0 min 0,000 mm 0,0 UV-I 0 W/m² 6,2 °C 7,2 °C 29,0 km/h (5 Bft)
21.12.2018 20:30 9,6 °C 79 % 1014,7 hPa 0,0 mm 16,4 km/h (3 Bft) W 263 ° 0 min 0,000 mm 0,0 UV-I 0 W/m² 6,1 °C 7,3 °C 22,5 km/h (4 Bft)
21.12.2018 20:31 9,7 °C 79 % 1014,7 hPa 0,0 mm 24,0 km/h (4 Bft) W-SW 249 ° 0 min 0,000 mm 0,0 UV-I 0 W/m² 6,2 °C 6,6 °C 32,2 km/h (5 Bft)
21.12.2018 20:32 9,6 °C 79 % 1014,6 hPa 0,0 mm 19,3 km/h (3 Bft) W-SW 242 ° 0 min 0,000 mm 0,0 UV-I 0 W/m² 6,1 °C 6,9 °C 27,4 km/h (4 Bft)
21.12.2018 20:33 9,6 °C 79 % 1014,7 hPa 0,0 mm 14,3 km/h (3 Bft) W-SW 257 ° 0 min 0,000 mm 0,0 UV-I 0 W/m² 6,1 °C 7,5 °C 24,1 km/h (4 Bft)
21.12.2018 20:34 9,6 °C 79 % 1014,6 hPa 0,0 mm 18,8 km/h (3 Bft) W 278 ° 0 min 0,000 mm 0,0 UV-I 0 W/m² 6,1 °C 7,0 °C 24,1 km/h (4 Bft)
21.12.2018 20:35 9,6 °C 79 % 1014,6 hPa 0,0 mm 16,6 km/h (3 Bft) W-SW 254 ° 0 min 0,000 mm 0,0 UV-I 0 W/m² 6,1 °C 7,2 °C 27,4 km/h (4 Bft)
21.12.2018 20:36 9,6 °C 79 % 1014,6 hPa 0,0 mm 14,7 km/h (3 Bft) W 273 ° 0 min 0,000 mm 0,0 UV-I 0 W/m² 6,1 °C 7,5 °C 19,3 km/h (3 Bft)
21.12.2018 20:37 9,6 °C 79 % 1014,6 hPa 0,0 mm 17,2 km/h (3 Bft) W 271 ° 0 min 0,000 mm 0,0 UV-I 0 W/m² 6,1 °C 7,2 °C 25,7 km/h (4 Bft)
21.12.2018 20:38 9,6 °C 79 % 1014,6 hPa 0,0 mm 17,1 km/h (3 Bft) W-SW 257 ° 0 min 0,000 mm 0,0 UV-I 0 W/m² 6,1 °C 7,2 °C 22,5 km/h (4 Bft)
21.12.2018 20:39 9,6 °C 79 % 1014,7 hPa 0,0 mm 16,9 km/h (3 Bft) W 275 ° 0 min 0,000 mm 0,0 UV-I 0 W/m² 6,1 °C 7,2 °C 25,7 km/h (4 Bft)
21.12.2018 20:40 9,5 °C 79 % 1014,6 hPa 0,0 mm 12,5 km/h (3 Bft) W 269 ° 0 min 0,000 mm 0,0 UV-I 0 W/m² 6,0 °C 7,6 °C 17,7 km/h (3 Bft)
21.12.2018 20:41 9,5 °C 79 % 1014,7 hPa 0,0 mm 24,4 km/h (4 Bft) W-SW 250 ° 0 min 0,000 mm 0,0 UV-I 0 W/m² 6,0 °C 6,3 °C 35,4 km/h (5 Bft)
21.12.2018 20:42 9,5 °C 79 % 1014,7 hPa 0,0 mm 18,0 km/h (3 Bft) W 278 ° 0 min 0,000 mm 0,0 UV-I 0 W/m² 6,0 °C 7,0 °C 25,7 km/h (4 Bft)
21.12.2018 20:43 9,5 °C 79 % 1014,8 hPa 0,0 mm 15,7 km/h (3 Bft) W-NW 289 ° 0 min 0,000 mm 0,0 UV-I 0 W/m² 6,0 °C 7,2 °C 20,9 km/h (4 Bft)
21.12.2018 20:44 9,5 °C 79 % 1014,8 hPa 0,0 mm 19,3 km/h (3 Bft) W-NW 292 ° 0 min 0,000 mm 0,0 UV-I 0 W/m² 6,0 °C 6,8 °C 29,0 km/h (5 Bft)
21.12.2018 20:45 9,5 °C 79 % 1014,7 hPa 0,0 mm 16,3 km/h (3 Bft) W 267 ° 0 min 0,000 mm 0,0 UV-I 0 W/m² 6,0 °C 7,1 °C 20,9 km/h (4 Bft)
21.12.2018 20:46 9,5 °C 79 % 1014,8 hPa 0,0 mm 17,2 km/h (3 Bft) W 277 ° 0 min 0,000 mm 0,0 UV-I 0 W/m² 6,0 °C 7,0 °C 22,5 km/h (4 Bft)
21.12.2018 20:47 9,4 °C 79 % 1014,9 hPa 0,0 mm 24,7 km/h (4 Bft) W 265 ° 0 min 0,000 mm 0,0 UV-I 0 W/m² 5,9 °C 6,2 °C 35,4 km/h (5 Bft)
21.12.2018 20:48 9,4 °C 79 % 1014,9 hPa 0,0 mm 17,5 km/h (3 Bft) W-SW 249 ° 0 min 0,000 mm 0,0 UV-I 0 W/m² 5,9 °C 6,9 °C 22,5 km/h (4 Bft)
21.12.2018 20:49 9,4 °C 80 % 1015,0 hPa 0,0 mm 22,3 km/h (4 Bft) W 267 ° 0 min 0,000 mm 0,0 UV-I 0 W/m² 6,1 °C 6,4 °C 32,2 km/h (5 Bft)
21.12.2018 20:50 9,4 °C 80 % 1014,9 hPa 0,0 mm 16,2 km/h (3 Bft) W 277 ° 0 min 0,000 mm 0,0 UV-I 0 W/m² 6,1 °C 7,0 °C 25,7 km/h (4 Bft)
21.12.2018 20:51 9,5 °C 80 % 1014,9 hPa 0,0 mm 12,6 km/h (3 Bft) W 266 ° 0 min 0,000 mm 0,0 UV-I 0 W/m² 6,2 °C 7,6 °C 19,3 km/h (3 Bft)
21.12.2018 20:52 9,5 °C 79 % 1014,9 hPa 0,0 mm 13,8 km/h (3 Bft) W 262 ° 0 min 0,000 mm 0,0 UV-I 0 W/m² 6,0 °C 7,5 °C 17,7 km/h (3 Bft)
21.12.2018 20:53 9,5 °C 80 % 1014,9 hPa 0,0 mm 11,6 km/h (2 Bft) W 260 ° 0 min 0,000 mm 0,0 UV-I 0 W/m² 6,2 °C 7,8 °C 20,9 km/h (4 Bft)
21.12.2018 20:54 9,5 °C 80 % 1014,9 hPa 0,0 mm 18,0 km/h (3 Bft) W-SW 258 ° 0 min 0,000 mm 0,0 UV-I 0 W/m² 6,2 °C 7,0 °C 24,1 km/h (4 Bft)
21.12.2018 20:55 9,5 °C 80 % 1015,0 hPa 0,0 mm 13,6 km/h (3 Bft) SW 222 ° 0 min 0,000 mm 0,0 UV-I 0 W/m² 6,2 °C 7,5 °C 27,4 km/h (4 Bft)
21.12.2018 20:56 9,4 °C 80 % 1015,0 hPa 0,0 mm 17,5 km/h (3 Bft) W-NW 283 ° 0 min 0,000 mm 0,0 UV-I 0 W/m² 6,1 °C 6,9 °C 29,0 km/h (5 Bft)
21.12.2018 20:57 9,4 °C 79 % 1015,0 hPa 0,0 mm 13,8 km/h (3 Bft) W-SW 240 ° 0 min 0,000 mm 0,0 UV-I 0 W/m² 5,9 °C 7,3 °C 24,1 km/h (4 Bft)
21.12.2018 20:58 9,4 °C 80 % 1015,0 hPa 0,0 mm 14,8 km/h (3 Bft) W-NW 292 ° 0 min 0,000 mm 0,0 UV-I 0 W/m² 6,1 °C 7,2 °C 37,0 km/h (5 Bft)
21.12.2018 20:59 9,4 °C 80 % 1015,0 hPa 0,0 mm 19,6 km/h (3 Bft) W 259 ° 0 min 0,000 mm 0,0 UV-I 0 W/m² 6,1 °C 6,7 °C 30,6 km/h (5 Bft)
21.12.2018 21:00 9,5 °C 80 % 1014,9 hPa 0,0 mm 14,6 km/h (3 Bft) W-SW 242 ° 0 min 0,000 mm 0,0 UV-I 0 W/m² 6,2 °C 7,3 °C 27,4 km/h (4 Bft)
21.12.2018 21:01 9,5 °C 80 % 1015,0 hPa 0,0 mm 14,6 km/h (3 Bft) SW 226 ° 0 min 0,051 mm 0,0 UV-I 0 W/m² 6,2 °C 7,3 °C 27,4 km/h (4 Bft)
21.12.2018 21:02 9,4 °C 80 % 1015,0 hPa 0,0 mm 18,6 km/h (3 Bft) W-SW 247 ° 0 min 0,000 mm 0,0 UV-I 0 W/m² 6,1 °C 6,8 °C 27,4 km/h (4 Bft)
21.12.2018 21:03 9,5 °C 80 % 1015,0 hPa 0,0 mm 18,3 km/h (3 Bft) W 281 ° 0 min 0,000 mm 0,0 UV-I 0 W/m² 6,2 °C 6,9 °C 22,5 km/h (4 Bft)
21.12.2018 21:04 9,4 °C 80 % 1015,0 hPa 0,0 mm 14,8 km/h (3 Bft) W 269 ° 0 min 0,000 mm 0,0 UV-I 0 W/m² 6,1 °C 7,2 °C 19,3 km/h (3 Bft)
21.12.2018 21:05 9,5 °C 80 % 1015,0 hPa 0,0 mm 12,7 km/h (3 Bft) W-SW 257 ° 0 min 0,000 mm 0,0 UV-I 0 W/m² 6,2 °C 7,6 °C 16,1 km/h (3 Bft)
21.12.2018 21:06 9,5 °C 80 % 1015,0 hPa 0,0 mm 16,8 km/h (3 Bft) W-SW 246 ° 0 min 0,000 mm 0,0 UV-I 0 W/m² 6,2 °C 7,1 °C 24,1 km/h (4 Bft)
21.12.2018 21:07 9,5 °C 80 % 1015,0 hPa 0,0 mm 16,7 km/h (3 Bft) W 266 ° 0 min 0,000 mm 0,0 UV-I 0 W/m² 6,2 °C 7,1 °C 24,1 km/h (4 Bft)
21.12.2018 21:08 9,4 °C 80 % 1015,1 hPa 0,0 mm 16,0 km/h (3 Bft) W 273 ° 0 min 0,000 mm 0,0 UV-I 0 W/m² 6,1 °C 7,1 °C 22,5 km/h (4 Bft)
21.12.2018 21:09 9,4 °C 80 % 1015,2 hPa 0,0 mm 11,2 km/h (2 Bft) W-SW 251 ° 0 min 0,000 mm 0,0 UV-I 0 W/m² 6,1 °C 7,7 °C 19,3 km/h (3 Bft)
21.12.2018 21:10 9,4 °C 80 % 1015,2 hPa 0,0 mm 16,7 km/h (3 Bft) W-NW 285 ° 0 min 0,000 mm 0,0 UV-I 0 W/m² 6,1 °C 7,0 °C 27,4 km/h (4 Bft)
21.12.2018 21:11 9,4 °C 81 % 1015,1 hPa 0,0 mm 18,1 km/h (3 Bft) W 259 ° 0 min 0,000 mm 0,0 UV-I 0 W/m² 6,3 °C 6,8 °C 27,4 km/h (4 Bft)
21.12.2018 21:12 9,4 °C 80 % 1015,1 hPa 0,0 mm 17,4 km/h (3 Bft) W 265 ° 0 min 0,000 mm 0,0 UV-I 0 W/m² 6,1 °C 6,9 °C 25,7 km/h (4 Bft)
21.12.2018 21:13 9,4 °C 80 % 1015,1 hPa 0,0 mm 13,5 km/h (3 Bft) W 267 ° 0 min 0,000 mm 0,0 UV-I 0 W/m² 6,1 °C 7,4 °C 24,1 km/h (4 Bft)
21.12.2018 21:14 9,3 °C 81 % 1015,1 hPa 0,0 mm 23,7 km/h (4 Bft) SW 221 ° 0 min 0,000 mm 0,0 UV-I 0 W/m² 6,2 °C 6,2 °C 38,6 km/h (5 Bft)
21.12.2018 21:15 9,3 °C 80 % 1015,1 hPa 0,0 mm 19,5 km/h (3 Bft) W-SW 248 ° 0 min 0,000 mm 0,0 UV-I 0 W/m² 6,0 °C 6,5 °C 38,6 km/h (5 Bft)
21.12.2018 21:16 9,3 °C 81 % 1015,1 hPa 0,0 mm 13,1 km/h (3 Bft) W 265 ° 0 min 0,000 mm 0,0 UV-I 0 W/m² 6,2 °C 7,3 °C 17,7 km/h (3 Bft)
21.12.2018 21:17 9,3 °C 81 % 1015,2 hPa 0,0 mm 18,7 km/h (3 Bft) W-SW 254 ° 0 min 0,000 mm 0,0 UV-I 0 W/m² 6,2 °C 6,6 °C 29,0 km/h (5 Bft)
21.12.2018 21:18 9,3 °C 81 % 1015,1 hPa 0,0 mm 17,4 km/h (3 Bft) W-SW 257 ° 0 min 0,000 mm 0,0 UV-I 0 W/m² 6,2 °C 6,8 °C 24,1 km/h (4 Bft)
21.12.2018 21:19 9,3 °C 81 % 1015,1 hPa 0,0 mm 14,7 km/h (3 Bft) W 263 ° 0 min 0,000 mm 0,0 UV-I 0 W/m² 6,2 °C 7,1 °C 19,3 km/h (3 Bft)
21.12.2018 21:20 9,3 °C 81 % 1015,2 hPa 0,0 mm 15,9 km/h (3 Bft) W-SW 257 ° 0 min 0,000 mm 0,0 UV-I 0 W/m² 6,2 °C 6,9 °C 22,5 km/h (4 Bft)
21.12.2018 21:21 9,2 °C 81 % 1015,2 hPa 0,0 mm 20,7 km/h (4 Bft) W 276 ° 0 min 0,000 mm 0,0 UV-I 0 W/m² 6,1 °C 6,3 °C 32,2 km/h (5 Bft)
21.12.2018 21:22 9,2 °C 81 % 1015,3 hPa 0,0 mm 21,3 km/h (4 Bft) W 273 ° 0 min 0,000 mm 0,0 UV-I 0 W/m² 6,1 °C 6,2 °C 29,0 km/h (5 Bft)
21.12.2018 21:23 9,2 °C 81 % 1015,3 hPa 0,0 mm 18,3 km/h (3 Bft) NW 306 ° 0 min 0,000 mm 0,0 UV-I 0 W/m² 6,1 °C 6,5 °C 20,9 km/h (4 Bft)
21.12.2018 21:24 9,2 °C 81 % 1015,3 hPa 0,0 mm 13,7 km/h (3 Bft) W-SW 258 ° 0 min 0,000 mm 0,0 UV-I 0 W/m² 6,1 °C 7,1 °C 17,7 km/h (3 Bft)
21.12.2018 21:25 9,2 °C 81 % 1015,3 hPa 0,0 mm 15,8 km/h (3 Bft) W 269 ° 0 min 0,000 mm 0,0 UV-I 0 W/m² 6,1 °C 6,8 °C 22,5 km/h (4 Bft)
21.12.2018 21:26 9,2 °C 81 % 1015,3 hPa 0,0 mm 20,0 km/h (4 Bft) W 265 ° 0 min 0,000 mm 0,0 UV-I 0 W/m² 6,1 °C 6,4 °C 30,6 km/h (5 Bft)
21.12.2018 21:27 9,2 °C 81 % 1015,3 hPa 0,0 mm 18,3 km/h (3 Bft) W 268 ° 0 min 0,000 mm 0,0 UV-I 0 W/m² 6,1 °C 6,5 °C 27,4 km/h (4 Bft)
21.12.2018 21:28 9,2 °C 81 % 1015,4 hPa 0,0 mm 14,7 km/h (3 Bft) W 259 ° 0 min 0,000 mm 0,0 UV-I 0 W/m² 6,1 °C 7,0 °C 19,3 km/h (3 Bft)
21.12.2018 21:29 9,3 °C 81 % 1015,3 hPa 0,0 mm 10,9 km/h (2 Bft) W 271 ° 0 min 0,000 mm 0,0 UV-I 0 W/m² 6,2 °C 7,6 °C 16,1 km/h (3 Bft)
21.12.2018 21:30 9,2 °C 81 % 1015,3 hPa 0,0 mm 12,5 km/h (3 Bft) W 262 ° 0 min 0,000 mm 0,0 UV-I 0 W/m² 6,1 °C 7,3 °C 17,7 km/h (3 Bft)
21.12.2018 21:31 9,2 °C 81 % 1015,3 hPa 0,0 mm 9,1 km/h (2 Bft) W 273 ° 0 min 0,000 mm 0,0 UV-I 0 W/m² 6,1 °C 7,8 °C 12,9 km/h (3 Bft)
21.12.2018 21:32 9,2 °C 81 % 1015,4 hPa 0,0 mm 16,8 km/h (3 Bft) W 281 ° 0 min 0,000 mm 0,0 UV-I 0 W/m² 6,1 °C 6,7 °C 25,7 km/h (4 Bft)
21.12.2018 21:33 9,2 °C 81 % 1015,3 hPa 0,0 mm 18,3 km/h (3 Bft) W-SW 251 ° 0 min 0,000 mm 0,0 UV-I 0 W/m² 6,1 °C 6,5 °C 27,4 km/h (4 Bft)
21.12.2018 21:34 9,2 °C 81 % 1015,3 hPa 0,0 mm 14,3 km/h (3 Bft) W-SW 250 ° 0 min 0,000 mm 0,0 UV-I 0 W/m² 6,1 °C 7,0 °C 22,5 km/h (4 Bft)
21.12.2018 21:35 9,2 °C 81 % 1015,3 hPa 0,0 mm 12,4 km/h (3 Bft) W-SW 253 ° 0 min 0,000 mm 0,0 UV-I 0 W/m² 6,1 °C 7,3 °C 16,1 km/h (3 Bft)
21.12.2018 21:36 9,2 °C 81 % 1015,3 hPa 0,0 mm 14,5 km/h (3 Bft) W 270 ° 0 min 0,000 mm 0,0 UV-I 0 W/m² 6,1 °C 7,0 °C 22,5 km/h (4 Bft)
21.12.2018 21:37 9,2 °C 81 % 1015,3 hPa 0,0 mm 15,5 km/h (3 Bft) W 277 ° 0 min 0,000 mm 0,0 UV-I 0 W/m² 6,1 °C 6,9 °C 22,5 km/h (4 Bft)
21.12.2018 21:38 9,2 °C 81 % 1015,2 hPa 0,0 mm 14,9 km/h (3 Bft) W-SW 246 ° 0 min 0,000 mm 0,0 UV-I 0 W/m² 6,1 °C 6,9 °C 19,3 km/h (3 Bft)
21.12.2018 21:39 9,2 °C 81 % 1015,2 hPa 0,0 mm 12,3 km/h (3 Bft) W 261 ° 0 min 0,000 mm 0,0 UV-I 0 W/m² 6,1 °C 7,3 °C 17,7 km/h (3 Bft)
21.12.2018 21:40 9,2 °C 81 % 1015,2 hPa 0,0 mm 12,2 km/h (2 Bft) W-SW 246 ° 0 min 0,000 mm 0,0 UV-I 0 W/m² 6,1 °C 7,3 °C 20,9 km/h (4 Bft)
21.12.2018 21:41 9,2 °C 82 % 1015,2 hPa 0,0 mm 13,9 km/h (3 Bft) W 261 ° 0 min 0,000 mm 0,0 UV-I 0 W/m² 6,3 °C 7,1 °C 20,9 km/h (4 Bft)
21.12.2018 21:42 9,2 °C 82 % 1015,2 hPa 0,0 mm 13,5 km/h (3 Bft) W 272 ° 0 min 0,000 mm 0,0 UV-I 0 W/m² 6,3 °C 7,1 °C 17,7 km/h (3 Bft)
21.12.2018 21:43 9,2 °C 82 % 1015,2 hPa 0,0 mm 13,0 km/h (3 Bft) W-SW 249 ° 0 min 0,000 mm 0,0 UV-I 0 W/m² 6,3 °C 7,2 °C 17,7 km/h (3 Bft)
21.12.2018 21:44 9,2 °C 82 % 1015,2 hPa 0,0 mm 17,2 km/h (3 Bft) SW 236 ° 0 min 0,000 mm 0,0 UV-I 0 W/m² 6,3 °C 6,7 °C 24,1 km/h (4 Bft)
21.12.2018 21:45 9,2 °C 82 % 1015,2 hPa 0,0 mm 14,7 km/h (3 Bft) W-SW 254 ° 0 min 0,000 mm 0,0 UV-I 0 W/m² 6,3 °C 7,0 °C 24,1 km/h (4 Bft)
21.12.2018 21:46 9,2 °C 81 % 1015,2 hPa 0,0 mm 15,5 km/h (3 Bft) W 269 ° 0 min 0,000 mm 0,0 UV-I 0 W/m² 6,1 °C 6,9 °C 24,1 km/h (4 Bft)
21.12.2018 21:47 9,2 °C 81 % 1015,2 hPa 0,0 mm 11,2 km/h (2 Bft) W 259 ° 0 min 0,000 mm 0,0 UV-I 0 W/m² 6,1 °C 7,5 °C 22,5 km/h (4 Bft)
21.12.2018 21:48 9,2 °C 81 % 1015,2 hPa 0,0 mm 13,9 km/h (3 Bft) W 262 ° 0 min 0,000 mm 0,0 UV-I 0 W/m² 6,1 °C 7,1 °C 19,3 km/h (3 Bft)
21.12.2018 21:49 9,2 °C 81 % 1015,2 hPa 0,0 mm 19,0 km/h (3 Bft) W 275 ° 0 min 0,000 mm 0,0 UV-I 0 W/m² 6,1 °C 6,5 °C 30,6 km/h (5 Bft)
21.12.2018 21:50 9,2 °C 81 % 1015,2 hPa 0,0 mm 15,4 km/h (3 Bft) W-SW 258 ° 0 min 0,000 mm 0,0 UV-I 0 W/m² 6,1 °C 6,9 °C 20,9 km/h (4 Bft)
21.12.2018 21:51 9,2 °C 81 % 1015,3 hPa 0,0 mm 10,6 km/h (2 Bft) SW 217 ° 0 min 0,000 mm 0,0 UV-I 0 W/m² 6,1 °C 7,6 °C 19,3 km/h (3 Bft)
21.12.2018 21:52 9,2 °C 81 % 1015,3 hPa 0,0 mm 20,6 km/h (4 Bft) SW 233 ° 0 min 0,000 mm 0,0 UV-I 0 W/m² 6,1 °C 6,3 °C 32,2 km/h (5 Bft)
21.12.2018 21:53 9,2 °C 81 % 1015,2 hPa 0,0 mm 16,4 km/h (3 Bft) W-SW 254 ° 0 min 0,000 mm 0,0 UV-I 0 W/m² 6,1 °C 6,8 °C 22,5 km/h (4 Bft)
21.12.2018 21:54 9,2 °C 81 % 1015,2 hPa 0,0 mm 16,0 km/h (3 Bft) W-SW 252 ° 0 min 0,000 mm 0,0 UV-I 0 W/m² 6,1 °C 6,8 °C 19,3 km/h (3 Bft)
21.12.2018 21:55 9,2 °C 81 % 1015,2 hPa 0,0 mm 14,3 km/h (3 Bft) SW 235 ° 0 min 0,000 mm 0,0 UV-I 0 W/m² 6,1 °C 7,0 °C 20,9 km/h (4 Bft)
21.12.2018 21:56 9,2 °C 81 % 1015,3 hPa 0,0 mm 13,8 km/h (3 Bft) W-NW 286 ° 0 min 0,000 mm 0,0 UV-I 0 W/m² 6,1 °C 7,1 °C 17,7 km/h (3 Bft)
21.12.2018 21:57 9,2 °C 81 % 1015,3 hPa 0,0 mm 14,5 km/h (3 Bft) W 263 ° 0 min 0,000 mm 0,0 UV-I 0 W/m² 6,1 °C 7,0 °C 19,3 km/h (3 Bft)
21.12.2018 21:58 9,2 °C 81 % 1015,3 hPa 0,0 mm 11,9 km/h (2 Bft) W-SW 250 ° 0 min 0,000 mm 0,0 UV-I 0 W/m² 6,1 °C 7,4 °C 20,9 km/h (4 Bft)
21.12.2018 21:59 9,2 °C 81 % 1015,3 hPa 0,0 mm 10,1 km/h (2 Bft) W-NW 292 ° 0 min 0,000 mm 0,0 UV-I 0 W/m² 6,1 °C 7,7 °C 14,5 km/h (3 Bft)
21.12.2018 22:00 9,2 °C 81 % 1015,2 hPa 0,0 mm 16,0 km/h (3 Bft) W 259 ° 0 min 0,000 mm 0,0 UV-I 0 W/m² 6,1 °C 6,8 °C 20,9 km/h (4 Bft)
21.12.2018 22:01 9,2 °C 81 % 1015,2 hPa 0,0 mm 6,7 km/h (2 Bft) W-SW 238 ° 0 min 0,025 mm 0,0 UV-I 0 W/m² 6,1 °C 8,4 °C 8,0 km/h (2 Bft)
21.12.2018 22:02 9,2 °C 81 % 1015,2 hPa 0,0 mm 10,4 km/h (2 Bft) W-SW 254 ° 0 min 0,000 mm 0,0 UV-I 0 W/m² 6,1 °C 7,6 °C 17,7 km/h (3 Bft)
21.12.2018 22:03 9,2 °C 81 % 1015,2 hPa 0,0 mm 12,7 km/h (3 Bft) W-SW 252 ° 0 min 0,000 mm 0,0 UV-I 0 W/m² 6,1 °C 7,2 °C 19,3 km/h (3 Bft)
21.12.2018 22:04 9,2 °C 81 % 1015,2 hPa 0,0 mm 12,7 km/h (3 Bft) W 263 ° 0 min 0,000 mm 0,0 UV-I 0 W/m² 6,1 °C 7,2 °C 16,1 km/h (3 Bft)
21.12.2018 22:05 9,2 °C 81 % 1015,2 hPa 0,0 mm 13,5 km/h (3 Bft) W 269 ° 0 min 0,000 mm 0,0 UV-I 0 W/m² 6,1 °C 7,1 °C 16,1 km/h (3 Bft)
21.12.2018 22:06 9,2 °C 81 % 1015,2 hPa 0,0 mm 10,0 km/h (2 Bft) W-NW 288 ° 0 min 0,000 mm 0,0 UV-I 0 W/m² 6,1 °C 7,7 °C 12,9 km/h (3 Bft)
21.12.2018 22:07 9,2 °C 81 % 1015,2 hPa 0,0 mm 13,9 km/h (3 Bft) W 261 ° 0 min 0,000 mm 0,0 UV-I 0 W/m² 6,1 °C 7,1 °C 17,7 km/h (3 Bft)
21.12.2018 22:08 9,2 °C 81 % 1015,2 hPa 0,0 mm 11,3 km/h (2 Bft) W 271 ° 0 min 0,000 mm 0,0 UV-I 0 W/m² 6,1 °C 7,5 °C 14,5 km/h (3 Bft)
21.12.2018 22:09 9,2 °C 81 % 1015,2 hPa 0,0 mm 14,9 km/h (3 Bft) W 259 ° 0 min 0,000 mm 0,0 UV-I 0 W/m² 6,1 °C 6,9 °C 19,3 km/h (3 Bft)
21.12.2018 22:10 9,2 °C 81 % 1015,2 hPa 0,0 mm 16,5 km/h (3 Bft) W 274 ° 0 min 0,000 mm 0,0 UV-I 0 W/m² 6,1 °C 6,7 °C 24,1 km/h (4 Bft)
21.12.2018 22:11 9,1 °C 81 % 1015,2 hPa 0,0 mm 9,2 km/h (2 Bft) W 271 ° 0 min 0,000 mm 0,0 UV-I 0 W/m² 6,0 °C 7,7 °C 16,1 km/h (3 Bft)
21.12.2018 22:12 9,2 °C 81 % 1015,2 hPa 0,0 mm 14,5 km/h (3 Bft) W-SW 257 ° 0 min 0,000 mm 0,0 UV-I 0 W/m² 6,1 °C 7,0 °C 22,5 km/h (4 Bft)
21.12.2018 22:13 9,1 °C 81 % 1015,2 hPa 0,0 mm 16,1 km/h (3 Bft) W 264 ° 0 min 0,000 mm 0,0 UV-I 0 W/m² 6,0 °C 6,7 °C 19,3 km/h (3 Bft)
21.12.2018 22:14 9,1 °C 81 % 1015,2 hPa 0,0 mm 11,3 km/h (2 Bft) W 264 ° 0 min 0,000 mm 0,0 UV-I 0 W/m² 6,0 °C 7,3 °C 14,5 km/h (3 Bft)
21.12.2018 22:15 9,1 °C 81 % 1015,1 hPa 0,0 mm 14,3 km/h (3 Bft) W 260 ° 0 min 0,000 mm 0,0 UV-I 0 W/m² 6,0 °C 6,9 °C 17,7 km/h (3 Bft)
21.12.2018 22:16 9,1 °C 82 % 1015,2 hPa 0,0 mm 14,1 km/h (3 Bft) W-NW 296 ° 0 min 0,000 mm 0,0 UV-I 0 W/m² 6,2 °C 6,9 °C 24,1 km/h (4 Bft)
21.12.2018 22:17 9,1 °C 82 % 1015,2 hPa 0,0 mm 18,4 km/h (3 Bft) W 274 ° 0 min 0,000 mm 0,0 UV-I 0 W/m² 6,2 °C 6,4 °C 24,1 km/h (4 Bft)
21.12.2018 22:18 9,1 °C 82 % 1015,2 hPa 0,0 mm 11,9 km/h (2 Bft) W 262 ° 0 min 0,000 mm 0,0 UV-I 0 W/m² 6,2 °C 7,2 °C 19,3 km/h (3 Bft)
21.12.2018 22:19 9,0 °C 82 % 1015,2 hPa 0,0 mm 14,9 km/h (3 Bft) SW 220 ° 0 min 0,000 mm 0,0 UV-I 0 W/m² 6,1 °C 6,7 °C 19,3 km/h (3 Bft)
21.12.2018 22:20 9,1 °C 82 % 1015,2 hPa 0,0 mm 10,4 km/h (2 Bft) W-SW 247 ° 0 min 0,000 mm 0,0 UV-I 0 W/m² 6,2 °C 7,5 °C 17,7 km/h (3 Bft)
21.12.2018 22:21 9,1 °C 83 % 1015,1 hPa 0,0 mm 9,3 km/h (2 Bft) W 278 ° 0 min 0,000 mm 0,0 UV-I 0 W/m² 6,4 °C 7,7 °C 14,5 km/h (3 Bft)
21.12.2018 22:22 9,0 °C 83 % 1015,1 hPa 0,0 mm 11,1 km/h (2 Bft) W-SW 253 ° 0 min 0,000 mm 0,0 UV-I 0 W/m² 6,3 °C 7,2 °C 19,3 km/h (3 Bft)
21.12.2018 22:23 9,0 °C 83 % 1015,1 hPa 0,0 mm 13,5 km/h (3 Bft) W-SW 251 ° 0 min 0,000 mm 0,0 UV-I 0 W/m² 6,3 °C 6,9 °C 19,3 km/h (3 Bft)
21.12.2018 22:24 9,0 °C 83 % 1015,1 hPa 0,0 mm 10,5 km/h (2 Bft) W 277 ° 0 min 0,000 mm 0,0 UV-I 0 W/m² 6,3 °C 7,3 °C 12,9 km/h (3 Bft)
21.12.2018 22:25 8,9 °C 83 % 1015,1 hPa 0,0 mm 7,4 km/h (2 Bft) W-SW 253 ° 0 min 0,000 mm 0,0 UV-I 0 W/m² 6,2 °C 7,9 °C 11,3 km/h (2 Bft)
21.12.2018 22:26 8,9 °C 83 % 1015,1 hPa 0,0 mm 11,0 km/h (2 Bft) W-SW 251 ° 0 min 0,000 mm 0,0 UV-I 0 W/m² 6,2 °C 7,1 °C 16,1 km/h (3 Bft)
21.12.2018 22:27 8,9 °C 84 % 1015,0 hPa 0,0 mm 7,3 km/h (2 Bft) W-SW 246 ° 0 min 0,000 mm 0,0 UV-I 0 W/m² 6,3 °C 7,9 °C 14,5 km/h (3 Bft)
21.12.2018 22:28 8,9 °C 84 % 1015,1 hPa 0,0 mm 7,3 km/h (2 Bft) SW 230 ° 0 min 0,000 mm 0,0 UV-I 0 W/m² 6,3 °C 7,9 °C 9,7 km/h (2 Bft)
21.12.2018 22:29 8,9 °C 84 % 1015,1 hPa 0,0 mm 6,3 km/h (2 Bft) W 261 ° 0 min 0,000 mm 0,0 UV-I 0 W/m² 6,3 °C 8,1 °C 9,7 km/h (2 Bft)
21.12.2018 22:30 8,9 °C 84 % 1015,1 hPa 0,0 mm 6,7 km/h (2 Bft) SW 232 ° 0 min 0,000 mm 0,0 UV-I 0 W/m² 6,3 °C 8,0 °C 11,3 km/h (2 Bft)
21.12.2018 22:31 8,8 °C 84 % 1015,1 hPa 0,0 mm 8,0 km/h (2 Bft) W 265 ° 0 min 0,000 mm 0,0 UV-I 0 W/m² 6,2 °C 7,6 °C 12,9 km/h (3 Bft)
21.12.2018 22:32 8,8 °C 84 % 1015,1 hPa 0,0 mm 11,7 km/h (2 Bft) W 270 ° 0 min 0,000 mm 0,0 UV-I 0 W/m² 6,2 °C 6,9 °C 16,1 km/h (3 Bft)
21.12.2018 22:33 8,8 °C 84 % 1015,1 hPa 0,0 mm 13,8 km/h (3 Bft) W 264 ° 0 min 0,000 mm 0,0 UV-I 0 W/m² 6,2 °C 6,6 °C 17,7 km/h (3 Bft)
21.12.2018 22:34 8,8 °C 84 % 1015,1 hPa 0,0 mm 15,9 km/h (3 Bft) W 271 ° 0 min 0,000 mm 0,0 UV-I 0 W/m² 6,2 °C 6,3 °C 19,3 km/h (3 Bft)
21.12.2018 22:35 8,7 °C 84 % 1015,1 hPa 0,0 mm 10,9 km/h (2 Bft) W 273 ° 0 min 0,000 mm 0,0 UV-I 0 W/m² 6,2 °C 6,9 °C 14,5 km/h (3 Bft)
21.12.2018 22:36 8,7 °C 84 % 1015,0 hPa 0,0 mm 10,2 km/h (2 Bft) W 266 ° 0 min 0,000 mm 0,0 UV-I 0 W/m² 6,2 °C 7,0 °C 16,1 km/h (3 Bft)
21.12.2018 22:37 8,7 °C 84 % 1015,1 hPa 0,0 mm 8,4 km/h (2 Bft) W 274 ° 0 min 0,000 mm 0,0 UV-I 0 W/m² 6,2 °C 7,4 °C 11,3 km/h (2 Bft)
21.12.2018 22:38 8,7 °C 85 % 1015,2 hPa 0,0 mm 11,3 km/h (2 Bft) W 262 ° 0 min 0,000 mm 0,0 UV-I 0 W/m² 6,3 °C 6,9 °C 14,5 km/h (3 Bft)
21.12.2018 22:39 8,7 °C 85 % 1015,2 hPa 0,0 mm 6,7 km/h (2 Bft) W-SW 248 ° 0 min 0,000 mm 0,0 UV-I 0 W/m² 6,3 °C 7,8 °C 17,7 km/h (3 Bft)
21.12.2018 22:40 8,7 °C 85 % 1015,1 hPa 0,0 mm 10,7 km/h (2 Bft) W-NW 282 ° 0 min 0,000 mm 0,0 UV-I 0 W/m² 6,3 °C 7,0 °C 14,5 km/h (3 Bft)
21.12.2018 22:41 8,7 °C 85 % 1015,1 hPa 0,0 mm 7,5 km/h (2 Bft) W-SW 244 ° 0 min 0,000 mm 0,0 UV-I 0 W/m² 6,3 °C 7,6 °C 12,9 km/h (3 Bft)
21.12.2018 22:42 8,7 °C 85 % 1015,1 hPa 0,0 mm 7,1 km/h (2 Bft) W 259 ° 0 min 0,000 mm 0,0 UV-I 0 W/m² 6,3 °C 7,7 °C 11,3 km/h (2 Bft)
21.12.2018 22:43 8,6 °C 85 % 1015,2 hPa 0,0 mm 11,4 km/h (2 Bft) W 263 ° 0 min 0,000 mm 0,0 UV-I 0 W/m² 6,2 °C 6,7 °C 14,5 km/h (3 Bft)
21.12.2018 22:44 8,6 °C 85 % 1015,2 hPa 0,0 mm 10,1 km/h (2 Bft) W-NW 284 ° 0 min 0,000 mm 0,0 UV-I 0 W/m² 6,2 °C 6,9 °C 19,3 km/h (3 Bft)
21.12.2018 22:45 8,6 °C 85 % 1015,3 hPa 0,0 mm 11,4 km/h (2 Bft) W-SW 247 ° 0 min 0,000 mm 0,0 UV-I 0 W/m² 6,2 °C 6,7 °C 19,3 km/h (3 Bft)
21.12.2018 22:46 8,6 °C 85 % 1015,3 hPa 0,0 mm 16,5 km/h (3 Bft) W 261 ° 0 min 0,000 mm 0,0 UV-I 0 W/m² 6,2 °C 6,0 °C 25,7 km/h (4 Bft)
21.12.2018 22:47 8,6 °C 85 % 1015,2 hPa 0,0 mm 11,1 km/h (2 Bft) W-SW 237 ° 0 min 0,000 mm 0,0 UV-I 0 W/m² 6,2 °C 6,8 °C 17,7 km/h (3 Bft)
21.12.2018 22:48 8,5 °C 85 % 1015,2 hPa 0,0 mm 14,5 km/h (3 Bft) W 275 ° 0 min 0,000 mm 0,0 UV-I 0 W/m² 6,1 °C 6,1 °C 20,9 km/h (4 Bft)
21.12.2018 22:49 8,5 °C 85 % 1015,2 hPa 0,0 mm 8,6 km/h (2 Bft) W 267 ° 0 min 0,000 mm 0,0 UV-I 0 W/m² 6,1 °C 7,1 °C 14,5 km/h (3 Bft)
21.12.2018 22:50 8,5 °C 85 % 1015,2 hPa 0,0 mm 12,9 km/h (3 Bft) W 263 ° 0 min 0,000 mm 0,0 UV-I 0 W/m² 6,1 °C 6,4 °C 19,3 km/h (3 Bft)
21.12.2018 22:51 8,4 °C 86 % 1015,2 hPa 0,0 mm 8,6 km/h (2 Bft) W-SW 258 ° 0 min 0,000 mm 0,0 UV-I 0 W/m² 6,2 °C 7,0 °C 14,5 km/h (3 Bft)
21.12.2018 22:52 8,5 °C 86 % 1015,2 hPa 0,0 mm 10,9 km/h (2 Bft) W 271 ° 0 min 0,000 mm 0,0 UV-I 0 W/m² 6,3 °C 6,7 °C 16,1 km/h (3 Bft)
21.12.2018 22:53 8,5 °C 86 % 1015,2 hPa 0,0 mm 9,3 km/h (2 Bft) W 265 ° 0 min 0,000 mm 0,0 UV-I 0 W/m² 6,3 °C 7,0 °C 17,7 km/h (3 Bft)
21.12.2018 22:54 8,4 °C 86 % 1015,2 hPa 0,0 mm 7,4 km/h (2 Bft) W-SW 257 ° 0 min 0,000 mm 0,0 UV-I 0 W/m² 6,2 °C 7,3 °C 12,9 km/h (3 Bft)
21.12.2018 22:55 8,5 °C 86 % 1015,2 hPa 0,0 mm 7,1 km/h (2 Bft) W 259 ° 0 min 0,000 mm 0,0 UV-I 0 W/m² 6,3 °C 7,5 °C 12,9 km/h (3 Bft)
21.12.2018 22:56 8,4 °C 86 % 1015,2 hPa 0,0 mm 8,1 km/h (2 Bft) W-SW 248 ° 0 min 0,000 mm 0,0 UV-I 0 W/m² 6,2 °C 7,1 °C 11,3 km/h (2 Bft)
21.12.2018 22:57 8,4 °C 86 % 1015,2 hPa 0,0 mm 4,5 km/h (1 Bft) W 273 ° 0 min 0,000 mm 0,0 UV-I 0 W/m² 6,2 °C 8,4 °C 8,0 km/h (2 Bft)
21.12.2018 22:58 8,4 °C 86 % 1015,2 hPa 0,0 mm 6,0 km/h (2 Bft) W 273 ° 0 min 0,000 mm 0,0 UV-I 0 W/m² 6,2 °C 7,6 °C 11,3 km/h (2 Bft)
21.12.2018 22:59 8,4 °C 86 % 1015,1 hPa 0,0 mm 10,9 km/h (2 Bft) W-SW 246 ° 0 min 0,000 mm 0,0 UV-I 0 W/m² 6,2 °C 6,6 °C 16,1 km/h (3 Bft)
21.12.2018 23:00 8,4 °C 86 % 1015,2 hPa 0,0 mm 6,5 km/h (2 Bft) W 279 ° 0 min 0,000 mm 0,0 UV-I 0 W/m² 6,2 °C 7,5 °C 11,3 km/h (2 Bft)
21.12.2018 23:01 8,4 °C 86 % 1015,1 hPa 0,0 mm 7,6 km/h (2 Bft) W 267 ° 0 min 0,026 mm 0,0 UV-I 0 W/m² 6,2 °C 7,2 °C 11,3 km/h (2 Bft)
21.12.2018 23:02 8,4 °C 86 % 1015,1 hPa 0,0 mm 4,6 km/h (1 Bft) W 267 ° 0 min 0,000 mm 0,0 UV-I 0 W/m² 6,2 °C 8,1 °C 6,4 km/h (2 Bft)
21.12.2018 23:03 8,4 °C 86 % 1015,2 hPa 0,0 mm 7,6 km/h (2 Bft) W 276 ° 0 min 0,000 mm 0,0 UV-I 0 W/m² 6,2 °C 7,2 °C 12,9 km/h (3 Bft)
21.12.2018 23:04 8,4 °C 86 % 1015,2 hPa 0,0 mm 9,2 km/h (2 Bft) W 263 ° 0 min 0,000 mm 0,0 UV-I 0 W/m² 6,2 °C 6,9 °C 14,5 km/h (3 Bft)
21.12.2018 23:05 8,4 °C 86 % 1015,2 hPa 0,0 mm 6,3 km/h (2 Bft) W 267 ° 0 min 0,000 mm 0,0 UV-I 0 W/m² 6,2 °C 7,5 °C 9,7 km/h (2 Bft)
21.12.2018 23:06 8,4 °C 86 % 1015,2 hPa 0,0 mm 6,5 km/h (2 Bft) W 263 ° 0 min 0,000 mm 0,0 UV-I 0 W/m² 6,2 °C 7,5 °C 9,7 km/h (2 Bft)
21.12.2018 23:07 8,4 °C 86 % 1015,2 hPa 0,0 mm 10,2 km/h (2 Bft) W-SW 248 ° 0 min 0,000 mm 0,0 UV-I 0 W/m² 6,2 °C 6,7 °C 14,5 km/h (3 Bft)
21.12.2018 23:08 8,4 °C 86 % 1015,2 hPa 0,0 mm 8,6 km/h (2 Bft) W-SW 243 ° 0 min 0,000 mm 0,0 UV-I 0 W/m² 6,2 °C 7,0 °C 12,9 km/h (3 Bft)
21.12.2018 23:09 8,3 °C 86 % 1015,3 hPa 0,0 mm 7,6 km/h (2 Bft) W-SW 238 ° 0 min 0,000 mm 0,0 UV-I 0 W/m² 6,1 °C 7,1 °C 11,3 km/h (2 Bft)
21.12.2018 23:10 8,3 °C 86 % 1015,3 hPa 0,0 mm 7,6 km/h (2 Bft) W 260 ° 0 min 0,000 mm 0,0 UV-I 0 W/m² 6,1 °C 7,1 °C 12,9 km/h (3 Bft)
21.12.2018 23:11 8,3 °C 86 % 1015,2 hPa 0,0 mm 9,5 km/h (2 Bft) W-SW 254 ° 0 min 0,000 mm 0,0 UV-I 0 W/m² 6,1 °C 6,7 °C 12,9 km/h (3 Bft)
21.12.2018 23:12 8,3 °C 87 % 1015,1 hPa 0,0 mm 5,3 km/h (1 Bft) W-SW 255 ° 0 min 0,000 mm 0,0 UV-I 0 W/m² 6,3 °C 7,7 °C 6,4 km/h (2 Bft)
21.12.2018 23:13 8,3 °C 87 % 1015,2 hPa 0,0 mm 8,3 km/h (2 Bft) W 267 ° 0 min 0,000 mm 0,0 UV-I 0 W/m² 6,3 °C 6,9 °C 14,5 km/h (3 Bft)
21.12.2018 23:14 8,3 °C 87 % 1015,2 hPa 0,2 mm 6,1 km/h (2 Bft) W 263 ° 0 min 0,000 mm 0,0 UV-I 0 W/m² 6,3 °C 7,5 °C 9,7 km/h (2 Bft)
21.12.2018 23:15 8,3 °C 87 % 1015,2 hPa 0,0 mm 4,4 km/h (1 Bft) SW 236 ° 0 min 0,000 mm 0,0 UV-I 0 W/m² 6,3 °C 8,3 °C 6,4 km/h (2 Bft)
21.12.2018 23:16 8,3 °C 87 % 1015,2 hPa 0,0 mm 3,8 km/h (1 Bft) W-SW 242 ° 0 min 0,000 mm 0,0 UV-I 0 W/m² 6,3 °C 8,3 °C 6,4 km/h (2 Bft)
21.12.2018 23:17 8,3 °C 87 % 1015,1 hPa 0,0 mm 4,5 km/h (1 Bft) W-SW 246 ° 0 min 0,000 mm 0,0 UV-I 0 W/m² 6,3 °C 8,3 °C 8,0 km/h (2 Bft)
21.12.2018 23:18 8,3 °C 87 % 1015,2 hPa 0,0 mm 5,9 km/h (2 Bft) W-SW 255 ° 0 min 0,000 mm 0,0 UV-I 0 W/m² 6,3 °C 7,5 °C 12,9 km/h (3 Bft)
21.12.2018 23:19 8,3 °C 87 % 1015,2 hPa 0,0 mm 10,8 km/h (2 Bft) W 259 ° 0 min 0,000 mm 0,0 UV-I 0 W/m² 6,3 °C 6,5 °C 14,5 km/h (3 Bft)
21.12.2018 23:20 8,3 °C 87 % 1015,1 hPa 0,0 mm 8,4 km/h (2 Bft) W-SW 255 ° 0 min 0,000 mm 0,0 UV-I 0 W/m² 6,3 °C 6,9 °C 14,5 km/h (3 Bft)
21.12.2018 23:21 8,3 °C 87 % 1015,1 hPa 0,0 mm 5,4 km/h (1 Bft) W 260 ° 0 min 0,000 mm 0,0 UV-I 0 W/m² 6,3 °C 7,7 °C 11,3 km/h (2 Bft)
21.12.2018 23:22 8,3 °C 87 % 1015,1 hPa 0,0 mm 8,8 km/h (2 Bft) W-SW 254 ° 0 min 0,000 mm 0,0 UV-I 0 W/m² 6,3 °C 6,8 °C 11,3 km/h (2 Bft)
21.12.2018 23:23 8,2 °C 87 % 1015,1 hPa 0,0 mm 8,6 km/h (2 Bft) W 273 ° 0 min 0,000 mm 0,0 UV-I 0 W/m² 6,2 °C 6,8 °C 11,3 km/h (2 Bft)
21.12.2018 23:24 8,2 °C 87 % 1015,1 hPa 0,0 mm 7,0 km/h (2 Bft) W 270 ° 0 min 0,000 mm 0,0 UV-I 0 W/m² 6,2 °C 7,1 °C 11,3 km/h (2 Bft)
21.12.2018 23:25 8,3 °C 87 % 1015,0 hPa 0,0 mm 4,6 km/h (1 Bft) W-SW 252 ° 0 min 0,000 mm 0,0 UV-I 0 W/m² 6,3 °C 8,0 °C 6,4 km/h (2 Bft)
21.12.2018 23:26 8,2 °C 87 % 1015,0 hPa 0,0 mm 3,9 km/h (1 Bft) W-SW 250 ° 0 min 0,000 mm 0,0 UV-I 0 W/m² 6,2 °C 8,2 °C 4,8 km/h (1 Bft)
21.12.2018 23:27 8,2 °C 88 % 1015,0 hPa 0,0 mm 7,8 km/h (2 Bft) W-SW 252 ° 0 min 0,000 mm 0,0 UV-I 0 W/m² 6,3 °C 6,9 °C 11,3 km/h (2 Bft)
21.12.2018 23:28 8,2 °C 88 % 1015,1 hPa 0,0 mm 9,7 km/h (2 Bft) W-SW 252 ° 0 min 0,000 mm 0,0 UV-I 0 W/m² 6,3 °C 6,5 °C 16,1 km/h (3 Bft)
21.12.2018 23:29 8,2 °C 88 % 1015,0 hPa 0,0 mm 3,1 km/h (1 Bft) W-SW 252 ° 0 min 0,000 mm 0,0 UV-I 0 W/m² 6,3 °C 8,2 °C 6,4 km/h (2 Bft)
21.12.2018 23:30 8,2 °C 88 % 1014,9 hPa 0,0 mm 3,1 km/h (1 Bft) W-SW 248 ° 0 min 0,000 mm 0,0 UV-I 0 W/m² 6,3 °C 8,2 °C 4,8 km/h (1 Bft)
21.12.2018 23:31 8,2 °C 88 % 1014,9 hPa 0,0 mm 3,5 km/h (1 Bft) W 265 ° 0 min 0,000 mm 0,0 UV-I 0 W/m² 6,3 °C 8,2 °C 11,3 km/h (2 Bft)
21.12.2018 23:32 8,2 °C 88 % 1014,9 hPa 0,0 mm 4,2 km/h (1 Bft) W-NW 297 ° 0 min 0,000 mm 0,0 UV-I 0 W/m² 6,3 °C 8,2 °C 9,7 km/h (2 Bft)
21.12.2018 23:33 8,2 °C 88 % 1014,9 hPa 0,0 mm 11,9 km/h (2 Bft) W 272 ° 0 min 0,000 mm 0,0 UV-I 0 W/m² 6,3 °C 6,2 °C 19,3 km/h (3 Bft)
21.12.2018 23:34 8,2 °C 88 % 1014,8 hPa 0,0 mm 12,6 km/h (3 Bft) W 263 ° 0 min 0,000 mm 0,0 UV-I 0 W/m² 6,3 °C 6,0 °C 17,7 km/h (3 Bft)
21.12.2018 23:35 8,2 °C 88 % 1014,9 hPa 0,0 mm 9,1 km/h (2 Bft) W-SW 252 ° 0 min 0,000 mm 0,0 UV-I 0 W/m² 6,3 °C 6,7 °C 11,3 km/h (2 Bft)
21.12.2018 23:36 8,2 °C 88 % 1014,9 hPa 0,0 mm 5,4 km/h (1 Bft) W 265 ° 0 min 0,000 mm 0,0 UV-I 0 W/m² 6,3 °C 7,6 °C 9,7 km/h (2 Bft)
21.12.2018 23:37 8,1 °C 88 % 1014,8 hPa 0,0 mm 4,8 km/h (1 Bft) W 269 ° 0 min 0,000 mm 0,0 UV-I 0 W/m² 6,2 °C 7,7 °C 8,0 km/h (2 Bft)
21.12.2018 23:38 8,2 °C 88 % 1014,9 hPa 0,0 mm 6,4 km/h (2 Bft) W-SW 246 ° 0 min 0,000 mm 0,0 UV-I 0 W/m² 6,3 °C 7,3 °C 12,9 km/h (3 Bft)
21.12.2018 23:39 8,2 °C 88 % 1014,8 hPa 0,0 mm 11,8 km/h (2 Bft) W-SW 246 ° 0 min 0,000 mm 0,0 UV-I 0 W/m² 6,3 °C 6,2 °C 20,9 km/h (4 Bft)
21.12.2018 23:40 8,2 °C 88 % 1014,8 hPa 0,0 mm 12,2 km/h (2 Bft) SW 234 ° 0 min 0,000 mm 0,0 UV-I 0 W/m² 6,3 °C 6,1 °C 17,7 km/h (3 Bft)
21.12.2018 23:41 8,2 °C 88 % 1014,7 hPa 0,0 mm 9,9 km/h (2 Bft) W-NW 287 ° 0 min 0,000 mm 0,0 UV-I 0 W/m² 6,3 °C 6,5 °C 17,7 km/h (3 Bft)
21.12.2018 23:42 8,2 °C 88 % 1014,8 hPa 0,0 mm 7,6 km/h (2 Bft) W-SW 254 ° 0 min 0,000 mm 0,0 UV-I 0 W/m² 6,3 °C 7,0 °C 11,3 km/h (2 Bft)
21.12.2018 23:43 8,2 °C 87 % 1014,7 hPa 0,0 mm 11,9 km/h (2 Bft) W-SW 255 ° 0 min 0,000 mm 0,0 UV-I 0 W/m² 6,2 °C 6,2 °C 16,1 km/h (3 Bft)
21.12.2018 23:44 8,2 °C 87 % 1014,7 hPa 0,0 mm 10,1 km/h (2 Bft) W-SW 251 ° 0 min 0,000 mm 0,0 UV-I 0 W/m² 6,2 °C 6,5 °C 14,5 km/h (3 Bft)
21.12.2018 23:45 8,2 °C 87 % 1014,7 hPa 0,0 mm 9,3 km/h (2 Bft) W 275 ° 0 min 0,000 mm 0,0 UV-I 0 W/m² 6,2 °C 6,6 °C 12,9 km/h (3 Bft)
21.12.2018 23:46 8,2 °C 87 % 1014,7 hPa 0,0 mm 11,5 km/h (2 Bft) W-SW 248 ° 0 min 0,000 mm 0,0 UV-I 0 W/m² 6,2 °C 6,2 °C 16,1 km/h (3 Bft)
21.12.2018 23:47 8,2 °C 87 % 1014,7 hPa 0,0 mm 11,3 km/h (2 Bft) W 269 ° 0 min 0,000 mm 0,0 UV-I 0 W/m² 6,2 °C 6,2 °C 14,5 km/h (3 Bft)
21.12.2018 23:48 8,3 °C 87 % 1014,7 hPa 0,0 mm 12,0 km/h (2 Bft) W-SW 250 ° 0 min 0,000 mm 0,0 UV-I 0 W/m² 6,3 °C 6,3 °C 16,1 km/h (3 Bft)
21.12.2018 23:49 8,3 °C 87 % 1014,7 hPa 0,0 mm 7,8 km/h (2 Bft) W 275 ° 0 min 0,000 mm 0,0 UV-I 0 W/m² 6,3 °C 7,1 °C 12,9 km/h (3 Bft)
21.12.2018 23:50 8,3 °C 87 % 1014,7 hPa 0,0 mm 13,8 km/h (3 Bft) W 276 ° 0 min 0,000 mm 0,0 UV-I 0 W/m² 6,3 °C 6,0 °C 24,1 km/h (4 Bft)
21.12.2018 23:51 8,3 °C 87 % 1014,7 hPa 0,0 mm 12,3 km/h (3 Bft) W-SW 252 ° 0 min 0,000 mm 0,0 UV-I 0 W/m² 6,3 °C 6,2 °C 16,1 km/h (3 Bft)
21.12.2018 23:52 8,3 °C 87 % 1014,7 hPa 0,0 mm 11,4 km/h (2 Bft) W 265 ° 0 min 0,000 mm 0,0 UV-I 0 W/m² 6,3 °C 6,4 °C 16,1 km/h (3 Bft)
21.12.2018 23:53 8,3 °C 87 % 1014,7 hPa 0,0 mm 9,7 km/h (2 Bft) W-SW 250 ° 0 min 0,000 mm 0,0 UV-I 0 W/m² 6,3 °C 6,7 °C 16,1 km/h (3 Bft)
21.12.2018 23:54 8,3 °C 87 % 1014,7 hPa 0,0 mm 12,5 km/h (3 Bft) W 273 ° 0 min 0,000 mm 0,0 UV-I 0 W/m² 6,3 °C 6,2 °C 24,1 km/h (4 Bft)
21.12.2018 23:55 8,3 °C 87 % 1014,6 hPa 0,0 mm 13,5 km/h (3 Bft) W-SW 246 ° 0 min 0,000 mm 0,0 UV-I 0 W/m² 6,3 °C 6,0 °C 20,9 km/h (4 Bft)
21.12.2018 23:56 8,4 °C 87 % 1014,7 hPa 0,0 mm 13,0 km/h (3 Bft) W 273 ° 0 min 0,000 mm 0,0 UV-I 0 W/m² 6,4 °C 6,2 °C 17,7 km/h (3 Bft)
21.12.2018 23:57 8,4 °C 86 % 1014,7 hPa 0,0 mm 11,7 km/h (2 Bft) W 259 ° 0 min 0,000 mm 0,0 UV-I 0 W/m² 6,2 °C 6,4 °C 17,7 km/h (3 Bft)
21.12.2018 23:58 8,4 °C 86 % 1014,7 hPa 0,0 mm 10,1 km/h (2 Bft) W 262 ° 0 min 0,000 mm 0,0 UV-I 0 W/m² 6,2 °C 6,7 °C 14,5 km/h (3 Bft)
21.12.2018 23:59 8,4 °C 86 % 1014,7 hPa 0,0 mm 12,5 km/h (3 Bft) SW 236 ° 0 min 0,000 mm 0,0 UV-I 0 W/m² 6,2 °C 6,3 °C 17,7 km/h (3 Bft)
_ Min-Zeit 09:09 11:14 14:37 - 13:00 - - - - - - 08:37 06:03 13:00
Minimum _ -1,3 °C 62 % 1013,2 hPa - 0,0 km/h (0 Bft) - - - - - - -3,7 °C -2,7 °C 0,0 km/h (0 Bft)
_ Max-Zeit 20:11 17:14 00:29 23:14 18:17 - - 23:59 21:01 13:45 12:44 22:21 22:57 19:06
Maximum _ 9,8 °C 91 % 1021,6 hPa 0,2 mm 30,4 km/h
W-SW (5 Bft)
- - 0 min 0,051 mm 0,8 UV-I 125 W/m² 6,4 °C 8,4 °C 45,1 km/h
W (6 Bft)
Durchschnitt _ 3,9 °C 82 % 1017,0 hPa #4,2 mm 6,5 km/h (2 Bft) W - #0 min. #0,432 mm 0,6 UV-I 15 W/m² 1,1 °C 2,8 °C 10,0 km/h (2 Bft)